[[{"header":{"parameterUnit":"m.s-1","parameterCategory":1,"la1":30.6,"la2":29.2853,"lo1":-89.7004,"lo2":-87.6739,"dy":0.0162,"dx":0.0183,"nx":112,"ny":82,"refTime":"2024-04-17T12:00:00:Z","depth":0,"parameterNumber":2,"parameterNumberName":"U-component_of_WINDS"},"data":[0.0,0.0,0.0,0.0,0.0,0.0,0.0,0.0,0.0,0.0,0.0,0.0,0.0,0.0,0.0,0.0,0.0,0.0,0.0,0.0,0.0,0.0,0.0,0.0,0.0,0.0,0.0,0.0,0.0,0.0,0.0,0.0,0.0,0.0,0.0,0.0,0.0,0.0,0.0,0.0,0.0,0.0,0.0,0.0,0.0,0.0,0.0,0.0,0.0,0.0,0.0,0.0,0.0,0.0,0.0,0.0,0.0,0.0,0.0,0.0,0.0,0.0,0.0,0.0,0.0,0.0,0.0,0.0,0.0,0.0,0.0,0.0,0.0,0.0,0.0,0.0,0.0,0.0,0.0,0.0,0.0,0.0,0.0,0.0,0.0,0.0,0.0,0.0,0.0,0.0,-4.7317,-4.9913,-5.4899,-5.8238,-5.8635,-5.8291,-5.5787,-5.0486,0.0,0.0,0.0,0.0,0.0,0.0,0.0,0.0,0.0,0.0,0.0,0.0,0.0,0.0,0.0,0.0,0.0,0.0,0.0,0.0,0.0,0.0,0.0,0.0,0.0,0.0,0.0,0.0,0.0,0.0,0.0,0.0,0.0,0.0,0.0,0.0,0.0,0.0,0.0,0.0,0.0,0.0,0.0,0.0,0.0,0.0,0.0,0.0,0.0,0.0,0.0,0.0,0.0,0.0,0.0,0.0,0.0,0.0,0.0,0.0,0.0,0.0,0.0,0.0,0.0,0.0,0.0,0.0,0.0,0.0,0.0,0.0,0.0,0.0,0.0,0.0,0.0,0.0,0.0,0.0,0.0,0.0,0.0,0.0,0.0,0.0,0.0,0.0,0.0,0.0,0.0,0.0,0.0,0.0,0.0,0.0,0.0,0.0,0.0,0.0,0.0,0.0,0.0,0.0,-4.6259,-5.301,-5.5168,-5.6773,-5.8385,-5.5889,-5.3013,-5.0123,0.0,0.0,0.0,0.0,0.0,0.0,0.0,0.0,0.0,0.0,0.0,0.0,0.0,0.0,0.0,0.0,0.0,0.0,0.0,0.0,0.0,0.0,0.0,0.0,0.0,0.0,0.0,0.0,0.0,0.0,0.0,0.0,0.0,0.0,0.0,0.0,0.0,0.0,0.0,0.0,0.0,0.0,0.0,0.0,0.0,0.0,0.0,0.0,0.0,0.0,0.0,0.0,0.0,0.0,0.0,0.0,0.0,0.0,0.0,0.0,0.0,0.0,0.0,0.0,0.0,0.0,0.0,0.0,0.0,0.0,0.0,0.0,0.0,0.0,0.0,0.0,0.0,0.0,0.0,0.0,0.0,0.0,0.0,0.0,0.0,0.0,0.0,0.0,0.0,0.0,0.0,0.0,0.0,0.0,0.0,0.0,0.0,0.0,0.0,0.0,0.0,0.0,0.0,-4.3825,-4.634,-5.1846,-5.3587,-5.4728,-5.5672,-5.3863,-5.1483,-4.8627,-4.7666,0.0,0.0,0.0,0.0,0.0,0.0,0.0,0.0,0.0,0.0,0.0,0.0,0.0,0.0,0.0,0.0,0.0,0.0,0.0,0.0,0.0,0.0,0.0,0.0,0.0,0.0,0.0,0.0,0.0,0.0,0.0,0.0,0.0,0.0,0.0,0.0,0.0,0.0,0.0,0.0,0.0,0.0,0.0,0.0,0.0,0.0,0.0,0.0,0.0,0.0,0.0,0.0,0.0,0.0,0.0,0.0,0.0,0.0,0.0,0.0,0.0,0.0,0.0,0.0,0.0,0.0,0.0,0.0,0.0,0.0,0.0,0.0,0.0,0.0,0.0,0.0,0.0,0.0,0.0,0.0,0.0,0.0,0.0,0.0,0.0,0.0,0.0,0.0,0.0,0.0,0.0,0.0,0.0,0.0,0.0,0.0,0.0,0.0,0.0,0.0,0.0,0.0,-4.4988,-4.6604,-5.0308,-5.1856,-5.2733,-5.3017,-5.171,-4.9644,-4.6746,-4.4409,0.0,0.0,0.0,0.0,0.0,0.0,0.0,0.0,0.0,0.0,0.0,0.0,0.0,0.0,0.0,0.0,0.0,0.0,0.0,0.0,0.0,0.0,0.0,0.0,0.0,0.0,0.0,0.0,0.0,0.0,0.0,0.0,0.0,0.0,0.0,0.0,0.0,0.0,0.0,0.0,0.0,0.0,0.0,0.0,0.0,0.0,0.0,0.0,0.0,0.0,0.0,0.0,0.0,0.0,0.0,0.0,0.0,0.0,0.0,0.0,0.0,0.0,0.0,0.0,0.0,0.0,0.0,0.0,0.0,0.0,0.0,0.0,0.0,0.0,0.0,0.0,0.0,0.0,0.0,0.0,0.0,0.0,0.0,0.0,0.0,0.0,0.0,0.0,0.0,0.0,0.0,0.0,0.0,0.0,0.0,0.0,0.0,0.0,0.0,0.0,0.0,0.0,-4.3848,-4.6545,-5.0298,-5.0808,-5.1174,-5.1934,-4.9086,-4.6524,-4.4802,-4.0845,0.0,0.0,0.0,0.0,0.0,0.0,0.0,0.0,0.0,0.0,0.0,0.0,0.0,0.0,0.0,0.0,0.0,0.0,0.0,0.0,0.0,0.0,0.0,0.0,0.0,0.0,0.0,0.0,0.0,0.0,0.0,0.0,0.0,0.0,0.0,0.0,0.0,0.0,0.0,0.0,0.0,0.0,0.0,0.0,0.0,0.0,0.0,0.0,0.0,0.0,0.0,0.0,0.0,0.0,0.0,0.0,0.0,0.0,0.0,0.0,0.0,0.0,0.0,0.0,0.0,0.0,0.0,0.0,0.0,0.0,0.0,0.0,0.0,0.0,0.0,0.0,0.0,0.0,0.0,0.0,0.0,0.0,0.0,0.0,0.0,0.0,0.0,0.0,0.0,0.0,0.0,0.0,0.0,0.0,0.0,0.0,0.0,0.0,0.0,0.0,0.0,0.0,-4.1907,-4.4178,-4.7305,-4.8121,-4.859,-4.8876,-4.776,-4.5957,-4.3414,0.0,0.0,0.0,0.0,0.0,0.0,0.0,0.0,0.0,0.0,0.0,0.0,0.0,0.0,0.0,0.0,0.0,0.0,0.0,0.0,0.0,0.0,0.0,0.0,0.0,0.0,0.0,0.0,0.0,0.0,0.0,0.0,0.0,0.0,0.0,0.0,0.0,0.0,0.0,0.0,0.0,0.0,0.0,0.0,0.0,0.0,0.0,0.0,0.0,0.0,0.0,0.0,0.0,0.0,0.0,0.0,0.0,0.0,0.0,0.0,0.0,0.0,0.0,0.0,0.0,0.0,0.0,0.0,0.0,0.0,0.0,0.0,0.0,0.0,0.0,0.0,0.0,0.0,0.0,0.0,0.0,0.0,0.0,0.0,0.0,0.0,0.0,0.0,0.0,0.0,0.0,0.0,0.0,0.0,0.0,0.0,0.0,0.0,0.0,0.0,0.0,0.0,-3.9305,-4.0808,-4.2721,-4.551,-4.6323,-4.6696,-4.6696,-4.57,-4.4259,-4.2252,0.0,0.0,0.0,0.0,0.0,0.0,0.0,0.0,0.0,0.0,0.0,0.0,0.0,0.0,0.0,0.0,0.0,0.0,0.0,0.0,0.0,0.0,0.0,0.0,0.0,0.0,0.0,0.0,0.0,0.0,0.0,0.0,0.0,0.0,0.0,0.0,0.0,0.0,0.0,0.0,0.0,0.0,0.0,0.0,0.0,0.0,0.0,0.0,0.0,0.0,0.0,0.0,0.0,0.0,0.0,0.0,0.0,0.0,0.0,0.0,0.0,0.0,0.0,0.0,0.0,0.0,0.0,0.0,0.0,0.0,0.0,0.0,0.0,0.0,0.0,0.0,0.0,0.0,0.0,0.0,0.0,0.0,0.0,0.0,0.0,0.0,0.0,0.0,0.0,0.0,0.0,0.0,0.0,0.0,0.0,0.0,0.0,0.0,0.0,0.0,0.0,0.0,-3.9345,-4.0763,-4.266,-4.5477,-4.5768,-4.5768,-4.5768,-4.2725,-4.0946,0.0,0.0,0.0,0.0,0.0,0.0,0.0,0.0,0.0,0.0,0.0,0.0,0.0,0.0,0.0,0.0,0.0,0.0,0.0,0.0,0.0,0.0,0.0,0.0,0.0,0.0,0.0,0.0,0.0,0.0,0.0,0.0,0.0,0.0,0.0,0.0,0.0,0.0,0.0,0.0,0.0,0.0,0.0,0.0,0.0,0.0,0.0,0.0,0.0,0.0,0.0,0.0,0.0,0.0,0.0,0.0,0.0,0.0,0.0,0.0,0.0,0.0,0.0,0.0,0.0,0.0,0.0,0.0,0.0,0.0,0.0,0.0,0.0,0.0,0.0,0.0,0.0,0.0,0.0,0.0,0.0,0.0,0.0,0.0,0.0,0.0,0.0,0.0,0.0,0.0,0.0,0.0,0.0,0.0,0.0,0.0,0.0,0.0,0.0,0.0,0.0,0.0,0.0,-3.8706,-3.9812,-4.1366,-4.3915,-4.4191,-4.4191,-4.4191,-4.2233,-4.0884,-4.0613,0.0,0.0,0.0,0.0,0.0,0.0,0.0,0.0,0.0,0.0,0.0,0.0,0.0,0.0,0.0,0.0,0.0,0.0,0.0,0.0,0.0,0.0,0.0,0.0,0.0,0.0,0.0,0.0,0.0,0.0,0.0,0.0,0.0,0.0,0.0,0.0,0.0,0.0,0.0,0.0,0.0,0.0,0.0,0.0,0.0,0.0,0.0,0.0,0.0,0.0,0.0,0.0,0.0,0.0,0.0,0.0,0.0,0.0,0.0,0.0,0.0,0.0,0.0,0.0,0.0,0.0,0.0,0.0,0.0,0.0,0.0,0.0,0.0,0.0,0.0,0.0,0.0,0.0,0.0,0.0,0.0,0.0,0.0,0.0,0.0,0.0,0.0,0.0,0.0,0.0,0.0,0.0,0.0,0.0,0.0,0.0,0.0,0.0,0.0,0.0,0.0,0.0,-3.7966,-3.9203,-4.0689,-4.28,-4.3296,-4.341,-4.3196,-4.1701,-4.0427,-3.9553,0.0,0.0,0.0,0.0,0.0,0.0,0.0,0.0,0.0,0.0,0.0,0.0,0.0,0.0,0.0,0.0,0.0,0.0,0.0,0.0,0.0,0.0,0.0,0.0,0.0,0.0,0.0,0.0,0.0,0.0,0.0,0.0,0.0,0.0,0.0,0.0,0.0,0.0,0.0,0.0,0.0,0.0,0.0,0.0,0.0,0.0,0.0,0.0,0.0,0.0,0.0,0.0,0.0,0.0,0.0,0.0,0.0,0.0,0.0,0.0,0.0,0.0,0.0,0.0,0.0,0.0,0.0,0.0,0.0,0.0,0.0,0.0,0.0,0.0,0.0,0.0,0.0,0.0,0.0,0.0,0.0,0.0,0.0,0.0,0.0,0.0,0.0,0.0,0.0,0.0,0.0,0.0,0.0,0.0,0.0,0.0,0.0,0.0,0.0,0.0,0.0,0.0,-3.7272,-3.8851,-4.0432,-4.2121,-4.302,-4.3268,-4.275,-4.1232,-3.9731,-3.8378,0.0,0.0,0.0,0.0,0.0,0.0,0.0,0.0,0.0,0.0,0.0,0.0,0.0,0.0,0.0,0.0,0.0,0.0,0.0,0.0,0.0,0.0,0.0,0.0,0.0,0.0,0.0,0.0,0.0,0.0,0.0,0.0,0.0,0.0,0.0,0.0,0.0,0.0,0.0,0.0,0.0,0.0,0.0,0.0,0.0,0.0,0.0,0.0,0.0,0.0,0.0,0.0,0.0,0.0,0.0,0.0,0.0,0.0,0.0,0.0,-4.2136,-4.2002,0.0,0.0,0.0,0.0,0.0,0.0,0.0,0.0,0.0,0.0,0.0,0.0,0.0,0.0,0.0,0.0,0.0,0.0,0.0,0.0,0.0,0.0,0.0,0.0,0.0,0.0,0.0,0.0,0.0,0.0,0.0,0.0,0.0,0.0,0.0,0.0,0.0,0.0,0.0,0.0,-3.7199,-3.834,-3.9808,-4.2066,-4.302,-4.3268,-4.275,-4.1177,-3.9679,-3.8452,-3.6006,0.0,0.0,0.0,0.0,0.0,0.0,0.0,0.0,0.0,0.0,0.0,0.0,0.0,0.0,0.0,0.0,0.0,0.0,0.0,0.0,0.0,0.0,0.0,0.0,0.0,0.0,0.0,0.0,0.0,0.0,0.0,0.0,0.0,0.0,0.0,0.0,0.0,0.0,0.0,0.0,0.0,0.0,0.0,0.0,0.0,0.0,0.0,0.0,0.0,0.0,0.0,0.0,0.0,0.0,0.0,0.0,0.0,0.0,0.0,-4.34,-4.2652,0.0,0.0,0.0,0.0,0.0,0.0,0.0,0.0,0.0,0.0,0.0,0.0,0.0,0.0,0.0,0.0,0.0,0.0,0.0,0.0,0.0,0.0,0.0,0.0,0.0,0.0,0.0,0.0,0.0,0.0,0.0,0.0,0.0,0.0,0.0,0.0,0.0,0.0,0.0,0.0,-3.7151,-3.8003,-3.9261,-4.1613,-4.2632,-4.2608,-4.1422,-4.0521,-3.9088,-3.6941,-3.5644,0.0,0.0,0.0,0.0,0.0,0.0,0.0,0.0,0.0,0.0,0.0,0.0,0.0,0.0,0.0,0.0,0.0,0.0,0.0,0.0,0.0,0.0,0.0,0.0,0.0,0.0,0.0,0.0,0.0,0.0,0.0,0.0,0.0,0.0,0.0,0.0,0.0,0.0,0.0,0.0,0.0,0.0,0.0,0.0,0.0,0.0,0.0,0.0,0.0,0.0,0.0,0.0,0.0,-4.6481,-4.6836,-4.7175,-4.7175,-4.7175,-4.7098,-4.5545,-4.4243,-4.3079,-4.1657,0.0,0.0,0.0,0.0,0.0,0.0,0.0,0.0,0.0,0.0,0.0,0.0,0.0,0.0,0.0,0.0,0.0,0.0,0.0,0.0,0.0,0.0,-3.8416,-3.7581,-3.7644,-3.7569,-3.6374,0.0,0.0,0.0,0.0,0.0,0.0,0.0,0.0,0.0,0.0,0.0,-3.6517,-3.7301,-3.8527,-4.083,-4.1837,-4.1711,-4.0132,-3.9985,-3.8666,-3.5589,-3.5949,-3.4914,0.0,0.0,0.0,0.0,0.0,0.0,0.0,0.0,0.0,0.0,0.0,0.0,0.0,0.0,0.0,0.0,0.0,0.0,0.0,0.0,0.0,0.0,0.0,0.0,0.0,0.0,0.0,0.0,0.0,0.0,0.0,0.0,-4.1021,-4.1659,0.0,0.0,0.0,0.0,0.0,0.0,0.0,0.0,0.0,0.0,0.0,0.0,0.0,-4.5602,-4.6346,-4.8359,-4.8781,-4.7618,-4.9545,-4.9864,-4.8714,-4.8714,-4.8714,-4.8697,-4.8455,0.0,-4.4306,-4.3283,0.0,0.0,0.0,0.0,0.0,0.0,0.0,0.0,0.0,0.0,0.0,0.0,0.0,0.0,0.0,0.0,0.0,0.0,0.0,0.0,0.0,0.0,-3.8372,-3.7183,-3.7418,-3.7682,-3.686,-3.7094,-3.7091,-3.5858,-3.4659,-3.3713,0.0,0.0,0.0,0.0,0.0,0.0,-3.4115,-3.5403,-3.7162,-3.9505,-4.0484,-4.0909,-4.0781,-4.0764,-3.9549,-3.6741,-3.6017,-3.5138,-3.3861,-3.1968,0.0,0.0,0.0,0.0,0.0,0.0,0.0,0.0,0.0,0.0,0.0,0.0,0.0,0.0,0.0,0.0,0.0,0.0,0.0,0.0,0.0,0.0,0.0,0.0,0.0,0.0,0.0,0.0,0.0,-4.1476,-4.1737,-4.1009,-4.1181,-4.0768,0.0,0.0,0.0,0.0,0.0,0.0,0.0,0.0,0.0,-4.7513,-4.8376,-4.9154,-4.9881,-5.1302,-5.1691,-5.1065,-5.2046,-5.2164,-5.1539,-5.1539,-5.1539,-5.1488,-5.0625,-4.9272,-4.7492,-4.5005,-4.2826,-4.0996,0.0,0.0,0.0,0.0,-4.0137,-4.0311,-4.0769,-4.0474,-4.002,-4.0542,0.0,0.0,0.0,0.0,0.0,0.0,0.0,-3.8986,-3.7422,-3.8246,-3.9255,-3.8289,-3.8582,-3.9039,-3.8725,-3.8169,-3.7227,-3.5452,-3.4944,-3.4411,-3.3283,-3.2096,0.0,0.0,0.0,-3.3068,-3.4783,-3.5749,-3.6998,-3.8849,-3.9361,-3.9473,-3.923,-3.9217,-3.8519,-3.6903,-3.6045,-3.5055,-3.3813,-3.2359,-3.173,0.0,0.0,0.0,0.0,0.0,0.0,0.0,0.0,0.0,0.0,0.0,0.0,0.0,0.0,0.0,0.0,0.0,0.0,0.0,0.0,0.0,0.0,0.0,0.0,0.0,0.0,0.0,0.0,-4.2422,-4.2481,-4.0794,-4.1821,-4.1649,0.0,0.0,0.0,0.0,0.0,0.0,-4.5879,-4.7445,-4.9058,-5.0644,-5.1606,-5.2435,-5.3162,-5.3771,-5.3974,-5.3788,-5.3788,-5.3687,-5.3501,-5.3501,-5.3399,-5.3129,-5.1995,-5.0963,-4.9813,-4.6312,-4.3758,-4.1967,-4.0815,-4.0029,-3.9669,-4.0675,-4.1007,-4.1061,-4.1653,-4.1322,-4.0671,-4.0898,-4.0181,-3.9101,-3.8618,0.0,0.0,0.0,0.0,-3.874,-3.805,-3.8849,-3.974,-3.9385,-3.9571,-3.9825,-3.9825,-3.8802,-3.7347,-3.5436,-3.5064,-3.4589,-3.3254,-3.1877,0.0,-3.193,-3.2126,-3.2889,-3.4806,-3.56,-3.6567,-3.8043,-3.8215,-3.8117,-3.7936,-3.7905,-3.7584,-3.6846,-3.6231,-3.5143,-3.3474,-3.2679,-3.1742,-3.0575,0.0,0.0,0.0,0.0,0.0,0.0,0.0,0.0,0.0,0.0,0.0,0.0,0.0,0.0,0.0,0.0,0.0,0.0,0.0,0.0,0.0,0.0,0.0,0.0,0.0,0.0,0.0,0.0,0.0,-4.2029,-4.3897,0.0,0.0,0.0,0.0,-4.4446,-4.516,-4.7,-5.023,-4.984,-5.1318,-5.5259,-5.4752,-5.4786,-5.553,-5.5581,-5.5243,-5.4532,-5.4532,-5.4177,-5.3501,-5.3501,-5.3078,-5.2367,-5.2283,-5.142,-4.9864,-4.6887,-4.5162,-4.4276,-4.278,-4.2153,-4.2119,-4.218,-4.1773,-4.1205,-4.1239,-4.0316,-3.9326,-4.0722,-4.0988,-4.0543,-3.934,-3.9645,0.0,0.0,-3.8757,-3.9606,-3.9071,-3.8979,-3.9208,-3.9893,-3.9554,-3.9056,-3.9056,-3.8447,-3.7669,-3.6846,-3.4962,-3.3403,-3.3064,0.0,-3.153,-3.089,-3.2016,-3.2833,-3.2519,-3.3727,-3.5198,-3.674,-3.6892,-3.7174,-3.7838,-3.7905,-3.7584,-3.6846,-3.6761,-3.5723,-3.3491,-3.2679,-3.1616,-3.0163,-2.9816,0.0,0.0,0.0,0.0,0.0,0.0,0.0,0.0,0.0,0.0,0.0,0.0,0.0,0.0,0.0,0.0,0.0,0.0,0.0,0.0,0.0,0.0,0.0,0.0,0.0,0.0,0.0,0.0,-4.5007,-4.6732,0.0,-4.482,-4.5282,-4.5898,-4.6325,-4.7985,-4.9671,-5.1313,-5.2613,-5.3994,-5.5457,-5.5341,-5.538,-5.5642,-5.5224,-5.4407,-5.3253,-5.3253,-5.2963,-5.247,-5.247,-5.24,-5.2283,-5.1809,-5.1031,-4.9898,-4.7428,-4.5974,-4.5213,-4.4164,-4.3176,-4.2286,-4.2286,-4.2439,-4.2557,-4.2066,-4.1559,-4.0967,-4.007,-3.9729,-3.9501,-3.857,-3.857,-3.874,-3.8075,-3.8224,-3.8632,-3.8943,-3.865,-3.8481,-3.9208,-3.8819,-3.8294,-3.8294,-3.7702,-3.7094,-3.6846,-3.5723,-3.4481,-3.3434,-3.223,-3.1308,-3.1071,-3.1498,-3.1949,-3.2263,-3.3596,-3.4709,-3.5272,-3.5323,-3.5605,-3.6343,-3.5554,-3.4895,-3.4624,-3.4172,-3.3343,-3.2036,-3.1275,-3.0412,-2.9397,-2.846,-2.8382,0.0,0.0,0.0,0.0,0.0,0.0,0.0,0.0,0.0,0.0,0.0,0.0,0.0,0.0,0.0,0.0,0.0,0.0,0.0,0.0,0.0,0.0,0.0,0.0,0.0,-4.5505,-4.7111,-4.6945,-4.9137,-4.9808,-4.7789,-4.8417,-4.9075,-4.9269,-5.0955,-5.2333,-5.3168,-5.4502,-5.5419,-5.5836,-5.5655,-5.5474,-5.5277,-5.4589,-5.3686,-5.2501,-5.2617,-5.2215,-5.1414,-5.1853,-5.1827,-5.1413,-5.1003,-5.0405,-4.9593,-4.7885,-4.6735,-4.5974,-4.5004,-4.3988,-4.3091,-4.3091,-4.3047,-4.2895,-4.1897,-4.1568,-4.1331,-3.9834,-3.9385,-3.9276,-3.8785,-3.8633,-3.8633,-3.8633,-3.8633,-3.87,-3.8937,-3.8633,-3.8328,-3.8565,-3.8058,-3.7533,-3.7533,-3.6924,-3.64,-3.64,-3.596,-3.5126,-3.366,-3.2594,-3.185,-3.1596,-3.1582,-3.1833,-3.2581,-3.3508,-3.4218,-3.4472,-3.4489,-3.4692,-3.5199,-3.4551,-3.3829,-3.3068,-3.2797,-3.2124,-3.0886,-3.0598,-2.9914,-2.8718,-2.7443,-2.7219,-2.8075,0.0,0.0,0.0,0.0,0.0,0.0,0.0,0.0,0.0,0.0,0.0,0.0,0.0,0.0,0.0,0.0,0.0,0.0,0.0,0.0,0.0,0.0,0.0,-4.3812,-4.6524,-4.8306,-4.7906,-5.1077,-5.2531,-5.0614,-5.2785,-5.3997,-5.3324,-5.3877,-5.4718,-5.5906,-5.5287,-5.5388,-5.6602,-5.5884,-5.5182,-5.4537,-5.386,-5.314,-5.2381,-5.2688,-5.1971,-5.0349,-5.1586,-5.1262,-4.9681,-4.9937,-4.963,-4.8951,-4.8193,-4.7479,-4.665,-4.5207,-4.4632,-4.4615,-4.4581,-4.3599,-4.2049,-4.0637,-4.013,-4.0096,-4.0096,-4.0096,-4.0096,-4.0096,-4.0096,-4.0096,-4.0096,-4.0079,-3.991,-3.9174,-3.8954,-3.8751,-3.8041,-3.7297,-3.6761,-3.6761,-3.6146,-3.56,-3.56,-3.56,-3.5143,-3.3672,-3.3423,-3.3152,-3.2412,-3.2276,0.0,-3.3271,-3.3389,-3.3677,-3.4421,-3.4489,-3.4489,-3.4433,-3.5059,-3.4496,-3.2286,-3.279,-3.2215,-3.0034,-3.0627,-3.0054,-2.8024,-2.6824,-2.6262,-2.6306,0.0,0.0,0.0,0.0,0.0,0.0,0.0,0.0,0.0,0.0,0.0,0.0,0.0,0.0,0.0,0.0,0.0,0.0,0.0,0.0,0.0,-4.4056,-4.622,-4.6462,-4.8343,-5.0532,-5.2823,-5.4465,-5.5508,-5.5861,-5.5763,-5.5553,-5.5374,-5.5089,-5.506,-5.5413,-5.4794,-5.4561,-5.4868,-5.3772,-5.3055,-5.2871,-5.1727,-5.0812,-5.0184,-4.9781,-4.9202,-4.8545,-4.8871,-4.9022,-4.8973,-4.9044,-4.9055,-4.8951,-4.8193,-4.7479,-4.6701,-4.5754,-4.506,-4.453,-4.3944,-4.2777,-4.1441,-4.1035,-4.057,-4.0096,-4.0096,-4.0096,-4.0096,-4.0096,-4.0096,-4.0096,-4.0096,-3.9723,-3.9242,-3.9039,-3.8217,-3.7354,-3.7168,-3.6502,-3.5943,-3.5943,-3.5752,-3.56,-3.56,-3.56,-3.5295,-3.4353,-3.3744,-3.3152,-3.2412,-3.1853,-3.1765,-3.2513,-3.3068,-3.3677,-3.4421,-3.4489,-3.4117,-3.3129,-3.2302,-3.0919,-2.882,-2.8412,-2.7744,-2.6599,-2.673,-2.6396,-2.5456,-2.6468,-2.6819,0.0,0.0,0.0,0.0,0.0,0.0,0.0,0.0,0.0,0.0,0.0,0.0,0.0,0.0,0.0,0.0,0.0,0.0,0.0,0.0,0.0,0.0,-4.5793,-4.8231,-4.9298,-5.0622,-5.2396,-5.4895,-5.5763,-5.657,-5.7588,-5.7004,-5.6451,-5.6248,-5.5822,-5.5478,-5.5209,-5.482,-5.4491,-5.4221,-5.3174,-5.2471,-5.2202,-5.0631,-4.9643,-4.9299,-4.8462,-4.7787,-4.7201,-4.7862,-4.8123,-4.8076,-4.8178,-4.8528,-4.8903,-4.7773,-4.7096,-4.6718,0.0,0.0,0.0,0.0,-4.2202,-4.117,-4.0849,-4.0468,-4.0096,-4.0096,-4.0096,-4.0096,-4.0096,-4.0096,-4.0045,-3.974,-3.9326,-3.8853,-3.8251,-3.7455,-3.6728,-3.6366,-3.5943,-3.56,-3.56,-3.56,-3.56,-3.56,-3.56,0.0,-3.503,-3.41,-3.3152,-3.2412,-3.1684,-3.1461,-3.2209,-3.2391,-3.2763,-3.3512,-3.3596,-3.3143,-3.2128,-3.1561,0.0,0.0,0.0,-2.7139,-2.613,-2.5857,0.0,0.0,0.0,-2.6722,-2.613,-2.7256,0.0,0.0,-2.882,-2.9758,0.0,0.0,0.0,0.0,0.0,0.0,0.0,0.0,0.0,0.0,0.0,0.0,0.0,0.0,0.0,0.0,-4.7369,-4.9583,-5.2082,-5.2995,-5.3877,-5.5149,-5.5822,-5.6421,-5.7034,-5.7094,-5.684,-5.6278,-5.6218,-5.5882,-5.5224,-5.5119,0.0,0.0,0.0,-5.271,-5.1992,-5.0182,-4.9269,-4.9179,-4.8225,-4.7221,-4.6241,-4.7675,-4.7864,-4.7117,-4.7347,-4.8047,-4.8872,-4.7398,-4.6791,-4.6718,-4.5906,-4.506,-4.4175,-4.2794,-4.1779,-4.0984,-4.0333,0.0,0.0,-4.0096,-4.0096,-4.0096,-4.0096,-4.0096,-3.996,-3.9191,-3.8988,-3.865,-3.7185,-3.6795,-3.6609,-3.5785,-3.56,-3.56,-3.56,-3.56,-3.56,-3.56,-3.56,-3.5543,-3.5391,-3.4344,-3.3305,-3.2649,-3.1921,-3.1681,-3.2344,-3.185,-3.1698,-3.2361,-3.235,0.0,-3.1364,-3.1763,-3.0678,-2.7418,-2.8313,-2.8408,-2.7153,-2.6582,-2.6332,-2.6406,-2.6537,-2.6303,-2.5719,-2.5794,-2.6138,-2.6756,-2.8956,-3.0063,0.0,0.0,0.0,0.0,0.0,0.0,0.0,0.0,0.0,0.0,0.0,0.0,0.0,0.0,0.0,-4.7324,-4.9808,-5.1992,-5.3593,-5.4386,-5.5089,-5.5882,-5.6092,-5.6421,-5.7034,-5.7094,-5.684,-5.6278,-5.6218,-5.5882,-5.5224,-5.4685,-5.4087,-5.3399,-5.274,-5.1813,-5.0584,-4.9718,-4.9045,-4.8461,-4.7735,0.0,-4.5484,-4.5824,-4.6105,-4.6417,-4.6448,-4.744,-4.8954,-4.8647,-4.7835,-4.6667,-4.5314,-4.3988,-4.2692,-4.2405,-4.1441,-4.0299,-4.0146,-4.0096,-4.0096,-4.0096,-4.0096,-4.0096,-4.0096,-4.0096,0.0,-3.9191,-3.8988,-3.865,-3.7185,-3.6795,-3.6609,-3.5785,-3.56,-3.56,-3.56,-3.56,-3.56,-3.56,-3.56,-3.5239,-3.4107,-3.4108,-3.4235,-3.4104,-3.3457,-3.3034,-3.3169,-3.3068,-3.3034,-3.3169,-3.2754,-3.1967,-3.0778,-2.9846,-2.8607,-2.6868,-2.6487,-2.6213,-2.5932,-2.5832,-2.5763,-2.5771,-2.6315,-2.6527,-2.6408,-2.6956,-2.7285,-2.7415,-2.7845,-2.8579,0.0,0.0,0.0,0.0,0.0,0.0,0.0,0.0,0.0,0.0,0.0,-4.2865,-4.4526,0.0,-4.7549,-4.9868,-5.1618,-5.3039,-5.4072,-5.4775,-5.5314,-5.5643,-5.5688,-5.5807,-5.6107,-5.6137,-5.6017,-5.5703,-5.5688,-5.5538,-5.5209,-5.488,-5.4386,-5.3713,-5.2725,-5.1723,-5.0689,-4.9434,-4.8611,-4.8282,-4.7279,-4.6456,-4.5783,-4.5581,-4.5951,-4.6665,-4.6333,-4.7273,-4.8951,-4.8206,-4.7462,-4.6633,-4.519,-4.3667,-4.2252,-4.188,-4.1035,-4.0096,-4.0096,-4.0096,-4.0096,-4.0096,-4.0096,-4.0096,-4.0096,-3.9842,-3.9394,-3.865,-3.8176,-3.7642,-3.6502,-3.6197,-3.6096,-3.5701,-3.56,-3.56,-3.56,-3.5339,-3.5098,-3.5098,-3.4823,-3.4397,-3.3681,-3.3834,-3.3912,-3.3512,-3.2564,-3.2034,-3.2355,-3.1807,-3.1402,-3.1402,-3.1122,-3.0555,-2.958,-2.8324,-2.7467,-2.713,-2.6153,-2.5749,-2.6093,-2.6093,-2.6093,-2.6093,-2.6752,-2.7106,-2.7106,-2.7435,-2.76,-2.761,-2.757,-2.8202,0.0,0.0,0.0,0.0,0.0,0.0,0.0,-3.9431,-4.1029,-4.3932,-4.4616,-4.5487,-4.8341,-4.8955,-4.9823,-5.2202,-5.3039,-5.3623,-5.4296,-5.4865,-5.5194,-5.5194,-5.5194,-5.5194,-5.5194,-5.5299,-5.5329,-5.5209,-5.5314,-5.5329,-5.5209,-5.5074,-5.47,-5.4027,-5.271,-5.1633,-5.0855,-4.9149,-4.8222,-4.8072,-4.7025,-4.6381,-4.6082,-4.5767,-4.6026,-4.6712,-4.6535,-4.734,-4.8601,-4.715,-4.665,-4.6633,-4.4833,-4.3294,-4.2041,-4.1574,-4.0849,-4.0096,-4.0096,-4.0096,-4.0096,-4.0096,-4.0096,-4.0096,-4.0096,-3.969,-3.9056,-3.8328,-3.7686,-3.7066,-3.6242,-3.6039,-3.6016,-3.5845,-3.5822,-3.5759,-3.5619,-3.5182,-3.4775,-3.4628,-3.4156,-3.3716,-3.3433,-3.3417,-3.3239,-3.2718,-3.1594,-3.0962,-3.1362,-3.037,-2.955,-2.9422,-2.9293,-2.8973,-2.8367,-2.7385,-2.7031,-2.757,-2.6572,-2.6228,-2.6752,-2.6782,-2.6782,-2.6782,-2.733,-2.76,-2.76,-2.76,-2.76,-2.76,-2.76,-2.8198,-3.5148,-3.3682,-3.3542,-3.5112,-3.5886,-3.7723,0.0,-4.3719,-4.4022,-4.7866,-4.906,-4.9702,-5.072,-5.1364,-5.2247,-5.3743,-5.4042,-5.4326,-5.4985,-5.5149,-5.5194,-5.5194,-5.5194,-5.5194,-5.5194,-5.5718,-5.5822,-5.5239,-5.5733,-5.5807,-5.5224,-5.464,-5.3997,-5.3309,-5.2007,-5.0735,-4.9539,-4.8686,-4.7997,-4.7414,-4.7264,-4.6561,-4.5409,-4.5368,-4.5221,-4.5167,-4.6745,-4.7556,-4.7654,-4.6215,-4.6102,-4.6507,-4.3589,-4.1985,-4.1387,-4.1971,-4.1314,-4.0096,-4.0096,-4.0096,-4.0096,-4.0096,-4.0096,-4.0096,-4.0096,-4.0045,-3.9825,-3.9073,-3.8819,-3.8582,-3.7838,-3.7652,-3.7451,-3.6738,-3.657,-3.6392,-3.5755,-3.554,-3.5321,-3.4717,-3.4536,-3.4107,-3.2924,-3.2722,-3.2886,-3.3374,-3.2825,-3.2151,-3.1558,-3.0844,-3.0124,-2.947,-2.8919,-2.8367,-2.776,-2.7575,-2.7525,-2.76,-2.7465,-2.7405,-2.748,-2.748,-2.748,-2.748,-2.7555,-2.76,-2.76,-2.76,-2.76,-2.76,-2.76,-2.7944,-3.5379,-3.5144,-3.5601,-3.45,-3.6697,-3.9927,-4.2801,-4.4262,-4.6152,-5.0175,-5.1498,-5.2396,-5.3832,-5.4326,-5.482,-5.5733,-5.5583,-5.5448,-5.5718,-5.5104,-5.4461,-5.4072,-5.4027,-5.4326,-5.5119,-5.5433,-5.5478,-5.5209,-5.5089,-5.491,-5.464,-5.3982,-5.3129,-5.2067,-5.1124,-5.0017,-4.8716,-4.8042,-4.7578,-4.7309,-4.7309,-4.6815,-4.5873,-4.5484,-4.5107,-4.4871,-4.6189,-4.6781,-4.6702,-4.5815,-4.5368,-4.5108,-4.4031,-4.2575,-4.1135,-4.153,-4.069,-3.9463,-3.9927,-4.0096,-4.0096,-4.0096,-4.0096,-4.0096,-4.0096,-3.9454,-3.8702,-3.8402,-3.8002,-3.7485,-3.6753,-3.7228,-3.7582,-3.6352,-3.6388,-3.6622,-3.6326,-3.5584,-3.4907,-3.4702,-3.3979,-3.3082,-3.2114,-3.1951,-3.2048,-3.2339,-3.1821,-3.1424,-3.1532,-3.0285,-2.9147,-2.8429,-2.8125,-2.787,-2.7625,-2.76,-2.76,-2.76,-2.76,-2.76,-2.76,-2.76,-2.76,-2.76,-2.76,-2.76,-2.76,-2.76,-2.76,-2.76,-2.76,-2.7735,-3.517,-3.5857,-3.6799,-3.4576,-3.743,-4.1173,-4.2625,-4.4654,-4.7367,-5.136,-5.2576,-5.3473,-5.5299,-5.5628,-5.5897,-5.6705,-5.6316,-5.5972,-5.6203,-5.5044,-5.4036,-5.364,-5.3188,-5.3425,-5.4681,-5.472,-5.4715,-5.491,-5.4296,-5.3997,-5.4206,-5.3384,-5.2396,-5.1259,-5.0406,-4.9419,-4.8297,-4.7638,-4.7309,-4.7309,-4.7309,-4.686,-4.6022,-4.514,-4.4614,-4.4434,-4.5379,-4.5723,-4.5508,-4.5177,-4.4545,-4.381,-4.3644,-4.2277,-4.0388,-4.0767,-4.0194,-3.9315,-3.9901,-4.0096,-4.0096,-4.0096,-3.9952,-3.9782,-3.9782,-3.8992,-3.807,-3.7856,-3.7719,-3.7463,-3.6724,-3.7496,-3.817,-3.6848,-3.6778,-3.6949,-3.6718,-3.5663,-3.469,-3.4406,-3.3516,-3.2512,-3.1645,-3.1511,-3.1511,-3.1511,-3.1077,-3.0912,-3.1248,-2.9732,-2.8338,-2.766,-2.76,-2.76,-2.76,-2.76,-2.76,-2.76,-2.76,-2.76,-2.76,-2.76,-2.76,-2.76,-2.76,-2.76,-2.76,-2.76,-2.76,-2.76,-2.76,-2.76,-3.4626,-3.4835,-3.5539,-3.6134,-3.766,-4.0117,-4.4395,-4.5885,-4.7419,-5.1395,-5.2217,-5.265,-5.4027,-5.4266,-5.4685,-5.5987,-5.5643,-5.5448,-5.6092,-5.5044,-5.43,-5.4637,-5.3213,-5.2644,-5.3729,-5.3486,-5.3518,-5.4192,-5.3608,-5.3503,-5.4177,-5.295,-5.1917,-5.1244,-4.9972,-4.9015,-4.8297,-4.7638,-4.7309,-4.7309,-4.7309,-4.6606,-4.5289,-4.3947,-4.3374,-4.3409,-4.4412,-4.4483,-4.391,-4.4071,-4.376,-4.3007,-4.1644,-4.0151,-3.8872,-3.9792,-4.0114,-4.007,-4.0096,-4.0096,-4.0096,-4.0096,-3.9584,-3.8935,-3.8935,-3.8891,-3.8712,-3.8003,-3.8864,-3.9808,-3.902,-3.9423,-3.9834,-3.8993,-3.8265,-3.7568,-3.6751,-3.5993,-3.5087,-3.3785,-3.3485,-3.3051,-3.1735,-3.1511,-3.1511,-3.1511,-3.1481,-3.1227,-3.061,-2.9385,-2.8338,-2.766,-2.76,-2.76,-2.76,-2.76,-2.76,-2.76,-2.76,-2.76,-2.76,-2.76,-2.76,-2.76,-2.76,-2.76,-2.76,-2.76,-2.76,-2.76,-2.76,-2.76,-3.6227,-3.7419,-3.8936,-3.9356,-4.0333,-4.2182,-4.5906,-4.7143,-4.8269,-5.0976,-5.1199,-5.1169,-5.2052,-5.2232,-5.28,-5.4581,-5.5059,-5.5418,-5.6128,-5.5044,-5.377,-5.2527,-5.2274,-5.182,-5.088,-5.1854,-5.28,-5.3473,-5.292,-5.2636,-5.286,-5.2037,-5.105,-4.9957,-4.9539,-4.8745,-4.7653,-4.7414,-4.7309,-4.7294,-4.6396,-4.5499,-4.4616,-4.3693,-4.329,-4.3329,-4.3669,-4.347,-4.2902,-4.3102,-4.2454,-4.1344,-4.1659,-4.0833,-3.9468,-3.9936,-3.9758,-3.9368,-3.9927,-3.9756,-3.9315,-3.9315,-3.9113,-3.8908,-3.8908,-3.8553,-3.8121,-3.7863,-3.779,-3.7716,-3.7438,-3.8342,-3.9113,-3.8346,-3.7978,-3.7735,-3.7456,-3.6399,-3.5381,-3.4958,-3.4152,-3.3215,-3.2303,-3.1795,-3.1511,-3.1511,-3.1511,-3.1107,-3.0028,-2.9547,-2.8843,-2.772,-2.76,-2.76,-2.76,-2.76,-2.76,-2.76,-2.76,-2.76,-2.76,-2.76,-2.76,-2.76,-2.76,-2.76,-2.76,-2.76,-2.76,-2.76,-2.76,-2.76,-3.8188,-3.9744,-4.1423,-4.2091,-4.2835,-4.4194,-4.7019,-4.7941,-4.8518,-4.9885,-4.9643,-4.9314,-4.9748,-4.9628,-5.0197,-5.2426,-5.295,-5.3638,-5.5239,-5.4117,-5.2885,-5.2211,-5.1944,-5.1385,-5.0305,-5.1177,-5.2127,-5.277,-5.2217,-5.1947,-5.2187,-5.1573,-5.0616,-4.9359,-4.9314,-4.8685,-4.7309,-4.7309,-4.7189,-4.6935,-4.5589,-4.4721,-4.4287,-4.3589,-4.317,-4.2985,-4.2985,-4.2476,-4.1738,-4.2165,-4.1618,-4.0543,-4.0833,-4.0332,-3.939,-3.9298,-3.8933,-3.858,-3.9102,-3.8924,-3.8553,-3.8827,-3.8718,-3.8497,-3.8497,-3.8177,-3.7706,-3.7115,-3.6995,-3.6964,-3.6661,-3.7541,-3.8386,-3.7892,-3.7573,-3.7368,-3.7368,-3.6399,-3.5381,-3.4942,-3.4303,-3.3484,-3.2333,-3.1795,-3.1511,-3.1511,-3.1511,-3.1032,-2.9744,-2.9606,-2.9097,-2.7735,-2.7809,-2.7869,-2.7615,-2.7824,-2.7869,-2.7615,-2.76,-2.76,-2.76,-2.76,-2.76,-2.76,-2.76,-2.76,-2.76,-2.76,-2.76,-2.76,-2.76,-2.76,-4.0437,-4.1717,-4.2997,-4.433,-4.5052,-4.5881,-4.7745,-4.8096,-4.8097,-4.812,-4.7534,-4.704,-4.6965,-4.6531,-4.6982,-4.9613,-4.9703,-5.0556,-5.3803,-5.2621,-5.1979,-5.3591,-5.2334,-5.1483,-5.1803,-5.1501,-5.1528,-5.2157,-5.1588,-5.1498,-5.2112,-5.1558,-5.0616,-4.9359,-4.9314,-4.8685,-4.7309,-4.7279,-4.692,-4.6204,-4.4945,-4.4302,-4.4242,-4.3544,-4.297,-4.244,-4.2381,-4.1647,-4.0516,-4.1296,-4.1206,-4.047,-3.9172,-3.8662,-3.8572,-3.7963,-3.7719,-3.7719,-3.7706,-3.7764,-3.7978,-3.8635,-3.8358,-3.7777,-3.7764,-3.7719,-3.7442,-3.5973,-3.6569,-3.7515,-3.6783,-3.7174,-3.7764,-3.7777,-3.7189,-3.6615,-3.6615,-3.6038,-3.513,-3.3844,-3.4038,-3.3829,-3.1884,-3.1525,-3.1511,-3.1511,-3.1511,-3.1047,-2.9816,-2.9651,-2.9157,-2.7839,-2.8263,-2.8382,-2.7764,-2.8304,-2.8353,-2.769,-2.7645,-2.763,-2.76,-2.76,-2.76,-2.76,-2.76,-2.7615,-2.7645,-2.7645,-2.766,-2.7705,-2.7705,-2.7675,-4.3604,-4.5065,-4.6253,-4.7124,-4.7015,-4.687,-4.7419,-4.7111,-4.6425,-4.5531,-4.4421,-4.3329,-4.2342,-4.3185,-4.4919,-4.7623,-4.9957,-5.2276,-5.461,-5.4506,-5.3946,-5.3429,-5.3413,-5.3076,-5.2207,-5.2032,-5.2022,-5.2187,-5.1588,-5.1289,-5.1468,-5.1304,-5.0616,-4.9359,-4.9314,-4.8685,-4.7309,-4.6815,-4.6232,-4.5544,-4.4706,-4.4062,-4.3514,-4.291,-4.2776,-4.303,-4.2058,-4.1482,-4.1123,-4.0835,-4.0039,-3.8946,-3.8721,-3.8318,-3.7809,-3.714,-3.6904,-3.6828,-3.6274,-3.7189,-3.8553,-3.8189,-3.795,-3.769,-3.71,-3.6904,-3.6813,-3.6415,-3.6212,-3.6164,-3.6508,-3.6752,-3.707,-3.7661,-3.7189,-3.6615,-3.6615,-3.6038,-3.54,-3.5055,-3.4322,-3.3425,-3.2407,-3.1824,-3.1511,-3.1511,-3.1511,-3.1197,-3.0372,-3.0268,-2.9968,-2.9172,-2.9247,-2.9292,-2.9112,-2.9262,-2.9041,-2.8382,-2.8338,-2.8113,-2.7615,-2.76,-2.76,-2.76,-2.76,-2.7854,-2.8338,-2.8338,-2.8592,-2.9097,-2.9097,-2.8828,-4.5992,-4.716,-4.7893,-4.8551,-4.8444,-4.7829,-4.6673,-4.6091,-4.5198,-4.3021,-4.1788,-4.0756,-3.9709,-4.0666,-4.2387,-4.4751,-4.7399,-5.0167,-5.3039,-5.3443,-5.3488,-5.3608,-5.3713,-5.3458,-5.2695,-5.2366,-5.2202,-5.2202,-5.1588,-5.1214,-5.1214,-5.0898,-5.0316,-4.9344,-4.903,-4.8207,-4.689,-4.6217,-4.5529,-4.4855,-4.4197,-4.3648,-4.329,-4.2955,-4.2671,-4.2432,-4.1698,-4.1055,-4.0487,-4.0127,-3.957,-3.8895,-3.8309,-3.7903,-3.7545,-3.6863,-3.6615,-3.6584,-3.6538,-3.7338,-3.8302,-3.7528,-3.7263,-3.7174,-3.6737,-3.6615,-3.6523,-3.6196,-3.5814,-3.5587,-3.6006,-3.6117,-3.6228,-3.6677,-3.6446,-3.6117,-3.6117,-3.5782,-3.5504,-3.5504,-3.4412,-3.3469,-3.338,-3.2587,-3.1929,-3.1929,-3.169,-3.1361,-3.0972,-3.0687,-3.0268,-2.9666,-2.9846,-2.9879,-2.9636,-2.9834,-2.9714,-2.9071,-2.9026,-2.8861,-2.8498,-2.8483,-2.8483,-2.8483,-2.8483,-2.8663,-2.9026,-2.8742,-2.8786,-2.9146,-2.9146,-2.8951,-4.7848,-4.8551,-4.8656,-4.9179,-4.9239,-4.8461,-4.5663,-4.4975,-4.3973,-4.0681,-3.9544,-3.8916,-3.8138,-3.8706,-3.9993,-4.2186,-4.4152,-4.6815,-5.0795,-5.1424,-5.2157,-5.3997,-5.3758,-5.3458,-5.3458,-5.277,-5.2336,-5.2336,-5.1558,-5.1094,-5.1094,-5.051,-4.9898,-4.9209,-4.8506,-4.7563,-4.6294,-4.5648,-4.496,-4.4302,-4.3604,-4.329,-4.329,-4.32,-4.2626,-4.1624,-4.1369,-4.0651,-3.9664,-3.9448,-3.939,-3.9249,-3.7907,-3.7379,-3.7326,-3.6693,-3.6446,-3.6554,-3.7249,-3.7501,-3.7413,-3.6798,-3.6615,-3.6584,-3.6461,-3.6446,-3.6337,-3.5668,-3.5504,-3.5504,-3.5504,-3.5504,-3.5504,-3.5504,-3.5504,-3.5504,-3.5504,-3.5504,-3.5504,-3.5504,-3.4487,-3.3799,-3.4414,-3.3455,-3.2647,-3.2647,-3.2123,-3.1735,-3.1645,-3.1032,-3.0432,-2.9909,-3.0313,-3.0417,-2.9894,-3.0328,-3.0372,-2.9771,-2.9726,-2.9696,-2.9606,-2.9606,-2.9606,-2.9606,-2.9606,-2.9651,-2.9726,-2.9131,-2.8846,-2.8846,-2.8936,-2.8891,-4.9329,-4.9852,-4.9793,-4.9419,-4.885,-4.7623,-4.4436,-4.3324,-4.1976,-3.8616,-3.7838,-3.7404,-3.6222,-3.7404,-3.9574,-4.2671,-4.484,-4.7534,-5.1468,-5.2501,-5.3189,-5.4102,-5.4581,-5.485,-5.485,-5.3728,-5.301,-5.301,-5.1394,-5.036,-5.036,-5.0255,-4.9688,-4.8491,-4.7818,-4.7115,-4.6294,-4.5648,-4.496,-4.4302,-4.3604,-4.329,-4.3275,-4.2776,-4.2701,-4.2871,-4.128,-4.0756,-4.095,-3.9873,-3.8762,-3.7759,-3.7518,-3.6787,-3.5866,-3.5746,-3.5701,-3.5701,-3.5846,-3.591,-3.599,-3.6446,-3.6615,-3.6508,-3.5863,-3.5701,-3.5668,-3.5537,-3.5504,-3.5504,-3.5504,-3.5504,-3.5504,-3.5504,-3.5504,-3.5504,-3.5504,-3.5504,-3.5504,-3.5504,-3.4861,-3.4369,-3.4488,-3.3844,-3.332,-3.332,-3.323,-3.2961,-3.2392,-3.1735,-3.1286,-3.1182,-3.1256,-3.1286,-3.1182,-3.1271,-3.1032,-3.0387,-3.0342,-3.0118,-2.9636,-2.9606,-2.9606,-2.9606,-2.9606,-2.9834,-3.0342,-3.0238,-3.0178,-3.0178,-3.0733,-3.0447,-4.9747,-5.0196,-5.0046,-4.9434,-4.882,-4.7249,-4.3254,-4.1833,-4.0412,-3.7105,-3.6417,-3.6222,-3.5609,-3.6806,-3.8512,-4.0442,-4.2447,-4.502,-4.8626,-5.0002,-5.1259,-5.2965,-5.3443,-5.3773,-5.4117,-5.295,-5.2291,-5.2636,-5.1154,-5.0196,-5.0196,-4.9598,-4.8775,-4.7803,-4.7474,-4.6815,-4.5798,-4.5454,-4.4796,-4.3768,-4.3439,-4.329,-4.329,-4.3015,-4.2656,-4.2267,-4.1324,-4.0711,-4.0307,-3.9679,-3.8631,-3.7404,-3.7404,-3.6626,-3.5504,-3.5504,-3.5504,-3.5504,-3.5504,-3.5504,-3.5554,-3.5911,-3.6023,-3.5943,-3.5619,-3.5504,-3.5504,-3.5504,-3.5504,-3.5504,-3.5504,-3.5504,-3.5504,-3.5504,-3.5504,-3.5504,-3.5504,-3.5504,-3.5504,-3.5504,-3.5235,-3.5011,-3.5011,-3.4442,-3.4008,-3.4008,-3.3709,-3.338,-3.3066,-3.2751,-3.2258,-3.157,-3.1511,-3.1511,-3.1511,-3.1511,-3.1361,-3.1032,-3.1017,-3.0883,-3.0612,-3.0597,-3.0597,-3.0597,-3.0597,-3.0746,-3.1017,-3.0672,-3.0507,-3.0507,-3.0823,-3.0657,-4.9837,-5.0285,-5.0211,-4.9509,-4.8566,-4.6726,-4.241,-4.0651,-3.9125,-3.6133,-3.5504,-3.5504,-3.5504,-3.6327,-3.73,-3.8242,-3.9843,-4.2162,-4.5618,-4.7354,-4.9209,-5.1693,-5.2232,-5.2621,-5.3129,-5.2112,-5.1588,-5.1962,-5.0646,-4.9777,-4.9777,-4.8716,-4.7833,-4.7324,-4.7174,-4.6516,-4.5304,-4.5155,-4.4496,-4.329,-4.329,-4.329,-4.329,-4.329,-4.2686,-4.1617,-4.1482,-4.0711,-3.9619,-3.9448,-3.8706,-3.7599,-3.7464,-3.6716,-3.5699,-3.5549,-3.5504,-3.5504,-3.5504,-3.5504,-3.5504,-3.5504,-3.5504,-3.5504,-3.5504,-3.5504,-3.5504,-3.5504,-3.5504,-3.5504,-3.5504,-3.5504,-3.5504,-3.5504,-3.5504,-3.5504,-3.5504,-3.5504,-3.5504,-3.5504,-3.5504,-3.5504,-3.5504,-3.5055,-3.4728,-3.4728,-3.4262,-3.3873,-3.3724,-3.3709,-3.32,-3.1854,-3.1705,-3.166,-3.1511,-3.1511,-3.1511,-3.1511,-3.1511,-3.1511,-3.1511,-3.1511,-3.1511,-3.1511,-3.1511,-3.1511,-3.1511,-3.0957,-3.0657,-3.0507,-3.0657,-3.0642,-4.9837,-5.0629,-5.0825,-4.9614,-4.7878,-4.5603,-4.2162,-3.9918,-3.7988,-3.5923,-3.5504,-3.5504,-3.5504,-3.5609,-3.6267,-3.8093,-3.908,-4.095,-4.484,-4.7055,-4.903,-5.1065,-5.2366,-5.3114,-5.3174,-5.2531,-5.1887,-5.1349,-4.9538,-4.8461,-4.8461,-4.7788,-4.7369,-4.7309,-4.6726,-4.6052,-4.5304,-4.4706,-4.4007,-4.329,-4.329,-4.329,-4.329,-4.329,-4.294,-4.2276,-4.1677,-4.0965,-4.0262,-3.9664,-3.8975,-3.8242,-3.7644,-3.6985,-3.6327,-3.5729,-3.5504,-3.5504,-3.5504,-3.5504,-3.5504,-3.5504,-3.5504,-3.5504,-3.5504,-3.5504,-3.5504,-3.5504,-3.5504,-3.5504,-3.5504,-3.5504,-3.5504,-3.5504,-3.5504,-3.5504,-3.5504,-3.5504,-3.5504,-3.5504,-3.5504,-3.5504,-3.5504,-3.5444,-3.5415,-3.5415,-3.537,-3.51,-3.4503,-3.4414,-3.3888,-3.2557,-3.2392,-3.2153,-3.1555,-3.1511,-3.1511,-3.1511,-3.1511,-3.1511,-3.1511,-3.1511,-3.1511,-3.1511,-3.1511,-3.1511,-3.1511,-3.1436,-3.1092,-3.0507,-3.1122,-3.1077,-4.8117,-4.9239,-4.9823,-4.8955,-4.6875,-4.4466,-4.1953,-3.9514,-3.736,-3.5833,-3.5504,-3.5504,-3.5504,-3.5504,-3.5759,-3.6522,-3.6881,-3.8018,-4.0756,-4.2521,-4.4721,-4.7893,-4.9434,-5.0541,-5.1334,-5.1169,-5.0586,-4.9523,-4.873,-4.8117,-4.7713,-4.7459,-4.7309,-4.7309,-4.6666,-4.5992,-4.5304,-4.4646,-4.3947,-4.329,-4.329,-4.329,-4.329,-4.2925,-4.2387,-4.1767,-4.107,-4.0412,-3.9783,-3.9493,-3.9005,-3.8317,-3.7659,-3.703,-3.6417,-3.5744,-3.5504,-3.5504,-3.5504,-3.5504,-3.5504,-3.5504,-3.5504,-3.5504,-3.5504,-3.5504,-3.5504,-3.5504,-3.5504,-3.5504,-3.5504,-3.5504,-3.5504,-3.5504,-3.5504,-3.5504,-3.5504,-3.5504,-3.5504,-3.5504,-3.5504,-3.5504,-3.5504,-3.5504,-3.5504,-3.5504,-3.5504,-3.54,-3.513,-3.4758,-3.4159,-3.32,-3.2751,-3.2213,-3.157,-3.1511,-3.1511,-3.1511,-3.1511,-3.1511,-3.1511,-3.1511,-3.1511,-3.1511,-3.1511,-3.1511,-3.1511,-3.1511,-3.1361,-3.1107,-3.1376,-3.1361,-4.6808,-4.8298,-4.9218,-4.8341,-4.6064,-4.3509,-4.1549,-3.9035,-3.6821,-3.5729,-3.5504,-3.5504,-3.5504,-3.5504,-3.5504,-3.5504,-3.5669,-3.6477,-3.8422,-3.9843,-4.1938,-4.5334,-4.6726,-4.7923,-4.9194,-4.9493,-4.9284,-4.8356,-4.8102,-4.7803,-4.7339,-4.7115,-4.701,-4.701,-4.6367,-4.5693,-4.5005,-4.4347,-4.3753,-4.329,-4.329,-4.32,-4.303,-4.2605,-4.1931,-4.107,-4.0606,-4.0023,-3.9388,-3.9388,-3.9005,-3.8347,-3.7883,-3.721,-3.6447,-3.6163,-3.5833,-3.5564,-3.5938,-3.5833,-3.5534,-3.5729,-3.5669,-3.5504,-3.5504,-3.5504,-3.5504,-3.5504,-3.5504,-3.5504,-3.5504,-3.5504,-3.5504,-3.5504,-3.5504,-3.5504,-3.5504,-3.5504,-3.5504,-3.5504,-3.5504,-3.5504,-3.5504,-3.5504,-3.5504,-3.5504,-3.5504,-3.5504,-3.5504,-3.5085,-3.4548,-3.3858,-3.32,-3.2422,-3.157,-3.1511,-3.1511,-3.1511,-3.1278,-3.1248,-3.1511,-3.1278,-3.1248,-3.1511,-3.1511,-3.1511,-3.1511,-3.1511,-3.1511,-3.1511,-3.1511,-3.1511,-4.65,-4.8287,-4.9387,-4.8038,-4.5504,-4.2781,-4.0861,-3.8377,-3.6312,-3.5639,-3.5504,-3.5504,-3.5504,-3.5504,-3.5504,-3.5504,-3.6058,-3.7165,-3.9125,-4.0531,-4.2102,-4.4107,-4.493,-4.5858,-4.7204,-4.7923,-4.8297,-4.8282,-4.7683,-4.7309,-4.7309,-4.6696,-4.6294,-4.6294,-4.5663,-4.499,-4.4332,-4.3633,-4.3305,-4.329,-4.329,-4.3,-4.241,-4.2396,-4.1692,-4.0412,-4.0397,-4.0023,-3.9388,-3.9388,-3.9005,-3.8392,-3.8377,-3.7614,-3.6552,-3.7165,-3.6582,-3.5684,-3.6956,-3.6567,-3.5609,-3.6267,-3.6028,-3.5504,-3.5504,-3.5504,-3.5504,-3.5504,-3.5504,-3.5504,-3.5504,-3.5504,-3.5504,-3.5504,-3.5504,-3.5504,-3.5504,-3.5504,-3.5504,-3.5504,-3.5504,-3.5504,-3.5504,-3.5504,-3.5504,-3.5504,-3.5504,-3.5504,-3.5504,-3.5489,-3.5235,-3.4578,-3.3873,-3.2961,-3.1615,-3.1511,-3.1511,-3.1511,-3.0748,-3.0673,-3.1467,-3.0748,-3.0673,-3.1467,-3.1511,-3.1511,-3.1511,-3.1511,-3.1511,-3.1511,-3.1511,-3.1511,-4.2912,-4.4022,-4.4555,-4.3646,-4.1656,-3.9798,-3.917,-3.736,-3.5759,-3.5549,-3.5504,-3.5504,-3.5504,-3.5504,-3.5654,-3.6103,-3.6357,-3.6851,-3.7898,-3.9589,-4.1444,-4.3449,-4.5843,-4.7504,-4.7938,-4.7758,-4.7623,-4.7623,-4.7429,-4.7115,-4.6651,-4.6441,-4.6279,-4.6279,-4.5214,-4.4526,-4.4317,-4.3618,-4.3105,-4.2671,-4.2671,-4.2327,-4.1707,-4.122,-4.0786,-4.0367,-3.9933,-3.9619,-3.9388,-3.9388,-3.9254,-3.905,-3.8571,-3.7868,-3.715,-3.7345,-3.6881,-3.6237,-3.6641,-3.6507,-3.6133,-3.5893,-3.5669,-3.5504,-3.5504,-3.5504,-3.5504,-3.5504,-3.5504,-3.5504,-3.5504,-3.5504,-3.5504,-3.5504,-3.5504,-3.5504,-3.5504,-3.5504,-3.5504,-3.5504,-3.5504,-3.5504,-3.5504,-3.5504,-3.5504,-3.5504,-3.5504,-3.5504,-3.5504,-3.51,-3.4547,-3.3873,-3.3215,-3.2632,-3.2213,-3.1249,-3.0673,-3.0673,-2.9889,-2.9797,-3.0644,-3.0419,-3.0673,-3.1467,-3.1511,-3.1511,-3.1511,-3.1511,-3.1511,-3.1511,-3.1511,-3.1511,-4.0785,-4.227,-4.2877,-4.1878,-4.0232,-3.872,-3.8147,-3.6716,-3.5504,-3.5504,-3.5504,-3.5504,-3.5504,-3.5504,-3.5639,-3.6043,-3.6118,-3.6417,-3.7285,-3.8916,-4.0861,-4.3105,-4.5603,-4.716,-4.716,-4.7249,-4.7309,-4.7309,-4.7309,-4.7025,-4.6324,-4.6082,-4.5828,-4.5532,-4.4751,-4.4197,-4.3943,-4.3499,-4.3015,-4.2396,-4.2396,-4.1931,-4.0995,-4.0591,-4.0262,-4.0008,-3.9568,-3.9388,0.0,-3.9388,-3.9275,-3.902,-3.8841,-3.8078,-3.712,-3.7599,-3.7075,-3.6193,-3.6671,-3.6522,-3.6088,-3.5923,-3.5714,-3.5504,-3.5504,-3.5504,-3.5504,-3.5504,-3.5504,-3.5504,-3.5504,-3.5504,-3.5504,-3.5504,-3.5504,-3.5504,-3.5504,-3.5504,-3.5504,-3.5504,-3.5504,-3.5504,-3.5504,-3.5504,-3.5504,-3.5504,-3.5504,-3.5504,-3.5504,-3.513,-3.4607,-3.3933,-3.3275,-3.2781,-3.2512,-3.1143,-3.0178,-2.9827,-2.9002,-2.9066,-3.0238,-2.9981,-3.0329,-3.1467,-3.1511,-3.1511,-3.1511,-3.1511,-3.1511,-3.1511,-3.1511,-3.1511,0.0,-4.2057,-4.3096,-4.1805,-4.0303,-3.8839,-3.7545,-3.6312,0.0,-3.5489,-3.5504,-3.5504,-3.5504,-3.5504,-3.5519,-3.5564,-3.5609,-3.6073,-3.73,-3.8751,-4.0614,-4.32,-4.4661,-4.5424,-4.5379,-4.6546,-4.7279,-4.7234,-4.7234,-4.6935,-4.6175,-4.5574,-4.493,-4.4272,-4.4242,-4.3943,-4.3305,-4.329,-4.2985,-4.2336,-4.2336,-4.1647,-4.0337,-4.0337,-3.9993,-3.9388,-3.9388,-3.9388,-3.9388,-3.9388,-3.9035,-3.8527,-3.911,-3.8197,-3.6701,-3.7943,-3.7225,-3.5804,-3.7,-3.6641,-3.5729,-3.6252,-3.6013,-3.5504,-3.5504,-3.5504,-3.5504,-3.5504,-3.5504,-3.5504,-3.5504,-3.5504,-3.5504,-3.5504,-3.5504,-3.5504,-3.5504,-3.5504,-3.5504,-3.5504,-3.5504,-3.5504,-3.5504,-3.5504,-3.5504,-3.5504,-3.5504,-3.5504,-3.5504,-3.5504,-3.5235,-3.4578,-3.3888,-3.32,-3.2467,-3.1113,-2.995,-2.9129,-2.8266,-2.8556,-3.0238,-2.9504,-2.9858,-3.1467,-3.1511,-3.1511,-3.1511,-3.1511,-3.1511,-3.1511,-3.1511,-3.1511,-3.5951,0.0,-3.6812,-3.6371,-3.5584,-3.5115,0.0,-3.531,-3.4861,-3.5385,-3.5504,-3.5504,-3.5504,-3.5504,-3.5669,-3.6178,-3.6656,-3.724,-3.8048,-4.0621,-4.317,-4.5323,-4.6337,-4.6636,-4.6127,-4.6815,-4.71,-4.6591,-4.6561,-4.6037,-4.484,-4.4631,-4.4242,-4.3544,-4.3529,-4.3454,-4.329,-4.329,-4.2746,-4.1647,-4.1647,-4.092,-3.9649,-3.9649,-3.9574,-3.9388,-3.9388,-3.9388,-3.9388,-3.9388,-3.9334,-3.914,-3.8781,-3.8033,-3.7285,-3.8093,-3.7778,-3.7,-3.73,-3.721,-3.6821,-3.5998,-3.5624,-3.5504,-3.5504,-3.5504,-3.5504,-3.5504,-3.5504,-3.5504,-3.5504,-3.5504,-3.5504,-3.5504,-3.5504,-3.5504,-3.5504,-3.5504,-3.5504,-3.5504,-3.5504,-3.5504,-3.5504,-3.5504,-3.5504,-3.5504,-3.5504,-3.5504,-3.5504,-3.5504,-3.5235,-3.4578,-3.3888,-3.2956,-3.162,-3.0767,-3.0208,-3.0011,-2.9192,-2.9192,-3.0269,-3.0103,-3.0464,-3.1467,-3.1511,-3.1511,-3.1511,-3.1511,-3.1511,-3.1511,-3.1511,-3.1511,-3.3224,-3.4425,-3.5571,-3.5122,-3.474,-3.4546,-3.4941,-3.4502,-3.4128,-3.4502,-3.4831,-3.504,-3.504,-3.5295,-3.5624,-3.5983,-3.6567,-3.7524,-3.9095,-4.1384,-4.3629,-4.5618,-4.6441,-4.683,-4.677,-4.683,-4.6711,-4.6309,-4.6037,-4.5394,-4.4377,-4.4317,-4.4003,-4.3319,-4.329,-4.329,-4.329,-4.3045,-4.2387,-4.1422,-4.107,-4.0232,-3.896,-3.9275,-3.9245,-3.896,-3.929,-3.9245,-3.8945,-3.8945,-3.8766,-3.8467,-3.8078,-3.7554,-3.703,-3.7389,-3.7105,-3.6537,-3.6537,-3.6537,-3.6417,-3.5729,-3.5504,-3.5504,-3.5504,-3.5504,-3.5504,-3.5504,-3.5504,-3.5504,-3.5504,-3.5504,-3.5504,-3.5504,-3.5504,-3.5504,-3.5504,-3.5504,-3.5504,-3.5504,-3.5504,-3.5504,-3.5504,-3.5504,-3.5504,-3.5504,-3.5504,-3.5504,-3.5504,-3.5504,-3.5235,-3.4578,-3.3888,-3.3048,-3.188,-3.1233,-3.0524,-2.9766,-2.9254,-2.938,-3.0269,-3.0299,-3.0673,-3.1467,-3.1511,-3.1511,-3.1511,-3.1511,-3.1511,-3.1511,-3.1511,-3.1511,-3.163,-3.3992,-3.6232,-3.5344,-3.5197,-3.5109,-3.4495,-3.3903,-3.3529,-3.3619,-3.4114,-3.4533,-3.4638,-3.5115,-3.5534,-3.5639,-3.6372,-3.7883,-4.0606,-4.1953,-4.3399,-4.5229,-4.6052,-4.6621,-4.6965,-4.6591,-4.6204,-4.5995,-4.5484,-4.4855,-4.4197,-4.4062,-4.3763,-4.317,-4.305,-4.2991,-4.2991,-4.2581,-4.2021,-4.122,-4.0666,-3.9753,-3.8556,-3.9155,-3.9035,-3.8422,-3.9125,-3.8975,-3.8242,-3.8347,-3.8003,-3.7404,-3.73,-3.6941,-3.6492,-3.6492,-3.6133,-3.5654,-3.5654,-3.5594,-3.5504,-3.5504,-3.5504,-3.5504,-3.5504,-3.5504,-3.5504,-3.5504,-3.5504,-3.5504,-3.5504,-3.5504,-3.5504,-3.5504,-3.5504,-3.5504,-3.5504,-3.5504,-3.5504,-3.5504,-3.5504,-3.5504,-3.5504,-3.5504,-3.5504,-3.5504,-3.5504,-3.5504,-3.5504,-3.5504,-3.528,-3.4728,-3.4038,-3.3425,-3.2856,-3.2093,-3.1043,-2.9613,-2.9435,-2.969,-3.045,-3.0494,-3.0807,-3.1511,-3.1511,-3.1511,-3.1511,-3.16,-3.1645,-3.166,-3.1765,-3.1809,-3.2183,-3.3562,-3.4545,-3.3276,-3.3397,-3.3772,-3.368,-3.3559,-3.3649,-3.4234,-3.4444,-3.4651,-3.5235,-3.5429,-3.5684,-3.6237,-3.7823,-4.0083,-4.3269,-4.3883,-4.4541,-4.5992,-4.6756,-4.6741,-4.5708,-4.6037,-4.5816,-4.4706,-4.4526,-4.4182,-4.3484,-4.2955,-4.265,-4.2545,-4.1968,-4.1683,-4.1683,-4.2171,-4.1796,-4.0546,-4.0442,-3.9993,-3.926,-3.9328,-3.9035,-3.8422,-3.9125,-3.8706,-3.7599,-3.8167,-3.8003,-3.736,-3.6836,-3.6567,-3.6492,-3.6492,-3.6417,-3.6342,-3.6342,-3.5968,-3.5504,-3.5504,-3.5504,-3.5504,-3.5504,-3.5504,-3.5504,-3.5504,-3.5504,-3.5504,-3.5504,-3.5504,-3.5504,-3.5504,-3.5504,-3.5504,-3.5504,-3.5504,-3.5504,-3.5504,-3.5504,-3.5504,-3.5504,-3.5504,-3.5504,-3.5504,-3.5504,-3.5504,-3.5504,-3.5504,-3.5459,-3.5355,-3.4741,-3.4309,-3.4219,-3.3066,-3.2244,-3.1974,-3.1427,-3.119,-3.1307,-3.1322,-3.138,-3.1511,-3.1511,-3.1511,-3.1511,-3.2064,-3.2333,-3.2348,-3.2931,-3.3185,-3.1345,-3.2662,-3.3709,-3.2751,-3.3559,-3.4487,-3.4113,-3.3754,-3.3589,-3.3888,-3.4264,-3.4593,-3.4891,-3.5818,-3.7105,-3.8841,-3.9888,-4.125,-4.3424,-4.4092,-4.4676,-4.5648,-4.6037,-4.6127,-4.5873,-4.5484,-4.4975,-4.4362,-4.3947,-4.3494,-4.2836,-4.256,-4.2231,-4.1886,-4.1572,-4.1205,-4.0846,-4.1145,-4.0995,-4.0382,-3.9664,-3.9155,-3.8856,-3.8497,-3.8362,-3.8407,-3.8721,-3.8302,-3.7434,-3.7734,-3.727,-3.6357,-3.6073,-3.5953,-3.5953,-3.5953,-3.5953,-3.5953,-3.5953,-3.5759,-3.5504,-3.5504,-3.5504,-3.5504,-3.5504,-3.5504,-3.5504,-3.5504,-3.5504,-3.5504,-3.5504,-3.5504,-3.5504,-3.5504,-3.5504,-3.5504,-3.5504,-3.5504,-3.5504,-3.5504,-3.5504,-3.5504,-3.5504,-3.5504,-3.5504,-3.5504,-3.5504,-3.5504,-3.5504,-3.5504,-3.5504,-3.5504,-3.4891,-3.4503,-3.4503,-3.3589,-3.2901,-3.2512,-3.1869,-3.166,-3.2019,-3.169,-3.1511,-3.1511,-3.1511,-3.1675,-3.2034,-3.2333,-3.2706,-3.3051,-3.3365,-3.3499,-3.0896,-3.2093,-3.3185,-3.2826,-3.4023,-3.5175,-3.4833,-3.4322,-3.4053,-3.4352,-3.4816,-3.5147,-3.4998,-3.6417,-3.8407,-4.0771,-4.1534,-4.2357,-4.3783,-4.4426,-4.4975,-4.5469,-4.5529,-4.5618,-4.5828,-4.4915,-4.4242,-4.4092,-4.3479,-4.2895,-4.2425,-4.2111,-4.1707,-4.1175,-4.0995,-4.0681,-4.0172,-4.0008,-3.9933,-3.9918,-3.8886,-3.8302,-3.8138,-3.7808,-3.7823,-3.8167,-3.8317,-3.7928,-3.7195,-3.7195,-3.6522,-3.5504,-3.5504,-3.5504,-3.5504,-3.5504,-3.5504,-3.5504,-3.5504,-3.5504,-3.5504,-3.5504,-3.5504,-3.5504,-3.5504,-3.5504,-3.5504,-3.5504,-3.5504,-3.5504,-3.5504,-3.5504,-3.5504,-3.5504,-3.5504,-3.5504,-3.5504,-3.5504,-3.5504,-3.5504,-3.5504,-3.5504,-3.5504,-3.5504,-3.5504,-3.5504,-3.5504,-3.5504,-3.5504,-3.5504,-3.5504,-3.5504,-3.504,-3.4683,-3.4518,-3.4039,-3.3514,-3.3006,-3.2183,-3.2034,-3.2721,-3.2228,-3.1959,-3.1959,-3.1959,-3.2213,-3.2736,-3.2901,-3.323,-3.3724,-3.3888,-3.3963,-3.2033,-3.2452,-3.2721,-3.3275,-3.3993,-3.4728,-3.5295,-3.54,-3.5699,-3.6881,-3.7165,-3.703,-3.6447,-3.7434,-3.8796,-4.0232,-4.1998,-4.3843,-4.5786,-4.6157,-4.6145,-4.6204,-4.6204,-4.5741,-4.4571,-4.4377,-4.4062,-4.3409,-4.2806,-4.2455,-4.2396,-4.1205,-4.0516,-4.0472,-3.9873,-3.9508,-3.9448,-3.8856,-3.8527,-3.8527,-3.8437,-3.8063,-3.7494,-3.8063,-3.8003,-3.7524,-3.8123,-3.7689,-3.6552,-3.6552,-3.6133,-3.5504,-3.5504,-3.5504,-3.5504,-3.5504,-3.5504,-3.5504,-3.5504,-3.5504,-3.5504,-3.5504,-3.5504,-3.5504,-3.5504,-3.5504,-3.5504,-3.5504,-3.5504,-3.5504,-3.5504,-3.5504,-3.5504,-3.5504,-3.5504,-3.5504,-3.5504,-3.5504,-3.5504,-3.5504,-3.5504,-3.5504,-3.5504,-3.5504,-3.5504,-3.5504,-3.5504,-3.5504,-3.5504,-3.5504,-3.5504,-3.5504,-3.5459,-3.5175,-3.4563,-3.4459,-3.4414,-3.4369,-3.314,-3.2736,-3.3395,-3.338,-3.335,-3.335,-3.335,-3.338,-3.3425,-3.4038,-3.4384,-3.4459,-3.507,-3.537,-3.0447,-3.1584,-3.2452,-3.2288,-3.338,-3.4788,-3.5863,-3.6417,-3.6821,-3.7315,-3.8078,-3.8551,-3.8362,-3.8706,-3.9604,-4.1377,-4.2581,-4.3843,-4.5454,-4.5678,-4.5678,-4.5678,-4.5319,-4.487,-4.4362,-4.3569,-4.3,-4.2746,-4.2156,-4.1384,-4.0576,-4.0053,-3.9589,-3.9155,-3.8512,-3.8362,-3.8781,-3.8108,-3.7584,-3.721,-3.721,-3.727,-3.7389,-3.6851,-3.6896,-3.7404,-3.727,-3.6959,-3.6492,-3.6492,-3.6088,-3.5504,-3.5504,-3.5504,-3.5504,-3.5504,-3.5504,-3.5504,-3.5504,-3.5504,-3.5504,-3.5504,-3.5504,-3.5504,-3.5504,-3.5504,-3.5504,-3.5504,-3.5504,-3.5504,-3.5504,-3.5504,-3.5504,-3.5504,-3.5504,-3.5504,-3.5504,-3.5504,-3.5504,-3.5504,-3.5504,-3.5504,-3.5504,-3.5504,-3.5504,-3.5504,-3.5504,-3.5504,-3.5504,-3.5504,-3.5504,-3.5504,-3.5504,-3.54,-3.513,-3.4726,-3.4698,-3.51,-3.3858,-3.3425,-3.4083,-3.3709,-3.3499,-3.3499,-3.3499,-3.3694,-3.4098,-3.4384,-3.4728,-3.513,-3.5385,-3.5504,-2.9744,-3.0851,-3.1869,-3.1809,-3.3021,-3.4653,-3.6387,-3.727,-3.7898,-3.8527,-3.8901,-3.9155,-3.9379,-3.9245,-3.9738,-4.1767,-4.2776,-4.3753,-4.511,-4.511,-4.499,-4.499,-4.4227,-4.3688,-4.3688,-4.274,-4.2096,-4.2096,-4.1482,-4.0681,-3.9768,-3.932,-3.8871,-3.8407,-3.7749,-3.7629,-3.8078,-3.7449,-3.6911,-3.6492,-3.6282,-3.6402,-3.6791,-3.6118,-3.6282,-3.709,-3.6671,-3.6492,-3.6477,-3.6267,-3.5908,-3.5504,-3.5504,-3.5504,-3.5504,-3.5504,-3.5504,-3.5504,-3.5504,-3.5504,-3.5504,-3.5504,-3.5504,-3.5504,-3.5504,-3.5504,-3.5504,-3.5504,-3.5504,-3.5504,-3.5504,-3.5504,-3.5504,-3.5504,-3.5504,-3.5504,-3.5504,-3.5504,-3.5504,-3.5504,-3.5504,-3.5504,-3.5504,-3.5504,-3.5504,-3.5504,-3.5504,-3.5504,-3.5504,-3.5504,-3.5504,-3.5504,-3.5504,-3.5504,-3.5504,-3.507,-3.4996,-3.5474,-3.4637,-3.4337,-3.4786,-3.4367,-3.4128,-3.4128,-3.4128,-3.4352,-3.4833,-3.4833,-3.504,-3.5504,-3.5504,-3.5504,-3.0477,-3.0492,-3.0821,-3.2168,-3.3006,-3.4203,-3.6806,-3.7913,-3.8945,-4.0965,-3.9798,-3.8601,-3.9305,-3.8871,-3.905,-4.1078,-4.2447,-4.3723,-4.5065,-4.4691,-4.4287,-4.4287,-4.315,-4.2396,-4.2396,-4.1796,-4.1407,-4.1407,-4.0756,-4.0382,-4.0367,-3.9095,-3.8362,-3.8362,-3.7734,-3.7389,-3.7404,-3.6791,-3.6477,-3.6477,-3.5818,-3.5504,-3.5534,-3.6178,-3.6477,-3.6477,-3.6477,-3.6477,-3.6432,-3.5774,-3.5504,-3.5504,-3.5504,-3.5504,-3.5504,-3.5504,-3.5504,-3.5504,-3.5504,-3.5504,-3.5504,-3.5504,-3.5504,-3.5504,-3.5504,-3.5504,-3.5504,-3.5504,-3.5504,-3.5504,-3.5504,-3.5504,-3.5504,-3.5504,-3.5504,-3.5504,-3.5504,-3.5504,-3.5504,-3.5504,-3.5504,-3.5504,-3.5504,-3.5504,-3.5504,-3.5504,-3.5504,-3.5504,-3.5504,-3.5504,-3.5504,-3.5504,-3.5504,-3.5504,-3.5504,-3.5504,-3.5504,-3.5504,-3.5504,-3.5504,-3.5504,-3.5504,-3.5504,-3.5504,-3.5504,-3.5504,-3.5504,-3.5504,-3.5504,-3.5504,-3.5504,-3.5504,-2.916,-2.9819,-3.0597,-3.1001,-3.3021,-3.5235,-3.6477,-3.724,-3.8392,-4.0876,-4.0172,-3.932,-3.9993,-3.9574,-3.9305,-3.9903,-4.0711,-4.1564,-4.2417,-4.2372,-4.2252,-4.2252,-4.1946,-4.1707,-4.1707,-4.107,-4.0696,-4.0696,-3.9634,-3.8781,-3.8317,-3.7509,-3.7045,-3.7045,-3.6402,-3.6297,-3.6746,-3.6118,-3.5804,-3.5789,-3.5609,-3.5504,-3.5519,-3.5714,-3.5804,-3.5804,-3.5804,-3.5804,-3.5774,-3.5594,-3.5504,-3.5504,-3.5504,-3.5504,-3.5504,-3.5504,-3.5504,-3.5504,-3.5504,-3.5504,-3.5504,-3.5504,-3.5504,-3.5504,-3.5504,-3.5504,-3.5504,-3.5504,-3.5504,-3.5504,-3.5504,-3.5504,-3.5504,-3.5504,-3.5504,-3.5504,-3.5504,-3.5504,-3.5504,-3.5504,-3.5504,-3.5504,-3.5504,-3.5504,-3.5504,-3.5504,-3.5504,-3.5504,-3.5504,-3.5504,-3.5504,-3.5504,-3.5504,-3.5504,-3.5504,-3.5504,-3.5504,-3.5504,-3.5504,-3.5504,-3.5504,-3.5504,-3.5504,-3.5504,-3.5504,-3.5504,-3.5504,-3.5504,-3.5504,-3.5504,-3.5504,-3.5504,-2.8925,-2.9729,-3.0687,-3.1495,-3.3619,-3.5744,-3.6641,-3.7764,-3.9125,-4.0995,-4.0337,-3.9619,-4.0277,-3.9634,-3.9185,-3.9723,-4.0142,-4.0621,-4.1332,-4.116,-4.1085,-4.1392,-4.092,-4.0711,-4.0965,-4.0397,-4.0008,-4.0008,-3.9005,-3.8212,-3.7823,-3.6971,-3.6492,-3.6492,-3.5848,-3.5699,-3.6088,-3.5699,-3.5504,-3.5504,-3.5504,-3.5504,-3.5504,-3.5504,-3.5504,-3.5504,-3.5504,-3.5504,-3.5504,-3.5504,-3.5504,-3.5504,-3.5504,-3.5504,-3.5504,-3.5504,-3.5504,-3.5504,-3.5504,-3.5504,-3.5504,-3.5504,-3.5504,-3.5504,-3.5504,-3.5504,-3.5504,-3.5504,-3.5504,-3.5504,-3.5504,-3.5504,-3.5504,-3.5504,-3.5504,-3.5504,-3.5504,-3.5504,-3.5504,-3.5504,-3.5504,-3.5504,-3.5504,-3.5504,-3.5504,-3.5504,-3.5504,-3.5504,-3.5504,-3.5504,-3.5504,-3.5504,-3.5504,-3.5504,-3.5504,-3.5504,-3.5504,-3.5504,-3.5504,-3.5504,-3.5504,-3.5504,-3.5504,-3.5504,-3.5504,-3.5504,-3.5504,-3.5504,-3.5504,-3.5504,-3.5504,-3.5504,-2.9339,-2.9993,-3.0911,-3.2976,-3.4547,-3.5908,-3.7135,-3.8811,-4.0307,-4.098,-4.0157,-3.9514,-4.0113,-3.917,-3.8721,-4.0008,-4.0217,-4.0442,-4.1115,-4.0681,-4.0531,-4.113,-4.0098,-3.9559,-4.0157,-3.9619,-3.9209,-3.9209,-3.8601,-3.8212,-3.8212,-3.706,-3.6402,-3.6402,-3.5818,-3.5504,-3.5504,-3.5504,-3.5504,-3.5504,-3.5504,-3.5504,-3.5504,-3.5504,-3.5504,-3.5504,-3.5504,-3.5504,-3.5504,-3.5504,-3.5504,-3.5504,-3.5504,-3.5504,-3.5504,-3.5504,-3.5504,-3.5504,-3.5504,-3.5504,-3.5504,-3.5504,-3.5504,-3.5504,-3.5504,-3.5504,-3.5504,-3.5504,-3.5504,-3.5504,-3.5504,-3.5504,-3.5504,-3.5504,-3.5504,-3.5504,-3.5504,-3.5504,-3.5504,-3.5504,-3.5504,-3.5504,-3.5504,-3.5504,-3.5504,-3.5504,-3.5504,-3.5504,-3.5504,-3.5504,-3.5504,-3.5504,-3.5504,-3.5504,-3.5504,-3.5504,-3.5504,-3.5504,-3.5504,-3.5504,-3.5504,-3.5504,-3.5504,-3.5504,-3.5504,-3.5504,-3.5504,-3.5504,-3.5504,-3.5504,-3.5504,-3.5504,-2.9056,-2.958,-3.0387,-3.2871,-3.4891,-3.6477,-3.724,-3.7734,-3.8242,-3.8901,-3.8811,-3.8661,-3.8796,-3.8153,-3.7883,-3.8691,-3.8826,-3.905,-3.9753,-3.9723,-3.9679,-3.9828,-3.911,-3.8661,-3.8811,-3.8227,-3.7838,-3.7838,-3.7255,-3.6896,-3.6896,-3.6148,-3.5714,-3.5714,-3.5579,-3.5504,-3.5504,-3.5504,-3.5504,-3.5504,-3.5504,-3.5504,-3.5504,-3.5504,-3.5504,-3.5504,-3.5504,-3.5504,-3.5504,-3.5504,-3.5504,-3.5504,-3.5504,-3.5504,-3.5504,-3.5504,-3.5504,-3.5504,-3.5504,-3.5504,-3.5504,-3.5504,-3.5504,-3.5504,-3.5504,-3.5504,-3.5504,-3.5504,-3.5504,-3.5504,-3.5504,-3.5504,-3.5504,-3.5504,-3.5504,-3.5504,-3.5504,-3.5504,-3.5504,-3.5504,-3.5504,-3.5504,-3.5504,-3.5504,-3.5504,-3.5504,-3.5504,-3.5504,-3.5504,-3.5504,-3.5504,-3.5504,-3.5504,-3.5504,-3.5504,-3.5504,-3.5504,-3.5504,-3.5504,-3.5504,-3.5504,-3.5504,-3.5504,-3.5504,-3.5504,-3.5504,-3.5504,-3.5504,-3.5504,-3.5504,-3.5504,-3.5504,-2.8739,-2.9659,-3.118,-3.4191,-3.5714,-3.6656,-3.727,-3.718,-3.706,-3.7404,-3.7719,-3.7913,-3.7913,-3.7644,-3.7524,-3.7853,-3.8182,-3.8407,-3.8452,-3.8736,-3.8811,-3.8497,-3.8138,-3.7913,-3.7913,-3.7614,-3.7404,-3.7404,-3.6836,-3.6492,-3.6492,-3.5863,-3.5504,-3.5504,-3.5504,-3.5504,-3.5504,-3.5504,-3.5504,-3.5504,-3.5504,-3.5504,-3.5504,-3.5504,-3.5504,-3.5504,-3.5504,-3.5504,-3.5504,-3.5504,-3.5504,-3.5504,-3.5504,-3.5504,-3.5504,-3.5504,-3.5504,-3.5504,-3.5504,-3.5504,-3.5504,-3.5504,-3.5504,-3.5504,-3.5504,-3.5504,-3.5504,-3.5504,-3.5504,-3.5504,-3.5504,-3.5504,-3.5504,-3.5504,-3.5504,-3.5504,-3.5504,-3.5504,-3.5504,-3.5504,-3.5504,-3.5504,-3.5504,-3.5504,-3.5504,-3.5504,-3.5504,-3.5504,-3.5504,-3.5504,-3.5504,-3.5504,-3.5504,-3.5504,-3.5504,-3.5504,-3.5504,-3.5504,-3.5504,-3.5504,-3.5504,-3.5504,-3.5504,-3.5504,-3.5504,-3.5504,-3.5504,-3.5504,-3.5504,-3.5504,-3.5504,-3.5504,-2.8532,-2.9993,-3.2284,-3.523,-3.6058,-3.6312,-3.6941,-3.6686,-3.6312,-3.6312,-3.6716,-3.7075,-3.7075,-3.7075,-3.712,-3.724,-3.7704,-3.7898,-3.7464,-3.7883,-3.8018,-3.7479,-3.7315,-3.724,-3.724,-3.715,-3.7075,-3.7075,-3.6611,-3.6312,-3.6312,-3.5804,-3.5504,-3.5504,-3.5504,-3.5444,-3.5325,-3.5325,-3.5265,-3.516,-3.5265,-3.5385,-3.5504,-3.5504,-3.5504,-3.5504,-3.5504,-3.5504,-3.5504,-3.5504,-3.5504,-3.5504,-3.5504,-3.5504,-3.5504,-3.5504,-3.5504,-3.5504,-3.5504,-3.5504,-3.5504,-3.5504,-3.5504,-3.5504,-3.5504,-3.5504,-3.5504,-3.5504,-3.5504,-3.5504,-3.5504,-3.5504,-3.5504,-3.5504,-3.5504,-3.5504,-3.5504,-3.5504,-3.5504,-3.5504,-3.5504,-3.5504,-3.5504,-3.5504,-3.5504,-3.5504,-3.5504,-3.5504,-3.5504,-3.5504,-3.5504,-3.5504,-3.5504,-3.5504,-3.5504,-3.5504,-3.5504,-3.5504,-3.5504,-3.5504,-3.5504,-3.5504,-3.5504,-3.5504,-3.5504,-3.5504,-3.5504,-3.5504,-3.5504,-3.5504,-3.5504,-3.5504,-2.867,-3.0479,-3.2463,-3.3607,-3.4354,-3.4953,-3.5609,-3.5699,-3.5639,-3.5639,-3.5699,-3.5759,-3.5759,-3.5759,-3.5953,-3.6522,-3.6686,-3.6896,-3.7345,-3.7479,-3.7509,-3.7419,-3.6941,-3.6611,-3.6611,-3.6088,-3.5759,-3.5759,-3.5684,-3.5639,-3.5639,-3.5549,-3.5504,-3.5504,-3.5504,-3.522,-3.4653,-3.4638,-3.4322,-3.3769,-3.4337,-3.4921,-3.5504,-3.5504,-3.5504,-3.5504,-3.5504,-3.5504,-3.5504,-3.5504,-3.5504,-3.5504,-3.5504,-3.5504,-3.5504,-3.5504,-3.5504,-3.5504,-3.5504,-3.5504,-3.5504,-3.5504,-3.5504,-3.5504,-3.5504,-3.5504,-3.5504,-3.5504,-3.5504,-3.5504,-3.5504,-3.5504,-3.5504,-3.5504,-3.5504,-3.5504,-3.5504,-3.5504,-3.5504,-3.5504,-3.5504,-3.5504,-3.5504,-3.5504,-3.5504,-3.5504,-3.5504,-3.5504,-3.5504,-3.5504,-3.5504,-3.5504,-3.5504,-3.5504,-3.5504,-3.5504,-3.5504,-3.5504,-3.5504,-3.5504,-3.5504,-3.5504,-3.5504,-3.5504,-3.5504,-3.5504,-3.5504,-3.5504,-3.5504,-3.5504,-3.5504,-3.5504,-2.9786,-3.0334,-3.1162,-3.2497,-3.3044,-3.3562,-3.467,-3.4936,-3.504,-3.5429,-3.5504,-3.5504,-3.5504,-3.5504,-3.5609,-3.5893,-3.6237,-3.6447,-3.6357,-3.6656,-3.6761,-3.6387,-3.6103,-3.5938,-3.5938,-3.5669,-3.5504,-3.5504,-3.5504,-3.5504,-3.5504,-3.5504,-3.5504,-3.5504,-3.513,-3.4786,-3.4503,-3.4144,-3.3994,-3.4038,-3.3994,-3.4487,-3.5489,-3.51,-3.4936,-3.4951,-3.534,-3.507,-3.4442,-3.519,-3.528,-3.4966,-3.5355,-3.5504,-3.5504,-3.5504,-3.5504,-3.5504,-3.5504,-3.5504,-3.5504,-3.5504,-3.5504,-3.5504,-3.5504,-3.5504,-3.5504,-3.5504,-3.5504,-3.5504,-3.5504,-3.5504,-3.5504,-3.5504,-3.5504,-3.5504,-3.5504,-3.5504,-3.5504,-3.5504,-3.5504,-3.5504,-3.5504,-3.5504,-3.5504,-3.5504,-3.5504,-3.5504,-3.5504,-3.5504,-3.5504,-3.5504,-3.5504,-3.5504,-3.5504,-3.5504,-3.5504,-3.5504,-3.5504,-3.5504,-3.5504,-3.5504,-3.5504,-3.5504,-3.5504,-3.5504,-3.5504,-3.5504,-3.5504,-3.5504,-3.5504,-3.5504,-2.9942,-2.9689,-2.9762,-3.1259,-3.1727,-3.2185,-3.3623,-3.3967,-3.4173,-3.4861,-3.513,-3.525,-3.525,-3.5385,-3.5504,-3.5504,-3.5923,-3.6073,-3.5579,-3.5923,-3.6058,-3.5564,-3.5504,-3.5504,-3.5504,-3.5504,-3.5504,-3.5504,-3.5504,-3.5504,-3.5504,-3.5504,-3.5429,-3.525,-3.4773,-3.4354,-3.3978,-3.332,-3.332,-3.3978,-3.3484,-3.3858,-3.4981,-3.4457,-3.4159,-3.4054,-3.4876,-3.4577,-3.3574,-3.4577,-3.4786,-3.4563,-3.504,-3.5355,-3.5504,-3.5504,-3.5504,-3.5504,-3.5504,-3.5504,-3.5504,-3.5504,-3.5504,-3.5504,-3.5504,-3.5504,-3.5504,-3.5504,-3.5504,-3.5504,-3.5504,-3.5504,-3.5504,-3.5504,-3.5504,-3.5504,-3.5504,-3.5504,-3.5504,-3.5504,-3.5504,-3.5504,-3.5504,-3.5504,-3.5504,-3.5504,-3.5504,-3.5504,-3.5504,-3.5504,-3.5504,-3.5504,-3.5504,-3.5504,-3.5504,-3.5504,-3.5504,-3.5504,-3.5504,-3.5504,-3.5504,-3.5504,-3.5504,-3.5504,-3.5504,-3.5504,-3.5504,-3.5504,-3.5504,-3.5504,-3.5504,-3.5504,-2.8091,-2.8388,-2.8779,-2.9619,-3.0109,-3.0771,-3.2103,-3.2517,-3.2796,-3.3469,-3.4129,-3.4563,-3.4563,-3.5055,-3.5504,-3.5504,-3.5534,-3.5549,-3.5504,-3.5534,-3.5549,-3.5504,-3.5504,-3.5504,-3.5504,-3.5504,-3.5504,-3.5504,-3.5504,-3.5504,-3.5504,-3.5504,-3.5205,-3.4578,-3.4533,-3.3873,-3.2632,-3.1929,-3.1929,-3.2617,-3.2587,-3.2931,-3.3604,-3.3559,-3.32,-3.2691,-3.3963,-3.4159,-3.3499,-3.3574,-3.3948,-3.4503,-3.4548,-3.4936,-3.5504,-3.5504,-3.5504,-3.5504,-3.5504,-3.5504,-3.5504,-3.5504,-3.5504,-3.5504,-3.5504,-3.5504,-3.5504,-3.5504,-3.5504,-3.5504,-3.5504,-3.5504,-3.5504,-3.5504,-3.5504,-3.5504,-3.5504,-3.5504,-3.5504,-3.5504,-3.5504,-3.5504,-3.5504,-3.5504,-3.5504,-3.5504,-3.5504,-3.5504,-3.5504,-3.5504,-3.5504,-3.5504,-3.5504,-3.5504,-3.5504,-3.5504,-3.5504,-3.5504,-3.5504,-3.5504,-3.5504,-3.5504,-3.5504,-3.5504,-3.5504,-3.5504,-3.5504,-3.5504,-3.5504,-3.5504,-3.5504,-3.5504,-2.8126,-2.8587,-2.9157,-2.8986,-2.9408,-2.9951,-3.0287,-3.1098,-3.187,-3.2152,-3.2766,-3.335,-3.3769,-3.4756,-3.5504,-3.5504,-3.5504,-3.5504,-3.5504,-3.5504,-3.5504,-3.5504,-3.5504,-3.5504,-3.5504,-3.5504,-3.5504,-3.5504,-3.5504,-3.5504,-3.5504,-3.5085,-3.4936,-3.513,-3.3888,-3.2781,-3.1869,-3.163,-3.1839,-3.2482,-3.2049,-3.2422,-3.3484,-3.3051,-3.2736,-3.2542,-3.3021,-3.308,-3.2931,-3.3784,-3.4039,-3.3933,-3.4801,-3.4756,-3.4322,-3.519,-3.522,-3.4846,-3.4846,-3.513,-3.5429,-3.4996,-3.5145,-3.5504,-3.5504,-3.5504,-3.5504,-3.5504,-3.5504,-3.5504,-3.5504,-3.5504,-3.5504,-3.5504,-3.5504,-3.5504,-3.5504,-3.5504,-3.5504,-3.5504,-3.5504,-3.5504,-3.5504,-3.5504,-3.5504,-3.5504,-3.5504,-3.5504,-3.5504,-3.5504,-3.5504,-3.5504,-3.5504,-3.5504,-3.5504,-3.5504,-3.5504,-3.5504,-3.5504,-3.5504,-3.5504,-3.5504,-3.5504,-3.5504,-3.5504,-3.5504,-3.5504,-3.5504,-3.5729,-3.6133,-3.6133,-3.6342,-2.8217,-2.8546,-2.9069,-2.9257,-2.9088,-2.9126,-3.0,-3.03,-3.0602,-3.1304,-3.1849,-3.2363,-3.3036,-3.4083,-3.4906,-3.513,-3.5355,-3.5504,-3.5504,-3.5504,-3.5504,-3.5504,-3.5504,-3.5504,-3.5504,-3.5504,-3.5504,-3.5504,-3.5504,-3.54,-3.5175,-3.4951,-3.4816,-3.4831,-3.311,-3.1944,-3.1511,-3.1511,-3.172,-3.2153,-3.1705,-3.1959,-3.2826,-3.2377,-3.2153,-3.2153,-3.2153,-3.2273,-3.2557,-3.3455,-3.3829,-3.3888,-3.4562,-3.4412,-3.3903,-3.4577,-3.4547,-3.4174,-3.4174,-3.4592,-3.5085,-3.4653,-3.4936,-3.5504,-3.5504,-3.5504,-3.5504,-3.5504,-3.5504,-3.5504,-3.5504,-3.5504,-3.5504,-3.5504,-3.5504,-3.5504,-3.5504,-3.5504,-3.5504,-3.5504,-3.5504,-3.5504,-3.5504,-3.5504,-3.5504,-3.5504,-3.5504,-3.5504,-3.5504,-3.5504,-3.5594,-3.5804,-3.5639,-3.5594,-3.5818,-3.5833,-3.5744,-3.5519,-3.5714,-3.5833,-3.5833,-3.5833,-3.5923,-3.6133,-3.6148,-3.6148,-3.6148,-3.5938,-3.6163,-3.6791,-3.6791,-3.7135,0.0,0.0,0.0,-3.0336,-2.9181,-2.8313,-3.1205,-3.008,-2.8967,-3.0954,-3.1371,-3.1629,-3.2302,-3.2976,-3.3649,-3.4324,-3.4996,-3.5489,-3.5504,-3.5504,-3.5504,-3.5504,-3.5504,-3.5504,-3.5504,-3.5504,-3.5504,-3.5504,-3.5504,-3.522,-3.4578,-3.5115,-3.4846,-3.3484,-3.2183,-3.1525,-3.1511,-3.1511,-3.1511,-3.1511,-3.1511,-3.1511,-3.1511,-3.1511,-3.1511,-3.1511,-3.1511,-3.1869,-3.2512,-3.2512,-3.326,-3.4384,-3.3739,-3.3858,-3.4354,-3.3724,-3.3484,-3.3469,-3.3469,-3.3903,-3.4503,-3.4488,-3.4936,-3.5504,-3.5504,-3.5504,-3.5504,-3.5504,-3.5504,-3.5504,-3.5504,-3.5504,-3.5504,-3.5504,-3.5504,-3.5504,-3.5504,-3.5504,-3.5504,-3.5504,-3.5519,-3.5534,-3.5504,-3.5519,-3.5534,-3.5534,-3.5519,-3.5519,-3.5549,-3.5549,-3.5789,-3.6447,-3.5938,-3.5818,-3.6462,-3.6507,-3.6237,-3.5609,-3.6163,-3.6507,-3.6507,-3.6507,-3.6791,-3.7404,-3.7404,-3.7419,-3.7434,-3.6821,-3.6836,-3.7434,-3.7464,-3.7808,-2.7714,0.0,0.0,0.0,0.0,0.0,-2.885,-2.8682,-2.8813,-2.9757,-2.9586,-2.9633,-3.0823,-3.1598,-3.2108,-3.2288,-3.3709,-3.4936,-3.5429,-3.5504,-3.5504,-3.5504,-3.5504,-3.5504,-3.5504,-3.5504,-3.5504,-3.5504,-3.5504,-3.5429,-3.5235,-3.4936,-3.3933,-3.2108,-3.2153,-3.1989,-3.1511,-3.1511,-3.1511,-3.1511,-3.1511,-3.1511,-3.1511,-3.1511,-3.1511,-3.1511,-3.1511,-3.1869,-3.2512,-3.2512,-3.2721,-3.308,-3.338,-3.3021,-3.2437,-3.3215,-3.3185,-3.2781,-3.2781,-3.3529,-3.4429,-3.3918,-3.4562,-3.5504,-3.5504,-3.5504,-3.5504,-3.5504,-3.5504,-3.5504,-3.5504,-3.5504,-3.5504,-3.5504,-3.5504,-3.5504,-3.5504,-3.5504,-3.5504,-3.5504,-3.5893,-3.6073,-3.5594,-3.5893,-3.6207,-3.6207,-3.5804,-3.5833,-3.6761,-3.6492,-3.6447,-3.709,-3.7,-3.6956,-3.715,-3.715,-3.7075,-3.6896,-3.706,-3.715,-3.715,-3.715,-3.724,-3.7404,-3.7404,-3.7644,-3.8123,-3.7464,-3.7479,-3.8138,-3.8631,-3.896,-2.8246,-2.8654,-2.9154,-2.9308,0.0,0.0,-2.8904,-2.8397,-2.8141,-2.9048,-2.8719,-2.8607,-2.9701,-3.0288,-3.0764,-3.1324,-3.245,-3.3679,-3.4906,-3.507,-3.519,-3.5474,-3.5504,-3.5504,-3.5504,-3.5504,-3.5504,-3.5504,-3.5504,-3.5385,-3.51,-3.4173,-3.3125,-3.1944,-3.2019,-3.1899,-3.1511,-3.1511,-3.1511,-3.1511,-3.1511,-3.1511,-3.1511,-3.1511,-3.1511,-3.1525,-3.1795,-3.2123,-3.2512,-3.2811,-3.308,-3.332,-3.3155,-3.2781,-3.2392,-3.2901,-3.2841,-3.2557,-3.2826,-3.3604,-3.4444,-3.4023,-3.4637,-3.5504,-3.5504,-3.5504,-3.5504,-3.5504,-3.5504,-3.5504,-3.5504,-3.5504,-3.5504,-3.5504,-3.5504,-3.5504,-3.5504,-3.5504,-3.5594,-3.5863,-3.6222,-3.6447,-3.6327,-3.6626,-3.6866,-3.6866,-3.6552,-3.6567,-3.7315,-3.709,-3.712,-3.7749,-3.7569,-3.7524,-3.7793,-3.7823,-3.7704,-3.7419,-3.7659,-3.7823,-3.7823,-3.7823,-3.7958,-3.8242,-3.8512,-3.8841,-3.923,-3.8272,-3.8153,-3.8826,-3.923,-3.9388,-2.9195,-2.9005,-2.8945,-3.0744,-2.9443,0.0,-3.0212,-2.893,-2.7646,-2.8873,-2.8644,-2.8439,-2.9102,-2.9406,-2.9908,-3.101,-3.1371,-3.2196,-3.4114,-3.4459,-3.4728,-3.5325,-3.5459,-3.5504,-3.5504,-3.5429,-3.5385,-3.5385,-3.5385,-3.513,-3.4533,-3.3305,-3.2587,-3.2512,-3.1854,-3.1511,-3.1511,-3.1511,-3.1511,-3.1511,-3.1511,-3.1511,-3.1511,-3.1511,-3.1511,-3.154,-3.2198,-3.2512,-3.2557,-3.3215,-3.3844,-3.4279,-3.3006,-3.2916,-3.3425,-3.2766,-3.2557,-3.2706,-3.329,-3.3918,-3.4503,-3.4503,-3.4936,-3.5504,-3.5504,-3.5504,-3.5504,-3.5504,-3.5504,-3.5504,-3.5504,-3.5504,-3.5504,-3.5504,-3.5504,-3.5504,-3.5504,-3.5504,-3.5729,-3.6447,-3.6596,-3.6761,-3.7315,-3.7464,-3.7524,-3.7524,-3.7464,-3.7464,-3.7614,-3.7569,-3.7778,-3.8437,-3.7973,-3.7868,-3.8452,-3.8497,-3.8257,-3.7674,-3.8182,-3.8497,-3.8497,-3.8497,-3.8796,-3.9373,-4.0068,-4.0442,-4.0502,-3.923,-3.8886,-3.9388,-3.9388,-3.9388,-2.8922,-2.9196,-2.9383,-2.9761,-3.0152,0.0,-2.9866,-2.9834,-2.9876,-2.9895,-2.9403,-2.9197,-2.9933,-3.0615,-3.0966,-3.0632,-3.115,-3.2069,-3.3501,-3.4174,-3.4563,-3.4698,-3.516,-3.5504,-3.5504,-3.4996,-3.4713,-3.4713,-3.4713,-3.4653,-3.4518,-3.3724,-3.3066,-3.2527,-3.1854,-3.1511,-3.1511,-3.1511,-3.1511,-3.1511,-3.1511,-3.1511,-3.1511,-3.1511,-3.1511,-3.154,-3.2198,-3.2512,-3.2557,-3.3215,-3.3574,-3.3604,-3.2826,-3.2916,-3.3425,-3.2766,-3.2841,-3.332,-3.344,-3.3918,-3.4503,-3.4503,-3.4936,-3.5504,-3.5504,-3.5504,-3.5504,-3.5504,-3.5504,-3.5504,-3.5504,-3.5504,-3.5504,-3.5504,-3.5504,-3.5504,-3.5504,-3.5504,-3.5848,-3.7,-3.7225,-3.727,-3.7389,-3.7853,-3.8197,-3.8197,-3.7749,-3.7793,-3.8886,-3.8542,-3.8452,-3.914,-3.911,-3.908,-3.9215,-3.9215,-3.917,-3.9035,-3.9155,-3.9215,-3.9215,-3.9215,-3.929,-3.9388,-4.0068,-4.0666,-4.119,-4.0397,-3.9813,-3.9388,-3.9388,-3.9388,-2.9947,-3.0226,-3.0358,-3.0358,-3.0211,0.0,0.0,-2.9793,-2.9859,-3.0061,-2.9259,-2.8851,-2.9985,-2.9983,-3.0032,-3.0739,-3.0624,-3.1064,-3.2776,-3.2999,-3.3245,-3.3903,-3.4292,-3.4502,-3.4502,-3.4487,-3.4653,-3.4966,-3.4367,-3.4159,-3.4488,-3.3844,-3.3185,-3.2512,-3.2168,-3.1839,-3.1511,-3.1511,-3.1511,-3.1511,-3.1511,-3.1511,-3.1511,-3.1511,-3.1511,-3.1555,-3.2572,-3.2826,-3.2587,-3.3574,-3.3978,-3.3918,-3.326,-3.341,-3.3948,-3.3619,-3.3709,-3.4038,-3.4382,-3.4711,-3.4996,-3.4996,-3.522,-3.5504,-3.5504,-3.5504,-3.5504,-3.5504,-3.5504,-3.5504,-3.5504,-3.5504,-3.5504,-3.5504,-3.5504,-3.5504,-3.5504,-3.5759,-3.6282,-3.7225,-3.7674,-3.8003,-3.8347,-3.8691,-3.8901,-3.8901,-3.8616,-3.8646,-3.9298,-3.9125,-3.9035,-3.9343,-3.9388,-3.9388,-3.9388,-3.9388,-3.9388,-3.9388,-3.9388,-3.9388,-3.9388,-3.9388,-3.9723,-4.0382,-4.104,-4.1572,-4.1916,-4.1572,-4.0876,-3.9903,-3.9903,-3.9903,-3.1254,-3.1533,-3.1559,-3.1308,-3.054,-2.9852,0.0,0.0,0.0,-3.004,-2.921,-2.8838,-3.0072,-2.9426,-2.9261,-3.0993,-3.0396,-3.0298,-3.2015,-3.1829,-3.1944,-3.3156,-3.3081,-3.3066,-3.3455,-3.3858,-3.4322,-3.4891,-3.4038,-3.3784,-3.4474,-3.3844,-3.3305,-3.2901,-3.2647,-3.2288,-3.1884,-3.1765,-3.169,-3.169,-3.157,-3.1511,-3.1511,-3.163,-3.169,-3.1765,-3.311,-3.338,-3.2976,-3.4188,-3.4623,-3.4444,-3.3754,-3.3978,-3.4698,-3.4563,-3.4593,-3.4788,-3.531,-3.5504,-3.5504,-3.5504,-3.5504,-3.5504,-3.5504,-3.5504,-3.5504,-3.5504,-3.5504,-3.5504,-3.5504,-3.5504,-3.5504,-3.5504,-3.5504,-3.5549,-3.5669,-3.6118,-3.6716,-3.7449,-3.8018,-3.8601,-3.9269,-3.9388,-3.9388,-3.9388,-3.9388,-3.9388,-3.9388,-3.9388,-3.9388,-3.9388,-3.9388,-3.9388,-3.9388,-3.9388,-3.9388,-3.9388,-3.9388,-3.9388,-3.9388,-3.9388,-4.0038,-4.1354,-4.1946,-4.2336,-4.259,-4.259,-4.1803,-4.0397,-4.0397,-4.0337,-3.1944,-3.2694,-3.2858,-3.1672,-3.2139,-3.2268,-2.9838,0.0,-3.1582,-3.0362,0.0,-3.0869,-3.1038,0.0,0.0,-3.1159,-3.1178,-3.1243,-3.1401,-3.1468,-3.1738,-3.2441,-3.152,-3.1539,-3.332,-3.3036,-3.2766,-3.2856,-3.3245,-3.3784,-3.4474,-3.3844,-3.3724,-3.4279,-3.3125,-3.2766,-3.326,-3.2691,-3.2378,-3.2392,-3.178,-3.1511,-3.1525,-3.2108,-3.2378,-3.2452,-3.3784,-3.4354,-3.4339,-3.507,-3.5026,-3.4444,-3.3754,-3.4262,-3.531,-3.4728,-3.4861,-3.54,-3.5474,-3.5504,-3.5504,-3.5504,-3.5504,-3.5504,-3.5504,-3.5504,-3.5504,-3.5504,-3.5504,-3.5504,-3.5504,-3.5504,-3.5504,-3.5504,-3.5504,-3.5669,-3.6252,-3.6432,-3.6836,-3.8048,-3.8347,-3.8601,-3.9269,-3.9388,-3.9388,-3.9388,-3.9388,-3.9388,-3.9388,-3.9388,-3.9388,-3.9388,-3.9388,-3.9388,-3.9388,-3.9388,-3.9388,-3.9388,-3.9388,-3.9388,-3.9388,-3.9388,-4.0038,-4.1354,-4.1444,-4.2058,-4.3185,-4.3185,-4.2252,-4.0397,-4.0397,-4.0083,-3.1702,-3.2046,-3.2255,-3.2027,-3.1785,-3.1504,-3.1085,-3.1338,-3.1616,-3.141,0.0,0.0,0.0,0.0,0.0,0.0,-3.1163,-3.0935,-3.175,-3.0561,-3.0303,-3.223,-3.1299,-3.0843,-3.1673,-3.1509,-3.1674,-3.2452,-3.2392,-3.2976,-3.4429,-3.3844,-3.3799,-3.4488,-3.3933,-3.3604,-3.3499,-3.3215,-3.308,-3.308,-3.2392,-3.2064,-3.2079,-3.2363,-3.2512,-3.2557,-3.3934,-3.4294,-3.3963,-3.4622,-3.4517,-3.3918,-3.4054,-3.4412,-3.4921,-3.504,-3.525,-3.5504,-3.5504,-3.5504,-3.5504,-3.5504,-3.5504,-3.5504,-3.5504,-3.5504,-3.5504,-3.5504,-3.5504,-3.5504,-3.5504,-3.5504,-3.5609,-3.5983,-3.6073,-3.6252,-3.6881,-3.733,-3.7749,-3.8287,-3.8706,-3.908,-3.9328,-3.9388,-3.9388,-3.9388,-3.9388,-3.9388,-3.9388,-3.9388,-3.9388,-3.9388,-3.9388,-3.9388,-3.9388,-3.9388,-3.9388,-3.9388,-3.9388,-3.9553,-3.9963,-3.9993,-4.0606,-4.1961,-4.1991,-4.2402,-4.329,-4.329,-4.2716,-4.1572,-4.1572,-4.1384,-3.1369,-3.1603,-3.1871,-3.2119,-3.1665,-3.128,-3.1686,-3.1799,-3.1901,-3.2226,-3.1613,0.0,0.0,0.0,-3.1055,-3.2141,0.0,-3.1072,-3.2158,-3.0596,-3.0038,-3.1942,-3.1325,-3.0771,-3.0806,-3.0784,-3.1106,-3.1898,-3.1839,-3.2318,-3.3604,-3.3559,-3.3799,-3.4488,-3.4503,-3.4369,-3.4053,-3.3858,-3.3679,-3.3484,-3.3021,-3.2691,-3.2497,-3.2886,-3.3051,-3.311,-3.4262,-3.4487,-3.4068,-3.4399,-3.4219,-3.3814,-3.4324,-3.4503,-3.4593,-3.525,-3.5504,-3.5504,-3.5504,-3.5504,-3.5504,-3.5504,-3.5504,-3.5504,-3.5504,-3.5504,-3.5504,-3.5504,-3.5504,-3.5504,-3.5504,-3.5639,-3.5893,-3.6372,-3.6611,-3.6911,-3.7539,-3.8063,-3.8437,-3.8631,-3.908,-3.9388,-3.9388,-3.9388,-3.9388,-3.9388,-3.9388,-3.9388,-3.9388,-3.9388,-3.9388,-3.9388,-3.9388,-3.9388,-3.9388,-3.9388,-3.9388,-3.9388,-3.9553,-3.9903,-4.0382,-4.0576,-4.1205,-4.2381,-4.2396,-4.2686,-4.329,-4.329,-4.309,-4.2626,-4.2485,-4.2306,-3.1228,-3.2073,-3.241,-3.1779,-3.2519,-3.2875,-3.0914,-3.1951,-3.3136,-3.2446,-3.2831,-3.3322,-3.3372,-3.273,0.0,0.0,-3.2259,0.0,0.0,-3.2222,-3.1963,-3.1408,-3.1345,-3.1422,-3.1537,-3.1528,-3.1212,-3.0612,-3.1764,-3.2198,-3.163,-3.2826,-3.3799,-3.4488,-3.4503,-3.4786,-3.5429,-3.4786,-3.4159,-3.3499,-3.3469,-3.3125,-3.2527,-3.3829,-3.4444,-3.4474,-3.516,-3.5459,-3.5385,-3.4773,-3.4503,-3.4474,-3.4503,-3.4503,-3.4593,-3.525,-3.5504,-3.5504,-3.5504,-3.5504,-3.5504,-3.5504,-3.5504,-3.5504,-3.5504,-3.5504,-3.5504,-3.5504,-3.5504,-3.5504,-3.5504,-3.5983,-3.6462,-3.6477,-3.6941,-3.7554,-3.8212,-3.8377,-3.8586,-3.926,-3.9373,-3.9388,-3.9388,-3.9388,-3.9388,-3.9388,-3.9388,-3.9388,-3.9388,-3.9388,-3.9388,-3.9388,-3.9388,-3.9388,-3.9388,-3.9388,-3.9388,-3.9388,-4.0023,-4.0382,-4.0397,-4.101,-4.1707,-4.2396,-4.2396,-4.2686,-4.329,-4.329,-4.329,-4.3245,-4.2656,-4.2051,-2.9999,-3.0136,-3.0109,-3.0711,-3.0855,-3.0902,-3.1031,-3.1894,-3.2604,-3.2409,-3.2534,-3.2693,-3.2724,-3.2514,0.0,0.0,0.0,-3.2293,0.0,-3.1887,-3.1672,-3.1922,-3.2069,-3.1446,-2.9726,-2.995,-2.9962,-2.9277,-2.9669,-3.0387,-3.1451,-3.2333,-3.335,-3.4474,-3.4921,-3.5265,-3.5504,-3.528,-3.504,-3.4816,-3.4367,-3.4054,-3.3829,-3.4294,-3.4503,-3.4548,-3.5205,-3.5504,-3.5489,-3.525,-3.4891,-3.4548,-3.4981,-3.4876,-3.4593,-3.525,-3.5504,-3.5504,-3.5504,-3.5504,-3.5504,-3.5504,-3.5504,-3.5504,-3.5504,-3.5504,-3.5504,-3.5504,-3.5504,-3.5609,-3.6043,-3.6312,-3.6701,-3.7554,-3.7898,-3.8242,-3.8931,-3.9065,-3.914,-3.9379,-3.9388,-3.9388,-3.9388,-3.9388,-3.9388,-3.9388,-3.9388,-3.9388,-3.9388,-3.9388,-3.9388,-3.9388,-3.9388,-3.9388,-3.9388,-3.9828,-4.0247,-4.0696,-4.0935,-4.125,-4.1722,-4.1527,-4.1893,-4.2985,-4.262,-4.2686,-4.329,-4.329,-4.329,-4.329,-4.3105,-4.288,-2.8576,-2.8545,-2.8586,-3.0107,-3.0381,-3.0456,-3.1215,-3.2098,-3.2718,-3.2464,-3.2602,-3.2766,-3.282,-3.2827,0.0,0.0,0.0,0.0,0.0,-3.1735,-3.1684,-3.1887,-3.2012,-3.1336,-2.9407,-2.9644,-2.9464,-2.834,-2.8682,-2.9505,-3.0748,-3.166,-3.2766,-3.4114,-3.4786,-3.525,-3.5504,-3.5504,-3.5385,-3.513,-3.4728,-3.4503,-3.4503,-3.4503,-3.4638,-3.4861,-3.531,-3.5504,-3.5489,-3.5235,-3.5026,-3.4861,-3.5055,-3.5026,-3.4906,-3.534,-3.5504,-3.5504,-3.5504,-3.5504,-3.5504,-3.5504,-3.5504,-3.5504,-3.5504,-3.5504,-3.5504,-3.5504,-3.5669,-3.5953,-3.6372,-3.6821,-3.7375,-3.8197,-3.8571,-3.8871,-3.9334,-3.9388,-3.9388,-3.9388,-3.9388,-3.9388,-3.9388,-3.9388,-3.9388,-3.9388,-3.9388,-3.9388,-3.9388,-3.9388,-3.9514,-3.9738,-3.9768,-3.9858,-4.0098,-4.0502,-4.0935,-4.1354,-4.1632,-4.1961,-4.2381,-4.2177,-4.2581,-4.3618,-4.3045,-4.303,-4.3648,-4.3409,-4.329,-4.329,-4.329,-4.329]},{"header":{"parameterUnit":"m.s-1","parameterCategory":1,"la1":30.6,"la2":29.2853,"lo1":-89.7004,"lo2":-87.6739,"dy":0.0162,"dx":0.0183,"nx":112,"ny":82,"refTime":"2024-04-17T12:00:00:Z","depth":0,"parameterNumber":3,"parameterNumberName":"V-component_of_WINDS"},"data":[0.0,0.0,0.0,0.0,0.0,0.0,0.0,0.0,0.0,0.0,0.0,0.0,0.0,0.0,0.0,0.0,0.0,0.0,0.0,0.0,0.0,0.0,0.0,0.0,0.0,0.0,0.0,0.0,0.0,0.0,0.0,0.0,0.0,0.0,0.0,0.0,0.0,0.0,0.0,0.0,0.0,0.0,0.0,0.0,0.0,0.0,0.0,0.0,0.0,0.0,0.0,0.0,0.0,0.0,0.0,0.0,0.0,0.0,0.0,0.0,0.0,0.0,0.0,0.0,0.0,0.0,0.0,0.0,0.0,0.0,0.0,0.0,0.0,0.0,0.0,0.0,0.0,0.0,0.0,0.0,0.0,0.0,0.0,0.0,0.0,0.0,0.0,0.0,0.0,0.0,0.8343,0.8801,0.8327,0.728,0.5646,0.414,0.2436,0.0496,0.0,0.0,0.0,0.0,0.0,0.0,0.0,0.0,0.0,0.0,0.0,0.0,0.0,0.0,0.0,0.0,0.0,0.0,0.0,0.0,0.0,0.0,0.0,0.0,0.0,0.0,0.0,0.0,0.0,0.0,0.0,0.0,0.0,0.0,0.0,0.0,0.0,0.0,0.0,0.0,0.0,0.0,0.0,0.0,0.0,0.0,0.0,0.0,0.0,0.0,0.0,0.0,0.0,0.0,0.0,0.0,0.0,0.0,0.0,0.0,0.0,0.0,0.0,0.0,0.0,0.0,0.0,0.0,0.0,0.0,0.0,0.0,0.0,0.0,0.0,0.0,0.0,0.0,0.0,0.0,0.0,0.0,0.0,0.0,0.0,0.0,0.0,0.0,0.0,0.0,0.0,0.0,0.0,0.0,0.0,0.0,0.0,0.0,0.0,0.0,0.0,0.0,0.0,0.0,0.8157,0.9347,0.948,0.8865,0.7363,0.6862,0.5338,0.2298,0.0,0.0,0.0,0.0,0.0,0.0,0.0,0.0,0.0,0.0,0.0,0.0,0.0,0.0,0.0,0.0,0.0,0.0,0.0,0.0,0.0,0.0,0.0,0.0,0.0,0.0,0.0,0.0,0.0,0.0,0.0,0.0,0.0,0.0,0.0,0.0,0.0,0.0,0.0,0.0,0.0,0.0,0.0,0.0,0.0,0.0,0.0,0.0,0.0,0.0,0.0,0.0,0.0,0.0,0.0,0.0,0.0,0.0,0.0,0.0,0.0,0.0,0.0,0.0,0.0,0.0,0.0,0.0,0.0,0.0,0.0,0.0,0.0,0.0,0.0,0.0,0.0,0.0,0.0,0.0,0.0,0.0,0.0,0.0,0.0,0.0,0.0,0.0,0.0,0.0,0.0,0.0,0.0,0.0,0.0,0.0,0.0,0.0,0.0,0.0,0.0,0.0,0.0,0.8221,0.8798,0.92,0.9449,0.8913,0.7329,0.7151,0.6036,0.3454,0.255,0.0,0.0,0.0,0.0,0.0,0.0,0.0,0.0,0.0,0.0,0.0,0.0,0.0,0.0,0.0,0.0,0.0,0.0,0.0,0.0,0.0,0.0,0.0,0.0,0.0,0.0,0.0,0.0,0.0,0.0,0.0,0.0,0.0,0.0,0.0,0.0,0.0,0.0,0.0,0.0,0.0,0.0,0.0,0.0,0.0,0.0,0.0,0.0,0.0,0.0,0.0,0.0,0.0,0.0,0.0,0.0,0.0,0.0,0.0,0.0,0.0,0.0,0.0,0.0,0.0,0.0,0.0,0.0,0.0,0.0,0.0,0.0,0.0,0.0,0.0,0.0,0.0,0.0,0.0,0.0,0.0,0.0,0.0,0.0,0.0,0.0,0.0,0.0,0.0,0.0,0.0,0.0,0.0,0.0,0.0,0.0,0.0,0.0,0.0,0.0,0.0,0.0,0.8898,0.9482,0.8927,0.9144,0.8765,0.7569,0.7325,0.6426,0.4604,0.4227,0.0,0.0,0.0,0.0,0.0,0.0,0.0,0.0,0.0,0.0,0.0,0.0,0.0,0.0,0.0,0.0,0.0,0.0,0.0,0.0,0.0,0.0,0.0,0.0,0.0,0.0,0.0,0.0,0.0,0.0,0.0,0.0,0.0,0.0,0.0,0.0,0.0,0.0,0.0,0.0,0.0,0.0,0.0,0.0,0.0,0.0,0.0,0.0,0.0,0.0,0.0,0.0,0.0,0.0,0.0,0.0,0.0,0.0,0.0,0.0,0.0,0.0,0.0,0.0,0.0,0.0,0.0,0.0,0.0,0.0,0.0,0.0,0.0,0.0,0.0,0.0,0.0,0.0,0.0,0.0,0.0,0.0,0.0,0.0,0.0,0.0,0.0,0.0,0.0,0.0,0.0,0.0,0.0,0.0,0.0,0.0,0.0,0.0,0.0,0.0,0.0,0.0,0.8821,0.9575,0.8982,0.8902,0.8966,0.9041,0.8545,0.7525,0.5948,0.5332,0.0,0.0,0.0,0.0,0.0,0.0,0.0,0.0,0.0,0.0,0.0,0.0,0.0,0.0,0.0,0.0,0.0,0.0,0.0,0.0,0.0,0.0,0.0,0.0,0.0,0.0,0.0,0.0,0.0,0.0,0.0,0.0,0.0,0.0,0.0,0.0,0.0,0.0,0.0,0.0,0.0,0.0,0.0,0.0,0.0,0.0,0.0,0.0,0.0,0.0,0.0,0.0,0.0,0.0,0.0,0.0,0.0,0.0,0.0,0.0,0.0,0.0,0.0,0.0,0.0,0.0,0.0,0.0,0.0,0.0,0.0,0.0,0.0,0.0,0.0,0.0,0.0,0.0,0.0,0.0,0.0,0.0,0.0,0.0,0.0,0.0,0.0,0.0,0.0,0.0,0.0,0.0,0.0,0.0,0.0,0.0,0.0,0.0,0.0,0.0,0.0,0.0,1.074,1.1477,1.103,1.1054,1.1106,1.1172,1.0971,1.0083,0.8292,0.0,0.0,0.0,0.0,0.0,0.0,0.0,0.0,0.0,0.0,0.0,0.0,0.0,0.0,0.0,0.0,0.0,0.0,0.0,0.0,0.0,0.0,0.0,0.0,0.0,0.0,0.0,0.0,0.0,0.0,0.0,0.0,0.0,0.0,0.0,0.0,0.0,0.0,0.0,0.0,0.0,0.0,0.0,0.0,0.0,0.0,0.0,0.0,0.0,0.0,0.0,0.0,0.0,0.0,0.0,0.0,0.0,0.0,0.0,0.0,0.0,0.0,0.0,0.0,0.0,0.0,0.0,0.0,0.0,0.0,0.0,0.0,0.0,0.0,0.0,0.0,0.0,0.0,0.0,0.0,0.0,0.0,0.0,0.0,0.0,0.0,0.0,0.0,0.0,0.0,0.0,0.0,0.0,0.0,0.0,0.0,0.0,0.0,0.0,0.0,0.0,0.0,1.0578,1.1943,1.2705,1.2247,1.2304,1.2348,1.2348,1.2139,1.124,0.9561,0.0,0.0,0.0,0.0,0.0,0.0,0.0,0.0,0.0,0.0,0.0,0.0,0.0,0.0,0.0,0.0,0.0,0.0,0.0,0.0,0.0,0.0,0.0,0.0,0.0,0.0,0.0,0.0,0.0,0.0,0.0,0.0,0.0,0.0,0.0,0.0,0.0,0.0,0.0,0.0,0.0,0.0,0.0,0.0,0.0,0.0,0.0,0.0,0.0,0.0,0.0,0.0,0.0,0.0,0.0,0.0,0.0,0.0,0.0,0.0,0.0,0.0,0.0,0.0,0.0,0.0,0.0,0.0,0.0,0.0,0.0,0.0,0.0,0.0,0.0,0.0,0.0,0.0,0.0,0.0,0.0,0.0,0.0,0.0,0.0,0.0,0.0,0.0,0.0,0.0,0.0,0.0,0.0,0.0,0.0,0.0,0.0,0.0,0.0,0.0,0.0,0.0,1.0727,1.2026,1.2839,1.2292,1.2264,1.2264,1.2264,1.1548,1.0637,0.0,0.0,0.0,0.0,0.0,0.0,0.0,0.0,0.0,0.0,0.0,0.0,0.0,0.0,0.0,0.0,0.0,0.0,0.0,0.0,0.0,0.0,0.0,0.0,0.0,0.0,0.0,0.0,0.0,0.0,0.0,0.0,0.0,0.0,0.0,0.0,0.0,0.0,0.0,0.0,0.0,0.0,0.0,0.0,0.0,0.0,0.0,0.0,0.0,0.0,0.0,0.0,0.0,0.0,0.0,0.0,0.0,0.0,0.0,0.0,0.0,0.0,0.0,0.0,0.0,0.0,0.0,0.0,0.0,0.0,0.0,0.0,0.0,0.0,0.0,0.0,0.0,0.0,0.0,0.0,0.0,0.0,0.0,0.0,0.0,0.0,0.0,0.0,0.0,0.0,0.0,0.0,0.0,0.0,0.0,0.0,0.0,0.0,0.0,0.0,0.0,0.0,0.0,1.2904,1.366,1.4244,1.4694,1.4732,1.4732,1.4732,1.4182,1.3284,1.1982,0.0,0.0,0.0,0.0,0.0,0.0,0.0,0.0,0.0,0.0,0.0,0.0,0.0,0.0,0.0,0.0,0.0,0.0,0.0,0.0,0.0,0.0,0.0,0.0,0.0,0.0,0.0,0.0,0.0,0.0,0.0,0.0,0.0,0.0,0.0,0.0,0.0,0.0,0.0,0.0,0.0,0.0,0.0,0.0,0.0,0.0,0.0,0.0,0.0,0.0,0.0,0.0,0.0,0.0,0.0,0.0,0.0,0.0,0.0,0.0,0.0,0.0,0.0,0.0,0.0,0.0,0.0,0.0,0.0,0.0,0.0,0.0,0.0,0.0,0.0,0.0,0.0,0.0,0.0,0.0,0.0,0.0,0.0,0.0,0.0,0.0,0.0,0.0,0.0,0.0,0.0,0.0,0.0,0.0,0.0,0.0,0.0,0.0,0.0,0.0,0.0,0.0,1.3725,1.4269,1.481,1.5578,1.5758,1.6015,1.6527,1.6008,1.5014,1.3571,0.0,0.0,0.0,0.0,0.0,0.0,0.0,0.0,0.0,0.0,0.0,0.0,0.0,0.0,0.0,0.0,0.0,0.0,0.0,0.0,0.0,0.0,0.0,0.0,0.0,0.0,0.0,0.0,0.0,0.0,0.0,0.0,0.0,0.0,0.0,0.0,0.0,0.0,0.0,0.0,0.0,0.0,0.0,0.0,0.0,0.0,0.0,0.0,0.0,0.0,0.0,0.0,0.0,0.0,0.0,0.0,0.0,0.0,0.0,0.0,0.0,0.0,0.0,0.0,0.0,0.0,0.0,0.0,0.0,0.0,0.0,0.0,0.0,0.0,0.0,0.0,0.0,0.0,0.0,0.0,0.0,0.0,0.0,0.0,0.0,0.0,0.0,0.0,0.0,0.0,0.0,0.0,0.0,0.0,0.0,0.0,0.0,0.0,0.0,0.0,0.0,0.0,1.352,1.4093,1.4716,1.5331,1.5658,1.6339,1.7598,1.7026,1.6002,1.4636,0.0,0.0,0.0,0.0,0.0,0.0,0.0,0.0,0.0,0.0,0.0,0.0,0.0,0.0,0.0,0.0,0.0,0.0,0.0,0.0,0.0,0.0,0.0,0.0,0.0,0.0,0.0,0.0,0.0,0.0,0.0,0.0,0.0,0.0,0.0,0.0,0.0,0.0,0.0,0.0,0.0,0.0,0.0,0.0,0.0,0.0,0.0,0.0,0.0,0.0,0.0,0.0,0.0,0.0,0.0,0.0,0.0,0.0,0.0,0.0,1.854,1.8263,0.0,0.0,0.0,0.0,0.0,0.0,0.0,0.0,0.0,0.0,0.0,0.0,0.0,0.0,0.0,0.0,0.0,0.0,0.0,0.0,0.0,0.0,0.0,0.0,0.0,0.0,0.0,0.0,0.0,0.0,0.0,0.0,0.0,0.0,0.0,0.0,0.0,0.0,0.0,0.0,1.3493,1.3955,1.4489,1.5311,1.5658,1.6339,1.7598,1.7109,1.6843,1.702,1.6031,0.0,0.0,0.0,0.0,0.0,0.0,0.0,0.0,0.0,0.0,0.0,0.0,0.0,0.0,0.0,0.0,0.0,0.0,0.0,0.0,0.0,0.0,0.0,0.0,0.0,0.0,0.0,0.0,0.0,0.0,0.0,0.0,0.0,0.0,0.0,0.0,0.0,0.0,0.0,0.0,0.0,0.0,0.0,0.0,0.0,0.0,0.0,0.0,0.0,0.0,0.0,0.0,0.0,0.0,0.0,0.0,0.0,0.0,0.0,2.1109,2.0002,0.0,0.0,0.0,0.0,0.0,0.0,0.0,0.0,0.0,0.0,0.0,0.0,0.0,0.0,0.0,0.0,0.0,0.0,0.0,0.0,0.0,0.0,0.0,0.0,0.0,0.0,0.0,0.0,0.0,0.0,0.0,0.0,0.0,0.0,0.0,0.0,0.0,0.0,0.0,0.0,1.3568,1.4303,1.5169,1.6182,1.6525,1.7377,1.8986,1.8842,1.8539,1.8267,1.7674,0.0,0.0,0.0,0.0,0.0,0.0,0.0,0.0,0.0,0.0,0.0,0.0,0.0,0.0,0.0,0.0,0.0,0.0,0.0,0.0,0.0,0.0,0.0,0.0,0.0,0.0,0.0,0.0,0.0,0.0,0.0,0.0,0.0,0.0,0.0,0.0,0.0,0.0,0.0,0.0,0.0,0.0,0.0,0.0,0.0,0.0,0.0,0.0,0.0,0.0,0.0,0.0,0.0,2.6836,2.7041,2.7236,2.7236,2.7236,2.7055,2.3583,2.1698,2.1011,2.0093,0.0,0.0,0.0,0.0,0.0,0.0,0.0,0.0,0.0,0.0,0.0,0.0,0.0,0.0,0.0,0.0,0.0,0.0,0.0,0.0,0.0,0.0,2.0105,1.993,2.092,2.1094,1.8135,0.0,0.0,0.0,0.0,0.0,0.0,0.0,0.0,0.0,0.0,0.0,1.3926,1.4976,1.6156,1.7279,1.7705,1.868,2.0614,2.0815,2.0343,1.9223,1.9215,1.8078,0.0,0.0,0.0,0.0,0.0,0.0,0.0,0.0,0.0,0.0,0.0,0.0,0.0,0.0,0.0,0.0,0.0,0.0,0.0,0.0,0.0,0.0,0.0,0.0,0.0,0.0,0.0,0.0,0.0,0.0,0.0,0.0,2.6196,2.654,0.0,0.0,0.0,0.0,0.0,0.0,0.0,0.0,0.0,0.0,0.0,0.0,0.0,2.6328,2.6758,2.792,2.8164,2.7562,2.8677,2.8789,2.8125,2.8125,2.8125,2.8115,2.7554,0.0,2.4813,2.2893,0.0,0.0,0.0,0.0,0.0,0.0,0.0,0.0,0.0,0.0,0.0,0.0,0.0,0.0,0.0,0.0,0.0,0.0,0.0,0.0,0.0,0.0,2.0189,2.0824,2.144,2.1646,2.0801,1.9931,1.8797,1.7055,1.6162,1.5275,0.0,0.0,0.0,0.0,0.0,0.0,1.5189,1.6041,1.6985,1.8108,1.8503,1.9348,2.106,2.1221,2.1139,2.0893,2.0585,1.9478,1.7393,1.6332,0.0,0.0,0.0,0.0,0.0,0.0,0.0,0.0,0.0,0.0,0.0,0.0,0.0,0.0,0.0,0.0,0.0,0.0,0.0,0.0,0.0,0.0,0.0,0.0,0.0,0.0,0.0,0.0,0.0,2.5729,2.7104,2.6251,2.7451,2.7888,0.0,0.0,0.0,0.0,0.0,0.0,0.0,0.0,0.0,2.7432,2.793,2.8379,2.8799,2.9619,2.9844,2.9482,3.0049,3.0117,2.9756,2.9756,2.9756,2.9726,2.9228,2.8447,2.735,2.5204,2.3739,2.2608,0.0,0.0,0.0,0.0,1.9468,2.0263,2.0438,2.0846,2.1167,2.0713,0.0,0.0,0.0,0.0,0.0,0.0,0.0,1.8752,1.9222,2.0551,2.176,2.1884,2.2275,2.2539,2.2301,2.154,2.0423,1.89,1.8483,1.7818,1.5965,1.5095,0.0,0.0,0.0,1.5552,1.6127,1.7147,1.8195,1.9211,1.9411,2.0058,2.1522,2.1627,2.1516,2.1199,2.081,1.9985,1.8646,1.7845,1.6915,0.0,0.0,0.0,0.0,0.0,0.0,0.0,0.0,0.0,0.0,0.0,0.0,0.0,0.0,0.0,0.0,0.0,0.0,0.0,0.0,0.0,0.0,0.0,0.0,0.0,0.0,0.0,0.0,2.6831,2.8318,2.6619,2.9284,3.0399,0.0,0.0,0.0,0.0,0.0,0.0,2.9439,2.9074,2.8969,2.9313,2.9795,3.0273,3.0693,3.1045,3.1162,3.1055,3.1055,3.0996,3.0889,3.0889,3.083,3.0674,3.0019,2.9424,2.876,2.6738,2.5264,2.4108,2.245,2.1565,2.1204,2.0669,2.1177,2.2121,2.2381,2.2905,2.3304,2.238,2.1365,2.0355,1.9412,0.0,0.0,0.0,0.0,2.0328,2.0338,2.1646,2.2886,2.2682,2.2789,2.2935,2.2935,2.2402,2.1562,2.0459,2.0244,1.9619,1.7542,1.6594,0.0,1.5444,1.6149,1.6848,1.7165,1.8237,1.9341,2.0228,2.0319,2.0749,2.1792,2.1885,2.1699,2.122,2.0918,2.0341,1.9326,1.8867,1.7868,1.63,0.0,0.0,0.0,0.0,0.0,0.0,0.0,0.0,0.0,0.0,0.0,0.0,0.0,0.0,0.0,0.0,0.0,0.0,0.0,0.0,0.0,0.0,0.0,0.0,0.0,0.0,0.0,0.0,0.0,2.9361,3.2779,0.0,0.0,0.0,0.0,3.1997,3.251,3.2681,3.2386,3.1981,3.1834,3.1984,3.1611,3.1631,3.206,3.209,3.1894,3.1484,3.1484,3.1279,3.0889,3.0889,3.0644,3.0234,3.0185,2.9687,2.8789,2.707,2.6074,2.5499,2.4575,2.4215,2.4195,2.4169,2.3936,2.367,2.3689,2.3218,2.2705,2.3452,2.2662,2.1557,2.2088,2.0748,0.0,0.0,2.1208,2.0948,2.2049,2.2448,2.2637,2.2974,2.2779,2.2549,2.2549,2.2197,2.1748,2.122,2.0185,1.8899,1.7442,0.0,1.6414,1.5952,1.6622,1.7503,1.8399,1.9277,2.0168,2.1052,2.1139,2.1354,2.1846,2.1885,2.1699,2.122,2.1171,2.0625,1.9336,1.8867,1.8208,1.7327,1.6021,0.0,0.0,0.0,0.0,0.0,0.0,0.0,0.0,0.0,0.0,0.0,0.0,0.0,0.0,0.0,0.0,0.0,0.0,0.0,0.0,0.0,0.0,0.0,0.0,0.0,0.0,0.0,0.0,3.3838,3.7006,0.0,3.6701,3.6505,3.6673,3.7014,3.6987,3.7091,3.7366,3.6925,3.6677,3.6706,3.6456,3.6395,3.6567,3.6207,3.5671,3.4831,3.4831,3.3986,3.2311,3.2311,3.1563,3.0185,2.9912,2.9463,2.8809,2.7383,2.6543,2.6103,2.5498,2.4865,2.4414,2.4414,2.4502,2.457,2.4287,2.3994,2.3652,2.3135,2.2592,2.2122,2.21,2.1545,2.1034,2.1707,2.1681,2.1635,2.2314,2.2314,2.2217,2.2637,2.2412,2.2109,2.2109,2.1768,2.1416,2.122,2.0625,1.9808,1.8724,1.7957,1.7444,1.7267,1.7505,1.7938,1.8533,1.9348,2.0039,2.0313,2.0342,2.0557,2.1036,2.0527,2.0146,1.999,1.9679,1.9202,1.8496,1.8057,1.7559,1.6973,1.6681,1.6427,0.0,0.0,0.0,0.0,0.0,0.0,0.0,0.0,0.0,0.0,0.0,0.0,0.0,0.0,0.0,0.0,0.0,0.0,0.0,0.0,0.0,0.0,0.0,0.0,0.0,3.3595,3.6807,3.6513,3.9968,4.1794,4.0189,4.0717,4.1178,4.1342,4.1262,4.1163,4.0981,4.0513,3.9988,3.937,3.9152,3.8934,3.8705,3.8223,3.7504,3.6676,3.5994,3.5054,3.3789,3.2638,3.1604,3.0664,2.9744,2.9101,2.8633,2.7646,2.6982,2.6543,2.5918,2.5333,2.4816,2.4816,2.4853,2.4766,2.4189,2.3939,2.3803,2.2998,2.2682,2.2676,2.2393,2.2305,2.2305,2.2305,2.2305,2.2344,2.248,2.2305,2.2129,2.2266,2.1973,2.167,2.167,2.1318,2.1016,2.1016,2.0762,2.0331,1.9434,1.8818,1.8389,1.8242,1.8188,1.8379,1.8763,1.9346,1.9756,1.9902,1.9912,2.0029,2.0322,1.9999,1.9531,1.9092,1.8936,1.85,1.7832,1.7666,1.7445,1.7128,1.7483,1.7508,1.7247,0.0,0.0,0.0,0.0,0.0,0.0,0.0,0.0,0.0,0.0,0.0,0.0,0.0,0.0,0.0,0.0,0.0,0.0,0.0,0.0,0.0,0.0,0.0,3.154,3.5297,3.7911,3.7344,4.1639,4.4079,4.2564,4.4292,4.5309,4.4744,4.5208,4.4806,4.3092,4.2615,4.1643,3.991,3.9404,3.8908,3.8365,3.78,3.7296,3.6848,3.4873,3.4399,3.5255,3.1922,3.0878,3.165,2.9783,2.8726,2.8262,2.7894,2.7412,2.6934,2.6035,2.5703,2.5693,2.5674,2.5109,2.4277,2.3403,2.311,2.3091,2.3091,2.3091,2.3091,2.3091,2.3091,2.3091,2.3091,2.3081,2.2984,2.2617,2.249,2.2373,2.1963,2.1533,2.1171,2.1171,2.0869,2.0605,2.0605,2.0605,2.0341,1.949,1.9297,1.9141,1.8666,1.8588,0.0,1.9209,1.9277,1.9443,1.9873,1.9912,1.9912,1.993,2.0292,2.0017,1.8688,1.9027,1.8693,1.7471,1.7772,1.8014,1.8025,1.835,1.8474,1.8377,0.0,0.0,0.0,0.0,0.0,0.0,0.0,0.0,0.0,0.0,0.0,0.0,0.0,0.0,0.0,0.0,0.0,0.0,0.0,0.0,0.0,3.3958,3.5949,3.5571,3.8713,4.1748,4.3544,4.5298,4.6577,4.6977,4.679,4.6615,4.6464,4.6225,4.5895,4.5375,4.4868,4.438,4.3938,4.2964,4.2391,4.2245,4.133,4.0599,4.0007,3.9068,3.784,3.625,3.5344,3.3534,3.1199,3.0646,2.9621,2.8262,2.7894,2.7412,2.6963,2.6416,2.6016,2.5645,2.5371,2.4697,2.3926,2.3691,2.3364,2.3091,2.3091,2.3091,2.3091,2.3091,2.3091,2.3091,2.3091,2.2877,2.2656,2.2539,2.2009,2.1512,2.1405,2.1074,2.0752,2.0752,2.0693,2.0605,2.0605,2.0605,2.0429,1.9834,1.9482,1.9141,1.8666,1.8344,1.834,1.8724,1.9092,1.9443,1.9873,1.9912,2.0046,2.0401,1.9843,1.9367,1.8985,1.8717,1.8276,1.7564,1.765,1.7972,1.8495,1.8792,1.9174,0.0,0.0,0.0,0.0,0.0,0.0,0.0,0.0,0.0,0.0,0.0,0.0,0.0,0.0,0.0,0.0,0.0,0.0,0.0,0.0,0.0,0.0,3.6835,3.8883,3.9832,4.1823,4.3966,4.6062,4.679,4.7468,4.8322,4.7832,4.7368,4.7093,4.6841,4.6552,4.6326,4.5999,4.5723,4.5497,4.4618,4.4028,4.3802,4.2484,4.1656,4.1275,3.9683,3.8439,3.7545,3.5335,3.3462,3.1897,3.1063,2.9811,2.8305,2.8493,2.795,2.6973,0.0,0.0,0.0,0.0,2.4365,2.3769,2.3584,2.3305,2.3091,2.3091,2.3091,2.3091,2.3091,2.3091,2.3062,2.2886,2.2705,2.2432,2.2029,2.157,2.1151,2.0996,2.0752,2.0605,2.0605,2.0605,2.0605,2.0605,2.0605,0.0,2.0225,1.9687,1.9141,1.8666,1.8247,1.8164,1.8549,1.8701,1.8916,1.9299,1.9348,1.962,2.0271,1.9962,0.0,0.0,0.0,1.8959,1.8254,1.8572,0.0,0.0,0.0,2.0551,2.0738,2.0914,0.0,0.0,1.9303,1.8866,0.0,0.0,0.0,0.0,0.0,0.0,0.0,0.0,0.0,0.0,0.0,0.0,0.0,0.0,0.0,0.0,3.9747,4.1605,4.3702,4.4468,4.5208,4.6276,4.6841,4.7343,4.7857,4.7908,4.7694,4.7118,4.7068,4.6891,4.6338,4.625,0.0,0.0,0.0,4.4229,4.3627,4.2108,4.125,4.1175,3.836,3.7645,3.863,3.3928,3.2285,3.2992,3.1264,2.966,2.8359,2.9188,2.8533,2.6973,2.6504,2.6016,2.544,2.4707,2.4121,2.3662,2.3227,0.0,0.0,2.3091,2.3091,2.3091,2.3091,2.3091,2.3013,2.2627,2.251,2.2314,2.1414,2.119,2.1083,2.0713,2.0605,2.0605,2.0605,2.0605,2.0605,2.0605,2.0605,2.0624,2.0691,1.9928,1.9228,1.8802,1.8383,1.8291,1.8627,1.8389,1.8301,1.8637,1.8772,0.0,1.9981,2.048,2.0354,1.9512,2.0242,2.031,1.9413,2.0122,2.0481,2.0354,2.1634,2.2071,2.1581,2.1644,2.1933,2.2351,2.0416,1.9476,0.0,0.0,0.0,0.0,0.0,0.0,0.0,0.0,0.0,0.0,0.0,0.0,0.0,0.0,0.0,3.971,4.1794,4.3627,4.497,4.5635,4.6225,4.6891,4.7067,4.7343,4.7857,4.7908,4.7694,4.7118,4.7068,4.6891,4.6338,4.5886,4.5384,4.4807,4.4254,4.3476,4.2539,4.1718,4.1062,4.0664,3.9613,0.0,3.8165,3.7108,3.5138,3.2426,3.2072,3.0514,2.8335,2.8512,2.7966,2.6943,2.6162,2.5333,2.4648,2.4482,2.3926,2.3208,2.312,2.3091,2.3091,2.3091,2.3091,2.3091,2.3091,2.3091,0.0,2.2627,2.251,2.2314,2.1414,2.119,2.1083,2.0713,2.0605,2.0605,2.0605,2.0605,2.0605,2.0605,2.0605,2.0757,2.1158,2.0444,1.9766,1.964,1.9316,1.9072,1.915,1.9092,1.9072,1.915,1.9778,2.0414,2.0907,2.1289,2.1557,2.166,2.1448,2.1227,2.1047,2.12,2.1285,2.1244,2.1934,2.2259,2.2159,2.2569,2.2844,2.2902,2.1366,2.0574,0.0,0.0,0.0,0.0,0.0,0.0,0.0,0.0,0.0,0.0,0.0,3.5968,3.7362,0.0,3.9898,4.1844,4.3313,4.4505,4.5372,4.5962,4.6414,4.669,4.6728,4.6828,4.7079,4.7104,4.7004,4.674,4.6728,4.6602,4.6326,4.605,4.5635,4.507,4.4242,4.3401,4.2627,4.148,4.0789,4.0513,3.9672,3.8981,3.8417,3.7159,3.518,3.2751,3.2443,3.0773,2.8262,2.7832,2.7402,2.6924,2.6025,2.5148,2.4394,2.418,2.3691,2.3091,2.3091,2.3091,2.3091,2.3091,2.3091,2.3091,2.3091,2.2945,2.2744,2.2314,2.2041,2.1678,2.1074,2.0898,2.084,2.0664,2.0605,2.0605,2.0605,2.0972,2.1298,2.1298,2.1707,2.2125,2.2399,2.2025,2.1397,2.0486,2.0348,2.0163,1.9682,1.9827,1.9957,1.9957,2.0356,2.0853,2.1491,2.1832,2.2193,2.2664,2.1945,2.1606,2.1895,2.1895,2.1895,2.1895,2.2447,2.2694,2.2694,2.297,2.3108,2.3065,2.2376,2.1542,0.0,0.0,0.0,0.0,0.0,0.0,0.0,3.4809,3.4964,3.6945,3.7437,3.8253,4.0563,4.1078,4.1806,4.3802,4.4505,4.4995,4.556,4.6037,4.6313,4.6313,4.6313,4.6313,4.6313,4.6401,4.6426,4.6326,4.6414,4.6426,4.6326,4.6213,4.5899,4.5334,4.4229,4.3325,4.2672,4.1241,4.0463,4.0337,3.9459,3.8919,3.8668,3.665,3.492,3.3396,3.2358,3.0669,2.8628,2.7705,2.7206,2.6924,2.6212,2.5439,2.4641,2.4124,2.3584,2.3091,2.3091,2.3091,2.3091,2.3091,2.3091,2.3091,2.3091,2.2857,2.2549,2.2129,2.1758,2.1346,2.0977,2.086,2.0899,2.1114,2.1153,2.1222,2.1455,2.2091,2.2583,2.2488,2.3093,2.3663,2.3793,2.3781,2.322,2.1553,2.1512,2.1329,2.0416,2.0533,2.0691,2.0602,2.0751,2.1195,2.2063,2.2325,2.2631,2.3083,2.2297,2.2008,2.2447,2.2472,2.2472,2.2472,2.2882,2.3108,2.3108,2.3108,2.3108,2.3108,2.3108,2.2279,3.4091,3.5108,3.6365,3.7653,3.708,3.6989,0.0,3.9799,3.9464,4.0521,4.1166,4.1798,4.2559,4.3099,4.384,4.5095,4.5347,4.5585,4.6137,4.6276,4.6313,4.6313,4.6313,4.6313,4.6313,4.6753,4.6841,4.6351,4.6765,4.6828,4.6338,4.5849,4.5309,4.4731,4.3639,4.2572,4.1476,4.0852,4.0275,3.9785,3.9659,3.9069,3.8103,3.7816,3.6456,3.4113,3.1604,3.0369,2.9995,2.9019,2.7975,2.6986,2.6843,2.6426,2.5799,2.4723,2.3793,2.3091,2.3091,2.3091,2.3091,2.3091,2.3091,2.3091,2.3091,2.3062,2.2935,2.2559,2.2412,2.2275,2.1846,2.1738,2.2005,2.2956,2.3186,2.3464,2.4459,2.477,2.4675,2.414,2.4126,2.4328,2.4754,2.4826,2.4446,2.3369,2.2825,2.2356,2.1841,2.1397,2.0995,2.0635,2.1302,2.2063,2.2884,2.2985,2.3045,2.3108,2.2995,2.2945,2.3007,2.3007,2.3007,2.3007,2.307,2.3108,2.3108,2.3108,2.3108,2.3108,2.3108,2.2628,3.6238,3.6872,3.7515,3.8739,3.9353,3.9927,4.1152,4.1456,4.1738,4.257,4.3212,4.3966,4.5171,4.5585,4.5999,4.6765,4.664,4.6527,4.6753,4.6238,4.5698,4.5372,4.5334,4.5585,4.625,4.6514,4.6552,4.6326,4.6225,4.6075,4.5849,4.5296,4.4581,4.3689,4.2898,4.1969,4.0877,4.0312,3.9923,3.9697,3.9697,3.9283,3.8492,3.8165,3.669,3.4276,3.2342,3.148,3.1353,2.9611,2.9042,2.9084,2.6982,2.6218,2.6017,2.4585,2.4088,2.4006,2.3343,2.3091,2.3091,2.3091,2.3091,2.3091,2.3091,2.3414,2.3716,2.3533,2.3288,2.3197,2.3697,2.2869,2.2359,2.4061,2.3971,2.3612,2.4101,2.5149,2.5654,2.4468,2.5201,2.6021,2.5889,2.5873,2.5721,2.5323,2.4749,2.4113,2.3386,2.3029,2.2619,2.2111,2.2372,2.272,2.3078,2.3108,2.3108,2.3108,2.3108,2.3108,2.3108,2.3108,2.3108,2.3108,2.3108,2.3108,2.3108,2.3108,2.3108,2.3108,2.3108,2.2914,3.682,3.7703,3.8694,4.0127,4.1753,4.2916,4.2532,4.3028,4.3594,4.3769,4.4116,4.4869,4.6401,4.6677,4.6903,4.7581,4.7255,4.6966,4.7055,4.6188,4.5141,4.4119,4.4236,4.4532,4.4975,4.551,4.5912,4.6075,4.556,4.5309,4.5485,4.4794,4.3966,4.3011,4.2296,4.1467,4.0526,3.9973,3.9697,3.9697,3.9697,3.932,3.8617,3.7877,3.6614,3.4872,3.3502,3.2764,3.246,3.04,2.9975,3.0392,2.7604,2.6804,2.6986,2.4982,2.427,2.4211,2.3387,2.3091,2.3091,2.3091,2.3299,2.3551,2.3551,2.3953,2.4429,2.476,2.4145,2.3637,2.477,2.3658,2.2709,2.4621,2.469,2.4398,2.4709,2.6209,2.7042,2.5576,2.6481,2.7281,2.6612,2.6499,2.6499,2.6499,2.6135,2.5539,2.4689,2.4238,2.3778,2.3158,2.3108,2.3108,2.3108,2.3108,2.3108,2.3108,2.3108,2.3108,2.3108,2.3108,2.3108,2.3108,2.3108,2.3108,2.3108,2.3108,2.3108,2.3108,2.3108,2.3108,3.44,3.6788,3.9644,4.2495,4.4684,4.5947,4.5177,4.5486,4.5592,4.4089,4.3815,4.4179,4.5334,4.5535,4.5886,4.6979,4.669,4.6527,4.7067,4.6188,4.4761,4.2687,4.3284,4.33,4.1883,4.3505,4.4907,4.5472,4.4982,4.4895,4.546,4.443,4.3564,4.2999,4.1932,4.1037,4.0526,3.9973,3.9697,3.9697,3.9697,3.9107,3.8002,3.6958,3.6395,3.6263,3.4933,3.3979,3.3314,3.1581,3.0499,2.9905,2.8889,2.8904,2.916,2.6401,2.4402,2.3135,2.3091,2.3091,2.3091,2.3091,2.3844,2.4745,2.4745,2.4777,2.502,2.6119,2.4819,2.3391,2.4501,2.3922,2.3347,2.4543,2.5628,2.6673,2.7756,2.8888,2.9377,2.8224,2.8035,2.7733,2.6688,2.6499,2.6499,2.6499,2.6474,2.626,2.5628,2.4657,2.3778,2.3158,2.3108,2.3108,2.3108,2.3108,2.3108,2.3108,2.3108,2.3108,2.3108,2.3108,2.3108,2.3108,2.3108,2.3108,2.3108,2.3108,2.3108,2.3108,2.3108,2.3108,3.3635,3.5899,3.843,4.0843,4.3919,4.5933,4.4234,4.5625,4.6511,4.3827,4.2961,4.2936,4.3677,4.3827,4.4305,4.5799,4.62,4.6502,4.6993,4.6188,4.4819,4.3012,4.338,4.3194,4.1571,4.3031,4.4305,4.4869,4.4405,4.4166,4.4355,4.3664,4.2836,4.1919,4.1476,4.0902,3.9986,3.9785,3.9697,3.9685,3.8931,3.8178,3.7437,3.6744,3.6405,3.6358,3.5918,3.5359,3.4664,3.2924,3.2356,3.2229,2.8833,2.7933,2.8348,2.6183,2.4904,2.4125,2.3343,2.3594,2.4211,2.4211,2.45,2.4787,2.4787,2.5336,2.6016,2.6389,2.6461,2.6532,2.6889,2.5619,2.45,2.5683,2.6224,2.6607,2.6964,2.8502,2.9361,2.7869,2.7841,2.7871,2.7165,2.6738,2.6499,2.6499,2.6499,2.616,2.5197,2.4738,2.4148,2.3208,2.3108,2.3108,2.3108,2.3108,2.3108,2.3108,2.3108,2.3108,2.3108,2.3108,2.3108,2.3108,2.3108,2.3108,2.3108,2.3108,2.3108,2.3108,2.3108,2.3108,3.4384,3.6418,3.8544,4.1182,4.3971,4.5565,4.3942,4.5099,4.5741,4.27,4.1656,4.1379,4.1743,4.1643,4.212,4.3991,4.443,4.5008,4.6351,4.5409,4.4081,4.2658,4.3105,4.2831,4.1009,4.2469,4.374,4.4279,4.3815,4.3589,4.379,4.3275,4.2472,4.1326,4.1288,4.0761,3.9697,3.9697,3.9597,3.9383,3.8253,3.7525,3.7161,3.6656,3.6304,3.6069,3.6069,3.5642,3.479,3.324,3.2735,3.2612,2.9193,2.8175,2.8422,2.6507,2.5647,2.5294,2.4553,2.4798,2.5336,2.4914,2.5083,2.542,2.542,2.5933,2.6648,2.7464,2.7626,2.7602,2.8004,2.6778,2.5588,2.6348,2.6801,2.7087,2.7087,2.8502,2.9361,2.7857,2.8027,2.8097,2.719,2.6738,2.6499,2.6499,2.6499,2.6097,2.4958,2.4788,2.4362,2.3221,2.3283,2.3333,2.312,2.3296,2.3333,2.312,2.3108,2.3108,2.3108,2.3108,2.3108,2.3108,2.3108,2.3108,2.3108,2.3108,2.3108,2.3108,2.3108,2.3108,3.641,3.8226,3.992,4.3279,4.4661,4.4989,4.4135,4.4072,4.3402,4.0826,3.9885,3.9471,3.9408,3.9044,3.951,4.1722,4.1706,4.2421,4.5146,4.4154,4.2848,4.187,4.2569,4.2345,4.0382,4.1891,4.3237,4.3765,4.3288,4.3212,4.3727,4.3263,4.2472,4.1326,4.1288,4.0761,3.9697,3.9672,3.9371,3.8856,3.7713,3.7174,3.7123,3.6619,3.6056,3.5533,3.5483,3.4868,3.3846,3.2701,3.1833,3.1124,3.0058,2.9599,2.9331,2.733,2.6595,2.6595,2.6648,2.6565,2.6224,2.521,2.563,2.6513,2.6565,2.6595,2.7017,2.9131,2.8251,2.6883,2.7844,2.7319,2.6565,2.6513,2.7331,2.8096,2.8096,2.8988,2.9478,2.8398,2.8561,2.8386,2.6813,2.6512,2.6499,2.6499,2.6499,2.6109,2.4963,2.4825,2.4412,2.3308,2.3715,2.3816,2.3246,2.3697,2.3791,2.3183,2.3145,2.3133,2.3108,2.3108,2.3108,2.3108,2.3108,2.312,2.3145,2.3145,2.3158,2.3195,2.3195,2.317,3.7242,3.8659,3.9854,4.1145,4.2706,4.3326,4.1312,4.1956,4.2077,3.8715,3.7274,3.6358,3.5529,3.6317,3.7775,3.9961,4.1919,4.3865,4.5824,4.5736,4.5066,4.3945,4.4423,4.4339,4.294,4.3274,4.3652,4.379,4.3288,4.3037,4.3187,4.3049,4.2472,4.1326,4.1288,4.0761,3.9697,3.9283,3.8793,3.8216,3.7513,3.6973,3.6593,3.6006,3.5893,3.6107,3.529,3.4731,3.443,3.3737,3.286,3.1821,3.032,2.9469,2.8946,2.8051,2.7683,2.7815,2.8661,2.7331,2.5336,2.588,2.6265,2.6637,2.7452,2.7683,2.7804,2.8386,2.874,2.8831,2.8267,2.7884,2.7493,2.6678,2.7331,2.8096,2.8096,2.8988,2.9704,2.9415,2.88,2.8047,2.7253,2.6763,2.6499,2.6499,2.6499,2.6235,2.5485,2.5398,2.5146,2.4424,2.4487,2.4525,2.4374,2.4499,2.4368,2.3816,2.3778,2.359,2.312,2.3108,2.3108,2.3108,2.3108,2.3321,2.3778,2.3778,2.3991,2.4362,2.4362,2.4136,3.8592,3.9572,4.0187,4.0739,4.165,4.1852,3.9512,3.9802,3.9638,3.642,3.5064,3.4198,3.3319,3.4123,3.5567,3.755,3.9772,4.2095,4.4505,4.4844,4.4882,4.4982,4.507,4.4857,4.4217,4.394,4.3802,4.3802,4.3288,4.2974,4.2974,4.2803,4.2221,4.1313,4.105,4.045,3.9346,3.8781,3.8203,3.7638,3.7086,3.6707,3.6405,3.6044,3.5805,3.5604,3.4989,3.4449,3.3972,3.3671,3.2692,3.1357,3.0746,2.9813,2.8809,2.8286,2.8096,2.8136,2.8291,2.7128,2.5714,2.683,2.7197,2.7319,2.7936,2.8096,2.8215,2.8727,2.9326,2.9663,2.9028,2.8858,2.8688,2.8079,2.841,2.8858,2.8858,2.9365,2.9792,2.9792,2.8875,2.8084,2.8009,2.7344,2.6851,2.6851,2.665,2.6373,2.6047,2.5749,2.5398,2.4838,2.4988,2.5071,2.4813,2.5034,2.4933,2.4393,2.4356,2.4217,2.386,2.3847,2.3847,2.3847,2.3847,2.3998,2.4356,2.4117,2.4155,2.4456,2.4456,2.4293,4.0149,4.0739,4.0827,4.1175,4.1225,4.0573,3.8316,3.7739,3.6897,3.4135,3.3181,3.2654,3.2001,3.2478,3.3558,3.532,3.7048,3.9283,4.2622,4.315,4.3765,4.5309,4.5108,4.4857,4.4857,4.4279,4.3915,4.3915,4.3263,4.2873,4.2873,4.2476,4.1869,4.12,4.0701,3.991,3.8932,3.8304,3.7726,3.7174,3.6669,3.6405,3.6405,3.6329,3.5768,3.4926,3.4713,3.411,3.3282,3.3174,3.2111,3.0596,3.1179,3.0404,2.8901,2.8475,2.8347,2.8176,2.725,2.6935,2.7058,2.7855,2.8096,2.8136,2.8295,2.8347,2.8518,2.9534,2.9792,2.9792,2.9792,2.9792,2.9792,2.9792,2.9792,2.9792,2.9792,2.9792,2.9792,2.9792,2.8938,2.836,2.8813,2.8072,2.7394,2.7394,2.7014,2.6688,2.6612,2.6097,2.5536,2.5096,2.5435,2.5523,2.5084,2.5448,2.5485,2.4926,2.4888,2.4863,2.4788,2.4788,2.4788,2.4788,2.4788,2.4825,2.4888,2.4443,2.4205,2.4205,2.428,2.4243,4.1392,4.1923,4.1781,4.1376,4.099,3.9961,3.7287,3.6273,3.5144,3.2403,3.175,3.1386,3.0394,3.1386,3.3206,3.5805,3.7626,3.9885,4.3187,4.4053,4.4631,4.5397,4.5799,4.6024,4.6024,4.5083,4.448,4.448,4.3124,4.2351,4.2351,4.2263,4.1693,4.0689,4.0124,3.9534,3.8932,3.8304,3.7726,3.7174,3.6669,3.6405,3.6392,3.5893,3.583,3.6053,3.4638,3.4198,3.4361,3.3458,3.2381,3.1265,3.1342,3.0663,2.9632,2.9532,2.9495,2.9495,2.9287,2.9209,2.9079,2.8347,2.8096,2.8267,2.9236,2.9495,2.9534,2.9753,2.9792,2.9792,2.9792,2.9792,2.9792,2.9792,2.9792,2.9792,2.9792,2.9792,2.9792,2.9792,2.9252,2.8775,2.8875,2.8398,2.7959,2.7959,2.7883,2.7657,2.7241,2.6688,2.6311,2.6223,2.6285,2.6311,2.6223,2.6298,2.6097,2.5498,2.546,2.5272,2.4813,2.4788,2.4788,2.4788,2.4788,2.5034,2.546,2.5372,2.5322,2.5322,2.5845,2.5548,4.1835,4.2213,4.2087,4.148,4.0874,3.9647,3.6295,3.5102,3.3909,3.1135,3.0557,3.0394,2.988,3.0884,3.2315,3.3935,3.5617,3.7776,4.0802,4.1957,4.3011,4.4443,4.4844,4.5121,4.5409,4.443,4.3878,4.4166,4.2924,4.2213,4.2213,4.1618,4.0927,4.0111,3.9835,3.9283,3.8429,3.814,3.7588,3.6807,3.6531,3.6405,3.6405,3.6094,3.5793,3.5466,3.4675,3.4161,3.3822,3.3294,3.2416,3.1386,3.1386,3.0733,2.9792,2.9792,2.9792,2.9792,2.9792,2.9792,2.9702,2.9145,2.8976,2.9106,2.9624,2.9792,2.9792,2.9792,2.9792,2.9792,2.9792,2.9792,2.9792,2.9792,2.9792,2.9792,2.9792,2.9792,2.9792,2.9792,2.9566,2.9377,2.9377,2.89,2.8536,2.8536,2.8285,2.8009,2.7745,2.7482,2.7128,2.6549,2.6499,2.6499,2.6499,2.6499,2.6373,2.6097,2.6084,2.5971,2.5686,2.5674,2.5674,2.5674,2.5674,2.5799,2.6084,2.5737,2.5598,2.5598,2.5921,2.5724,4.1911,4.2288,4.2225,4.1451,4.0752,3.9207,3.5508,3.411,3.283,3.0319,2.9792,2.9792,2.9792,3.0482,3.1298,3.2089,3.3432,3.5378,3.8278,3.9735,4.1291,4.3376,4.3827,4.4154,4.4581,4.3727,4.3288,4.3601,4.2497,4.1861,4.1861,4.0877,4.0136,3.971,3.9584,3.9032,3.8015,3.7889,3.7337,3.6405,3.6405,3.6405,3.6405,3.6405,3.5818,3.4843,3.4731,3.4161,3.3244,3.3174,3.2478,3.1549,3.1436,3.0809,2.9955,2.9829,2.9792,2.9792,2.9792,2.9792,2.9792,2.9792,2.9792,2.9792,2.9792,2.9792,2.9792,2.9792,2.9792,2.9792,2.9792,2.9792,2.9792,2.9792,2.9792,2.9792,2.9792,2.9792,2.9792,2.9792,2.9792,2.9792,2.9792,2.9415,2.9076,2.9076,2.875,2.8423,2.8298,2.8285,2.7858,2.6788,2.6663,2.6625,2.6499,2.6499,2.6499,2.6499,2.6499,2.6499,2.6499,2.6499,2.6499,2.6499,2.6499,2.6499,2.6499,2.6034,2.5724,2.5598,2.5724,2.5711,4.1911,4.2577,4.2647,4.1539,4.0174,3.8266,3.5378,3.3495,3.1876,3.0143,2.9792,2.9792,2.9792,2.988,3.0432,3.1964,3.2792,3.4361,3.7626,3.9484,4.1141,4.2848,4.394,4.4568,4.4618,4.4079,4.3539,4.3087,4.1568,4.0664,4.0664,4.0099,3.9747,3.9697,3.9207,3.8642,3.8015,3.7513,3.7008,3.6405,3.6405,3.6405,3.6405,3.6405,3.6031,3.5395,3.4893,3.4374,3.3784,3.3282,3.2704,3.2089,3.1587,3.1035,3.0482,2.998,2.9792,2.9792,2.9792,2.9792,2.9792,2.9792,2.9792,2.9792,2.9792,2.9792,2.9792,2.9792,2.9792,2.9792,2.9792,2.9792,2.9792,2.9792,2.9792,2.9792,2.9792,2.9792,2.9792,2.9792,2.9792,2.9792,2.9792,2.9741,2.9716,2.9716,2.9679,2.9453,2.8888,2.8813,2.8436,2.7318,2.7241,2.704,2.6537,2.6499,2.6499,2.6499,2.6499,2.6499,2.6499,2.6499,2.6499,2.6499,2.6499,2.6499,2.6499,2.6436,2.6147,2.5598,2.6172,2.6135,4.0375,4.1317,4.1806,4.0987,3.9333,3.7312,3.5203,3.3156,3.1348,3.0068,2.9792,2.9792,2.9792,2.9792,3.0005,3.0645,3.0947,3.1901,3.4198,3.568,3.7525,4.0187,4.148,4.2409,4.3074,4.2936,4.2446,4.1555,4.089,4.0375,4.0036,3.9823,3.9697,3.9697,3.9157,3.8592,3.8015,3.7462,3.6958,3.6405,3.6405,3.6405,3.6405,3.6019,3.5567,3.4969,3.4462,3.3909,3.3382,3.3212,3.2729,3.2152,3.1599,3.1072,3.0557,2.9993,2.9792,2.9792,2.9792,2.9792,2.9792,2.9792,2.9792,2.9792,2.9792,2.9792,2.9792,2.9792,2.9792,2.9792,2.9792,2.9792,2.9792,2.9792,2.9792,2.9792,2.9792,2.9792,2.9792,2.9792,2.9792,2.9792,2.9792,2.9792,2.9792,2.9792,2.9792,2.9704,2.9478,2.9101,2.8599,2.7858,2.7482,2.709,2.6549,2.6499,2.6499,2.6499,2.6499,2.6499,2.6499,2.6499,2.6499,2.6499,2.6499,2.6499,2.6499,2.6499,2.6373,2.616,2.6386,2.6373,3.7568,3.9111,4.0302,3.9584,3.8141,3.6508,3.4864,3.2754,3.0896,2.998,2.9792,2.9792,2.9792,2.9792,2.9792,2.9792,2.993,3.0608,3.224,3.3432,3.519,3.804,3.9207,4.0212,4.137,4.1622,4.1354,4.0576,4.0362,4.0111,3.9722,3.9534,3.9446,3.9446,3.8906,3.8341,3.7764,3.7211,3.6795,3.6405,3.6405,3.6329,3.6107,3.5671,3.5107,3.4462,3.4073,3.3583,3.3124,3.3124,3.2729,3.2177,3.1788,3.1223,3.0583,3.0344,3.0068,2.9842,3.0156,3.0068,2.9817,2.998,2.993,2.9792,2.9792,2.9792,2.9792,2.9792,2.9792,2.9792,2.9792,2.9792,2.9792,2.9792,2.9792,2.9792,2.9792,2.9792,2.9792,2.9792,2.9792,2.9792,2.9792,2.9792,2.9792,2.9792,2.9792,2.9792,2.9792,2.944,2.8925,2.8411,2.7858,2.7266,2.6549,2.6499,2.6499,2.6499,2.6714,2.6748,2.6499,2.6714,2.6748,2.6499,2.6499,2.6499,2.6499,2.6499,2.6499,2.6499,2.6499,2.6499,3.3322,3.5975,3.824,3.7111,3.6603,3.5977,3.4286,3.2202,3.047,2.9905,2.9792,2.9792,2.9792,2.9792,2.9792,2.9792,3.0256,3.1185,3.283,3.401,3.5328,3.701,3.7701,3.8479,3.9609,4.0212,4.0526,4.0513,4.0011,3.9697,3.9697,3.9182,3.8932,3.8932,3.8316,3.7751,3.7199,3.6694,3.6417,3.6405,3.6405,3.6081,3.5508,3.5495,3.4906,3.3909,3.3897,3.3583,3.3124,3.3124,3.2729,3.2215,3.2202,3.1562,3.067,3.1185,3.0696,2.9942,3.1009,3.0683,2.988,3.0432,3.0231,2.9792,2.9792,2.9792,2.9792,2.9792,2.9792,2.9792,2.9792,2.9792,2.9792,2.9792,2.9792,2.9792,2.9792,2.9792,2.9792,2.9792,2.9792,2.9792,2.9792,2.9792,2.9792,2.9792,2.9792,2.9792,2.9792,2.9779,2.9566,2.895,2.8423,2.7657,2.6587,2.6499,2.6499,2.6499,2.7263,2.7317,2.6521,2.7263,2.7317,2.6521,2.6499,2.6499,2.6499,2.6499,2.6499,2.6499,2.6499,2.6499,3.0751,3.2873,3.4654,3.3947,3.3658,3.3395,3.2867,3.1348,3.0005,2.9829,2.9792,2.9792,2.9792,2.9792,2.9917,3.0294,3.0507,3.0922,3.18,3.3219,3.4776,3.6458,3.8467,3.986,4.0224,4.0074,3.9961,3.9961,3.9798,3.9534,3.9145,3.8969,3.8919,3.8919,3.7939,3.7362,3.7186,3.6681,3.6169,3.5805,3.5805,3.5516,3.4919,3.4587,3.4223,3.3872,3.3508,3.3244,3.3124,3.3124,3.3011,3.2767,3.2365,3.1775,3.1173,3.1336,3.0947,3.0407,3.0746,3.0633,3.0319,3.0118,2.993,2.9792,2.9792,2.9792,2.9792,2.9792,2.9792,2.9792,2.9792,2.9792,2.9792,2.9792,2.9792,2.9792,2.9792,2.9792,2.9792,2.9792,2.9792,2.9792,2.9792,2.9792,2.9792,2.9792,2.9792,2.9792,2.9792,2.9453,2.8988,2.8423,2.7871,2.7442,2.709,2.7225,2.7317,2.7317,2.8117,2.8214,2.7351,2.7571,2.7317,2.6521,2.6499,2.6499,2.6499,2.6499,2.6499,2.6499,2.6499,2.6499,2.7445,2.946,3.1366,3.1272,3.1432,3.1635,3.1868,3.0809,2.9792,2.9792,2.9792,2.9792,2.9792,2.9792,2.9905,3.0244,3.0306,3.0557,3.1286,3.2654,3.4286,3.6169,3.8266,3.9572,3.9572,3.9647,3.9697,3.9697,3.9697,3.9459,3.8957,3.8668,3.8454,3.829,3.755,3.7086,3.6872,3.6581,3.6094,3.5495,3.5495,3.5107,3.4399,3.406,3.3784,3.3571,3.3275,3.3124,0.0,3.3124,3.2955,3.2742,3.2591,3.1951,3.1148,3.1549,3.111,3.0369,3.0771,3.0645,3.0281,3.0143,2.9967,2.9792,2.9792,2.9792,2.9792,2.9792,2.9792,2.9792,2.9792,2.9792,2.9792,2.9792,2.9792,2.9792,2.9792,2.9792,2.9792,2.9792,2.9792,2.9792,2.9792,2.9792,2.9792,2.9792,2.9792,2.9792,2.9792,2.9478,2.9038,2.8473,2.7921,2.7507,2.7341,2.7553,2.7835,2.8182,2.9002,2.8939,2.7769,2.8019,2.767,2.6521,2.6499,2.6499,2.6499,2.6499,2.6499,2.6499,2.6499,2.6499,0.0,2.6089,2.8592,2.9069,2.9822,3.055,3.1157,3.047,0.0,2.9779,2.9792,2.9792,2.9792,2.9792,2.9804,2.9842,2.988,3.0269,3.1298,3.2516,3.4155,3.6329,3.7475,3.8115,3.8078,3.9057,3.9672,3.9634,3.9634,3.9383,3.8831,3.8241,3.7701,3.7149,3.7123,3.6872,3.6417,3.6405,3.6069,3.5445,3.5445,3.4868,3.3847,3.3847,3.3558,3.3124,3.3124,3.3124,3.3124,3.3124,3.2754,3.2328,3.2817,3.2051,3.0796,3.1838,3.1235,3.0043,3.1047,3.0746,2.998,3.0419,3.0218,2.9792,2.9792,2.9792,2.9792,2.9792,2.9792,2.9792,2.9792,2.9792,2.9792,2.9792,2.9792,2.9792,2.9792,2.9792,2.9792,2.9792,2.9792,2.9792,2.9792,2.9792,2.9792,2.9792,2.9792,2.9792,2.9792,2.9792,2.9566,2.895,2.8436,2.792,2.7425,2.7587,2.8051,2.8876,2.9721,2.9442,2.7769,2.8492,2.8149,2.6521,2.6499,2.6499,2.6499,2.6499,2.6499,2.6499,2.6499,2.6499,2.4135,0.0,2.7053,2.7221,2.799,2.8946,0.0,2.9628,2.9252,2.9691,2.9792,2.9792,2.9792,2.9792,2.993,3.0357,3.0758,3.1248,3.1926,3.4085,3.6304,3.8114,3.8881,3.9132,3.8705,3.9283,3.9521,3.9094,3.9069,3.863,3.7626,3.745,3.7123,3.6619,3.6606,3.6543,3.6405,3.6405,3.5868,3.4868,3.4868,3.4336,3.3269,3.3269,3.3206,3.3124,3.3124,3.3124,3.3124,3.3124,3.3006,3.2842,3.2541,3.1913,3.1286,3.1964,3.17,3.1047,3.1298,3.1223,3.0896,3.0206,2.9892,2.9792,2.9792,2.9792,2.9792,2.9792,2.9792,2.9792,2.9792,2.9792,2.9792,2.9792,2.9792,2.9792,2.9792,2.9792,2.9792,2.9792,2.9792,2.9792,2.9792,2.9792,2.9792,2.9792,2.9792,2.9792,2.9792,2.9792,2.9566,2.895,2.8436,2.8147,2.8222,2.7885,2.7802,2.7986,2.8812,2.8812,2.7736,2.7887,2.755,2.6521,2.6499,2.6499,2.6499,2.6499,2.6499,2.6499,2.6499,2.6499,2.5264,2.5648,2.6201,2.6768,2.7326,2.8037,2.9125,2.895,2.8637,2.895,2.9227,2.9402,2.9402,2.9616,2.9892,3.0193,3.0683,3.1486,3.2805,3.4726,3.6609,3.8278,3.8969,3.9295,3.9245,3.9295,3.9195,3.8944,3.863,3.809,3.7236,3.7186,3.6923,3.643,3.6405,3.6405,3.6405,3.6119,3.5567,3.468,3.4462,3.3759,3.2692,3.2955,3.293,3.2692,3.2968,3.293,3.2679,3.2679,3.2528,3.2277,3.1951,3.1512,3.1072,3.1373,3.1135,3.0658,3.0658,3.0658,3.0557,2.998,2.9792,2.9792,2.9792,2.9792,2.9792,2.9792,2.9792,2.9792,2.9792,2.9792,2.9792,2.9792,2.9792,2.9792,2.9792,2.9792,2.9792,2.9792,2.9792,2.9792,2.9792,2.9792,2.9792,2.9792,2.9792,2.9792,2.9792,2.9792,2.9566,2.895,2.8436,2.8039,2.7958,2.7451,2.7484,2.8247,2.8748,2.862,2.7736,2.7703,2.7317,2.6521,2.6499,2.6499,2.6499,2.6499,2.6499,2.6499,2.6499,2.6499,2.66,2.6379,2.6324,2.7121,2.7375,2.7678,2.8562,2.8448,2.8134,2.821,2.8562,2.8913,2.9001,2.9465,2.9817,2.9905,3.052,3.1788,3.4073,3.5203,3.6335,3.7952,3.8642,3.912,3.9408,3.9094,3.8856,3.868,3.8165,3.7638,3.7086,3.6973,3.6722,3.6304,3.6204,3.6153,3.6153,3.573,3.5182,3.4587,3.4123,3.3357,3.2353,3.2855,3.2754,3.224,3.283,3.2704,3.2089,3.2177,3.1888,3.1386,3.1298,3.0997,3.062,3.062,3.0319,2.9917,2.9917,2.9867,2.9792,2.9792,2.9792,2.9792,2.9792,2.9792,2.9792,2.9792,2.9792,2.9792,2.9792,2.9792,2.9792,2.9792,2.9792,2.9792,2.9792,2.9792,2.9792,2.9792,2.9792,2.9792,2.9792,2.9792,2.9792,2.9792,2.9792,2.9792,2.9792,2.9792,2.9603,2.9076,2.8561,2.8047,2.757,2.6989,2.7224,2.866,2.8675,2.8298,2.7537,2.7517,2.7196,2.6499,2.6499,2.6499,2.6499,2.6575,2.6612,2.6625,2.6713,2.6751,2.7065,2.779,2.8225,2.7492,2.7653,2.8026,2.8198,2.816,2.8235,2.8662,2.8838,2.9076,2.9566,2.9729,2.9942,3.0407,3.1738,3.3633,3.6307,3.6822,3.7374,3.8592,3.9233,3.922,3.8354,3.863,3.8529,3.7513,3.7362,3.7073,3.6568,3.6044,3.5708,3.5621,3.5215,3.4977,3.4977,3.5307,3.4994,3.4022,3.3935,3.3558,3.2943,3.3074,3.2754,3.224,3.283,3.2478,3.1549,3.2026,3.1888,3.1348,3.0909,3.0683,3.062,3.062,3.0557,3.0495,3.0495,3.0181,2.9792,2.9792,2.9792,2.9792,2.9792,2.9792,2.9792,2.9792,2.9792,2.9792,2.9792,2.9792,2.9792,2.9792,2.9792,2.9792,2.9792,2.9792,2.9792,2.9792,2.9792,2.9792,2.9792,2.9792,2.9792,2.9792,2.9792,2.9792,2.9792,2.9792,2.9754,2.9666,2.9151,2.8725,2.865,2.7745,2.7296,2.7551,2.7139,2.6816,2.6679,2.6692,2.6624,2.6499,2.6499,2.6499,2.6499,2.6964,2.719,2.7203,2.7632,2.7846,2.6302,2.7406,2.8285,2.7482,2.816,2.8938,2.8624,2.8323,2.8185,2.8436,2.8687,2.8963,2.9277,3.0055,3.1135,3.2591,3.347,3.4613,3.6518,3.6998,3.7487,3.8304,3.863,3.8705,3.8492,3.8165,3.7739,3.7224,3.6958,3.6496,3.5943,3.5633,3.5357,3.5069,3.4806,3.4575,3.4274,3.4525,3.4399,3.3884,3.3282,3.2855,3.2604,3.2303,3.219,3.2227,3.2491,3.2139,3.1411,3.1662,3.1273,3.0507,3.0269,3.0168,3.0168,3.0168,3.0168,3.0168,3.0168,3.0005,2.9792,2.9792,2.9792,2.9792,2.9792,2.9792,2.9792,2.9792,2.9792,2.9792,2.9792,2.9792,2.9792,2.9792,2.9792,2.9792,2.9792,2.9792,2.9792,2.9792,2.9792,2.9792,2.9792,2.9792,2.9792,2.9792,2.9792,2.9792,2.9792,2.9792,2.9792,2.9792,2.9277,2.8888,2.8888,2.8185,2.7607,2.7341,2.6801,2.6625,2.6927,2.665,2.6499,2.6499,2.6499,2.6637,2.6939,2.719,2.7444,2.7733,2.7996,2.8109,2.5925,2.6929,2.7846,2.7544,2.8549,2.9515,2.9164,2.88,2.8574,2.8825,2.9214,2.9427,2.9302,3.0557,3.2227,3.4211,3.4851,3.5542,3.682,3.736,3.7739,3.8153,3.8203,3.8278,3.8454,3.7688,3.7123,3.6998,3.6483,3.5994,3.552,3.5257,3.4919,3.455,3.4399,3.4135,3.3709,3.3571,3.3508,3.3495,3.2629,3.2139,3.2001,3.1725,3.1738,3.2026,3.2152,3.1825,3.121,3.121,3.0645,2.9792,2.9792,2.9792,2.9792,2.9792,2.9792,2.9792,2.9792,2.9792,2.9792,2.9792,2.9792,2.9792,2.9792,2.9792,2.9792,2.9792,2.9792,2.9792,2.9792,2.9792,2.9792,2.9792,2.9792,2.9792,2.9792,2.9792,2.9792,2.9792,2.9792,2.9792,2.9792,2.9792,2.9792,2.9792,2.9792,2.9792,2.9792,2.9792,2.9792,2.9792,2.9402,2.9038,2.89,2.8499,2.8122,2.7695,2.7065,2.6939,2.7457,2.7102,2.6876,2.6876,2.6876,2.709,2.7469,2.7607,2.7883,2.8298,2.8436,2.8499,2.6879,2.7291,2.7457,2.7921,2.8524,2.9076,2.9616,2.9704,2.9955,3.0947,3.1185,3.1072,3.0583,3.1411,3.2554,3.3759,3.524,3.687,3.8504,3.873,3.8806,3.8856,3.8856,3.8466,3.74,3.7236,3.6973,3.6505,3.5918,3.5545,3.5495,3.4575,3.3997,3.396,3.3458,3.3224,3.3174,3.2604,3.2328,3.2328,3.2252,3.1938,3.1461,3.1938,3.1888,3.1486,3.1989,3.1625,3.067,3.067,3.0319,2.9792,2.9792,2.9792,2.9792,2.9792,2.9792,2.9792,2.9792,2.9792,2.9792,2.9792,2.9792,2.9792,2.9792,2.9792,2.9792,2.9792,2.9792,2.9792,2.9792,2.9792,2.9792,2.9792,2.9792,2.9792,2.9792,2.9792,2.9792,2.9792,2.9792,2.9792,2.9792,2.9792,2.9792,2.9792,2.9792,2.9792,2.9792,2.9792,2.9792,2.9792,2.9754,2.9515,2.8938,2.885,2.8813,2.8775,2.7808,2.7469,2.8021,2.8009,2.7984,2.7984,2.7984,2.8009,2.8047,2.8561,2.8787,2.885,2.9428,2.9679,2.5548,2.6502,2.7291,2.7153,2.8009,2.9126,3.0093,3.0557,3.0896,3.1311,3.1951,3.242,3.219,3.2478,3.3232,3.4643,3.573,3.687,3.814,3.8329,3.8329,3.8329,3.8027,3.7651,3.7224,3.6558,3.6081,3.5868,3.5295,3.4726,3.4048,3.3608,3.3219,3.2855,3.2315,3.219,3.2541,3.1976,3.1537,3.1223,3.1223,3.1273,3.1373,3.0922,3.0959,3.1386,3.1273,3.0944,3.062,3.062,3.0281,2.9792,2.9792,2.9792,2.9792,2.9792,2.9792,2.9792,2.9792,2.9792,2.9792,2.9792,2.9792,2.9792,2.9792,2.9792,2.9792,2.9792,2.9792,2.9792,2.9792,2.9792,2.9792,2.9792,2.9792,2.9792,2.9792,2.9792,2.9792,2.9792,2.9792,2.9792,2.9792,2.9792,2.9792,2.9792,2.9792,2.9792,2.9792,2.9792,2.9792,2.9792,2.9792,2.9704,2.9478,2.9139,2.9051,2.9453,2.8411,2.8047,2.8599,2.8285,2.8109,2.8109,2.8109,2.8273,2.8612,2.8787,2.9076,2.9478,2.9691,2.9792,2.4958,2.5887,2.6741,2.6751,2.7708,2.9013,3.0532,3.1273,3.18,3.2328,3.2641,3.2855,3.3043,3.293,3.3345,3.4969,3.5893,3.6795,3.7852,3.7852,3.7751,3.7751,3.7111,3.6659,3.6659,3.5784,3.5245,3.5245,3.4731,3.4135,3.337,3.2993,3.2616,3.2227,3.1675,3.1574,3.1951,3.1424,3.0972,3.062,3.0444,3.0545,3.0871,3.0306,3.0444,3.1122,3.0771,3.062,3.0608,3.0432,3.0131,2.9792,2.9792,2.9792,2.9792,2.9792,2.9792,2.9792,2.9792,2.9792,2.9792,2.9792,2.9792,2.9792,2.9792,2.9792,2.9792,2.9792,2.9792,2.9792,2.9792,2.9792,2.9792,2.9792,2.9792,2.9792,2.9792,2.9792,2.9792,2.9792,2.9792,2.9792,2.9792,2.9792,2.9792,2.9792,2.9792,2.9792,2.9792,2.9792,2.9792,2.9792,2.9792,2.9792,2.9792,2.9428,2.9365,2.9767,2.9063,2.8812,2.9189,2.8837,2.8637,2.8637,2.8637,2.8825,2.9164,2.9164,2.9402,2.9792,2.9792,2.9792,2.5573,2.5586,2.5862,2.6992,2.7695,2.8699,3.0884,3.1813,3.2679,3.4374,3.3395,3.239,3.298,3.2616,3.2767,3.4392,3.5617,3.6769,3.7814,3.75,3.7161,3.7161,3.6207,3.5495,3.5495,3.4994,3.4668,3.4668,3.4198,3.3884,3.3872,3.2805,3.219,3.219,3.1662,3.1373,3.1386,3.0871,3.0608,3.0608,3.0055,2.9792,2.9817,3.0357,3.0608,3.0608,3.0608,3.0608,3.057,3.0018,2.9792,2.9792,2.9792,2.9792,2.9792,2.9792,2.9792,2.9792,2.9792,2.9792,2.9792,2.9792,2.9792,2.9792,2.9792,2.9792,2.9792,2.9792,2.9792,2.9792,2.9792,2.9792,2.9792,2.9792,2.9792,2.9792,2.9792,2.9792,2.9792,2.9792,2.9792,2.9792,2.9792,2.9792,2.9792,2.9792,2.9792,2.9792,2.9792,2.9792,2.9792,2.9792,2.9792,2.9792,2.9792,2.9792,2.9792,2.9792,2.9792,2.9792,2.9792,2.9792,2.9792,2.9792,2.9792,2.9792,2.9792,2.9792,2.9792,2.9792,2.9792,2.9792,2.4469,2.5021,2.5674,2.6013,2.7708,2.9566,3.0608,3.1248,3.2215,3.4299,3.3709,3.2993,3.3558,3.3206,3.298,3.3483,3.4161,3.4876,3.5592,3.5554,3.5454,3.5454,3.5119,3.4919,3.4919,3.4462,3.4148,3.4148,3.3257,3.2541,3.2152,3.1474,3.1085,3.1085,3.0545,3.0457,3.0834,3.0306,3.0043,3.003,2.988,2.9792,2.9804,2.9967,3.0043,3.0043,3.0043,3.0043,3.0018,2.9867,2.9792,2.9792,2.9792,2.9792,2.9792,2.9792,2.9792,2.9792,2.9792,2.9792,2.9792,2.9792,2.9792,2.9792,2.9792,2.9792,2.9792,2.9792,2.9792,2.9792,2.9792,2.9792,2.9792,2.9792,2.9792,2.9792,2.9792,2.9792,2.9792,2.9792,2.9792,2.9792,2.9792,2.9792,2.9792,2.9792,2.9792,2.9792,2.9792,2.9792,2.9792,2.9792,2.9792,2.9792,2.9792,2.9792,2.9792,2.9792,2.9792,2.9792,2.9792,2.9792,2.9792,2.9792,2.9792,2.9792,2.9792,2.9792,2.9792,2.9792,2.9792,2.9792,2.411,2.4946,2.5749,2.6427,2.821,2.9993,3.0746,3.1687,3.283,3.4399,3.3847,3.3244,3.3796,3.3257,3.288,3.3332,3.3684,3.4085,3.4605,3.4537,3.4474,3.4655,3.4336,3.4161,3.4374,3.3897,3.3571,3.3571,3.2729,3.2064,3.1738,3.1022,3.062,3.062,3.008,2.9955,3.0281,2.9955,2.9792,2.9792,2.9792,2.9792,2.9792,2.9792,2.9792,2.9792,2.9792,2.9792,2.9792,2.9792,2.9792,2.9792,2.9792,2.9792,2.9792,2.9792,2.9792,2.9792,2.9792,2.9792,2.9792,2.9792,2.9792,2.9792,2.9792,2.9792,2.9792,2.9792,2.9792,2.9792,2.9792,2.9792,2.9792,2.9792,2.9792,2.9792,2.9792,2.9792,2.9792,2.9792,2.9792,2.9792,2.9792,2.9792,2.9792,2.9792,2.9792,2.9792,2.9792,2.9792,2.9792,2.9792,2.9792,2.9792,2.9792,2.9792,2.9792,2.9792,2.9792,2.9792,2.9792,2.9792,2.9792,2.9792,2.9792,2.9792,2.9792,2.9792,2.9792,2.9792,2.9792,2.9792,2.4131,2.5056,2.5937,2.767,2.8988,3.0131,3.116,3.2566,3.3822,3.4387,3.3696,3.3156,3.3658,3.2867,3.2491,3.3571,3.3746,3.3935,3.45,3.4135,3.401,3.4512,3.3646,3.3194,3.3696,3.3244,3.2973,3.2973,3.239,3.2064,3.2064,3.1097,3.0545,3.0545,3.0055,2.9792,2.9792,2.9792,2.9792,2.9792,2.9792,2.9792,2.9792,2.9792,2.9792,2.9792,2.9792,2.9792,2.9792,2.9792,2.9792,2.9792,2.9792,2.9792,2.9792,2.9792,2.9792,2.9792,2.9792,2.9792,2.9792,2.9792,2.9792,2.9792,2.9792,2.9792,2.9792,2.9792,2.9792,2.9792,2.9792,2.9792,2.9792,2.9792,2.9792,2.9792,2.9792,2.9792,2.9792,2.9792,2.9792,2.9792,2.9792,2.9792,2.9792,2.9792,2.9792,2.9792,2.9792,2.9792,2.9792,2.9792,2.9792,2.9792,2.9792,2.9792,2.9792,2.9792,2.9792,2.9792,2.9792,2.9792,2.9792,2.9792,2.9792,2.9792,2.9792,2.9792,2.9792,2.9792,2.9792,2.9792,2.2957,2.4114,2.5498,2.7582,2.9277,3.0608,3.1248,3.1662,3.2089,3.2641,3.2566,3.2441,3.2554,3.2014,3.1788,3.2466,3.2579,3.2767,3.3357,3.3332,3.3294,3.342,3.2817,3.2441,3.2566,3.2077,3.175,3.175,3.126,3.0959,3.0959,3.0331,2.9967,2.9967,2.9854,2.9792,2.9792,2.9792,2.9792,2.9792,2.9792,2.9792,2.9792,2.9792,2.9792,2.9792,2.9792,2.9792,2.9792,2.9792,2.9792,2.9792,2.9792,2.9792,2.9792,2.9792,2.9792,2.9792,2.9792,2.9792,2.9792,2.9792,2.9792,2.9792,2.9792,2.9792,2.9792,2.9792,2.9792,2.9792,2.9792,2.9792,2.9792,2.9792,2.9792,2.9792,2.9792,2.9792,2.9792,2.9792,2.9792,2.9792,2.9792,2.9792,2.9792,2.9792,2.9792,2.9792,2.9792,2.9792,2.9792,2.9792,2.9792,2.9792,2.9792,2.9792,2.9792,2.9792,2.9792,2.9792,2.9792,2.9792,2.9792,2.9792,2.9792,2.9792,2.9792,2.9792,2.9792,2.9792,2.9792,2.9792,2.1804,2.3486,2.5305,2.85,2.9967,3.0758,3.1273,3.1198,3.1097,3.1386,3.165,3.1813,3.1813,3.1587,3.1486,3.1763,3.2039,3.2227,3.2265,3.2503,3.2566,3.2303,3.2001,3.1813,3.1813,3.1562,3.1386,3.1386,3.0909,3.062,3.062,3.0093,2.9792,2.9792,2.9792,2.9792,2.9792,2.9792,2.9792,2.9792,2.9792,2.9792,2.9792,2.9792,2.9792,2.9792,2.9792,2.9792,2.9792,2.9792,2.9792,2.9792,2.9792,2.9792,2.9792,2.9792,2.9792,2.9792,2.9792,2.9792,2.9792,2.9792,2.9792,2.9792,2.9792,2.9792,2.9792,2.9792,2.9792,2.9792,2.9792,2.9792,2.9792,2.9792,2.9792,2.9792,2.9792,2.9792,2.9792,2.9792,2.9792,2.9792,2.9792,2.9792,2.9792,2.9792,2.9792,2.9792,2.9792,2.9792,2.9792,2.9792,2.9792,2.9792,2.9792,2.9792,2.9792,2.9792,2.9792,2.9792,2.9792,2.9792,2.9792,2.9792,2.9792,2.9792,2.9792,2.9792,2.9792,2.9792,2.9792,2.9792,2.054,2.2962,2.5394,2.9236,3.0256,3.047,3.0997,3.0783,3.047,3.047,3.0809,3.111,3.111,3.111,3.1148,3.1248,3.1637,3.18,3.1436,3.1788,3.1901,3.1449,3.1311,3.1248,3.1248,3.1173,3.111,3.111,3.0721,3.047,3.047,3.0043,2.9792,2.9792,2.9792,2.9741,2.9641,2.9641,2.9591,2.9503,2.9591,2.9691,2.9792,2.9792,2.9792,2.9792,2.9792,2.9792,2.9792,2.9792,2.9792,2.9792,2.9792,2.9792,2.9792,2.9792,2.9792,2.9792,2.9792,2.9792,2.9792,2.9792,2.9792,2.9792,2.9792,2.9792,2.9792,2.9792,2.9792,2.9792,2.9792,2.9792,2.9792,2.9792,2.9792,2.9792,2.9792,2.9792,2.9792,2.9792,2.9792,2.9792,2.9792,2.9792,2.9792,2.9792,2.9792,2.9792,2.9792,2.9792,2.9792,2.9792,2.9792,2.9792,2.9792,2.9792,2.9792,2.9792,2.9792,2.9792,2.9792,2.9792,2.9792,2.9792,2.9792,2.9792,2.9792,2.9792,2.9792,2.9792,2.9792,2.9792,1.8752,2.2246,2.5765,2.7889,2.8762,2.9264,2.988,2.9955,2.9905,2.9905,2.9955,3.0005,3.0005,3.0005,3.0168,3.0645,3.0783,3.0959,3.1336,3.1449,3.1474,3.1399,3.0997,3.0721,3.0721,3.0281,3.0005,3.0005,2.9942,2.9905,2.9905,2.9829,2.9792,2.9792,2.9792,2.9553,2.9013,2.9001,2.88,2.8335,2.8812,2.9302,2.9792,2.9792,2.9792,2.9792,2.9792,2.9792,2.9792,2.9792,2.9792,2.9792,2.9792,2.9792,2.9792,2.9792,2.9792,2.9792,2.9792,2.9792,2.9792,2.9792,2.9792,2.9792,2.9792,2.9792,2.9792,2.9792,2.9792,2.9792,2.9792,2.9792,2.9792,2.9792,2.9792,2.9792,2.9792,2.9792,2.9792,2.9792,2.9792,2.9792,2.9792,2.9792,2.9792,2.9792,2.9792,2.9792,2.9792,2.9792,2.9792,2.9792,2.9792,2.9792,2.9792,2.9792,2.9792,2.9792,2.9792,2.9792,2.9792,2.9792,2.9792,2.9792,2.9792,2.9792,2.9792,2.9792,2.9792,2.9792,2.9792,2.9792,1.7853,2.0412,2.2901,2.5849,2.6758,2.736,2.8963,2.9315,2.9402,2.9729,2.9792,2.9792,2.9792,2.9792,2.988,3.0118,3.0407,3.0583,3.0507,3.0758,3.0846,3.0532,3.0294,3.0156,3.0156,2.993,2.9792,2.9792,2.9792,2.9792,2.9792,2.9792,2.9792,2.9792,2.9478,2.9189,2.8888,2.8587,2.8461,2.8561,2.8461,2.8938,2.9779,2.9453,2.9315,2.9327,2.9654,2.9428,2.89,2.9528,2.9603,2.934,2.9666,2.9792,2.9792,2.9792,2.9792,2.9792,2.9792,2.9792,2.9792,2.9792,2.9792,2.9792,2.9792,2.9792,2.9792,2.9792,2.9792,2.9792,2.9792,2.9792,2.9792,2.9792,2.9792,2.9792,2.9792,2.9792,2.9792,2.9792,2.9792,2.9792,2.9792,2.9792,2.9792,2.9792,2.9792,2.9792,2.9792,2.9792,2.9792,2.9792,2.9792,2.9792,2.9792,2.9792,2.9792,2.9792,2.9792,2.9792,2.9792,2.9792,2.9792,2.9792,2.9792,2.9792,2.9792,2.9792,2.9792,2.9792,2.9792,2.9792,1.6725,1.8238,1.9792,2.3131,2.4455,2.5487,2.7532,2.825,2.8674,2.9252,2.9478,2.9578,2.9578,2.9691,2.9792,2.9792,3.0143,3.0269,2.9854,3.0143,3.0256,2.9842,2.9792,2.9792,2.9792,2.9792,2.9792,2.9792,2.9792,2.9792,2.9792,2.9792,2.9729,2.9578,2.9113,2.8762,2.8511,2.7959,2.7959,2.8511,2.8097,2.8411,2.9352,2.8913,2.8599,2.8512,2.9264,2.9013,2.8172,2.9013,2.9189,2.8938,2.9402,2.9666,2.9792,2.9792,2.9792,2.9792,2.9792,2.9792,2.9792,2.9792,2.9792,2.9792,2.9792,2.9792,2.9792,2.9792,2.9792,2.9792,2.9792,2.9792,2.9792,2.9792,2.9792,2.9792,2.9792,2.9792,2.9792,2.9792,2.9792,2.9792,2.9792,2.9792,2.9792,2.9792,2.9792,2.9792,2.9792,2.9792,2.9792,2.9792,2.9792,2.9792,2.9792,2.9792,2.9792,2.9792,2.9792,2.9792,2.9792,2.9792,2.9792,2.9792,2.9792,2.9792,2.9792,2.9792,2.9792,2.9792,2.9792,2.9792,1.4897,1.6102,1.7593,1.9512,2.1926,2.4095,2.5308,2.6508,2.7519,2.8084,2.8574,2.8938,2.8938,2.9415,2.9792,2.9792,2.9817,2.9829,2.9792,2.9817,2.9829,2.9792,2.9792,2.9792,2.9792,2.9792,2.9792,2.9792,2.9792,2.9792,2.9792,2.9792,2.9541,2.895,2.8913,2.8423,2.7381,2.6851,2.6851,2.7369,2.7344,2.7632,2.8197,2.816,2.7858,2.7431,2.8499,2.8599,2.8109,2.8172,2.8486,2.8888,2.8925,2.9315,2.9792,2.9792,2.9792,2.9792,2.9792,2.9792,2.9792,2.9792,2.9792,2.9792,2.9792,2.9792,2.9792,2.9792,2.9792,2.9792,2.9792,2.9792,2.9792,2.9792,2.9792,2.9792,2.9792,2.9792,2.9792,2.9792,2.9792,2.9792,2.9792,2.9792,2.9792,2.9792,2.9792,2.9792,2.9792,2.9792,2.9792,2.9792,2.9792,2.9792,2.9792,2.9792,2.9792,2.9792,2.9792,2.9792,2.9792,2.9792,2.9792,2.9792,2.9792,2.9792,2.9792,2.9792,2.9792,2.9792,2.9792,2.9792,1.3529,1.3789,1.4577,1.7288,1.887,2.0489,2.3188,2.4626,2.5693,2.6859,2.7494,2.7984,2.8335,2.9164,2.9792,2.9792,2.9792,2.9792,2.9792,2.9792,2.9792,2.9792,2.9792,2.9792,2.9792,2.9792,2.9792,2.9792,2.9792,2.9792,2.9792,2.944,2.9315,2.9478,2.8436,2.7507,2.6801,2.66,2.6776,2.7316,2.6952,2.7266,2.8097,2.7733,2.7469,2.7306,2.7708,2.7758,2.7632,2.8348,2.8499,2.8473,2.9202,2.9164,2.88,2.9528,2.9553,2.9239,2.9239,2.9478,2.9729,2.9365,2.949,2.9792,2.9792,2.9792,2.9792,2.9792,2.9792,2.9792,2.9792,2.9792,2.9792,2.9792,2.9792,2.9792,2.9792,2.9792,2.9792,2.9792,2.9792,2.9792,2.9792,2.9792,2.9792,2.9792,2.9792,2.9792,2.9792,2.9792,2.9792,2.9792,2.9792,2.9792,2.9792,2.9792,2.9792,2.9792,2.9792,2.9792,2.9792,2.9792,2.9792,2.9792,2.9792,2.9792,2.9792,2.9792,2.998,3.0319,3.0319,3.0495,1.2637,1.2523,1.2981,1.5028,1.6332,1.7849,2.0763,2.2523,2.3962,2.5462,2.6429,2.7216,2.772,2.8599,2.9289,2.9478,2.9666,2.9792,2.9792,2.9792,2.9792,2.9792,2.9792,2.9792,2.9792,2.9792,2.9792,2.9792,2.9792,2.9704,2.9515,2.9327,2.9214,2.9227,2.7783,2.6864,2.6499,2.6499,2.6675,2.704,2.6663,2.6876,2.7544,2.7168,2.704,2.704,2.704,2.714,2.7379,2.8072,2.8386,2.8436,2.9001,2.8875,2.8448,2.9013,2.8988,2.8612,2.8612,2.9026,2.944,2.9013,2.9315,2.9792,2.9792,2.9792,2.9792,2.9792,2.9792,2.9792,2.9792,2.9792,2.9792,2.9792,2.9792,2.9792,2.9792,2.9792,2.9792,2.9792,2.9792,2.9792,2.9792,2.9792,2.9792,2.9792,2.9792,2.9792,2.9792,2.9792,2.9867,3.0043,2.9905,2.9867,3.0055,3.0068,2.9993,2.9804,2.9967,3.0068,3.0068,3.0068,3.0143,3.0319,3.0331,3.0331,3.0331,3.0156,3.0344,3.0871,3.0871,3.116,0.0,0.0,0.0,1.276,1.4351,1.6429,1.8061,2.0194,2.2278,2.3859,2.5348,2.654,2.7105,2.767,2.8235,2.8737,2.9365,2.9779,2.9792,2.9792,2.9792,2.9792,2.9792,2.9792,2.9792,2.9792,2.9792,2.9792,2.9792,2.9553,2.895,2.9465,2.9239,2.8097,2.7065,2.6512,2.6499,2.6499,2.6499,2.6499,2.6499,2.6499,2.6499,2.6499,2.6499,2.6499,2.6499,2.6801,2.7281,2.7281,2.7908,2.8787,2.831,2.8411,2.8762,2.8298,2.8097,2.8084,2.8084,2.8448,2.8888,2.8875,2.9315,2.9792,2.9792,2.9792,2.9792,2.9792,2.9792,2.9792,2.9792,2.9792,2.9792,2.9792,2.9792,2.9792,2.9792,2.9792,2.9792,2.9792,2.9804,2.9817,2.9792,2.9804,2.9817,2.9817,2.9804,2.9804,2.9829,2.9829,3.003,3.0583,3.0156,3.0055,3.0595,3.0633,3.0407,2.988,3.0344,3.0633,3.0633,3.0633,3.0871,3.1386,3.1386,3.1399,3.1411,3.0896,3.0909,3.1411,3.1436,3.1725,1.3705,0.0,0.0,0.0,0.0,0.0,1.6198,1.749,1.889,2.1177,2.2497,2.3519,2.4408,2.5874,2.7002,2.7153,2.8285,2.9315,2.9729,2.9792,2.9792,2.9792,2.9792,2.9792,2.9792,2.9792,2.9792,2.9792,2.9792,2.9729,2.9566,2.9315,2.8473,2.7002,2.704,2.6901,2.6499,2.6499,2.6499,2.6499,2.6499,2.6499,2.6499,2.6499,2.6499,2.6499,2.6499,2.6801,2.7281,2.7281,2.7457,2.7758,2.8009,2.7708,2.7218,2.7871,2.7846,2.7507,2.7507,2.8134,2.8825,2.8461,2.9001,2.9792,2.9792,2.9792,2.9792,2.9792,2.9792,2.9792,2.9792,2.9792,2.9792,2.9792,2.9792,2.9792,2.9792,2.9792,2.9792,2.9792,3.0118,3.0269,2.9867,3.0118,3.0382,3.0382,3.0043,3.0068,3.0846,3.062,3.0583,3.1122,3.1047,3.1009,3.1173,3.1173,3.111,3.0959,3.1097,3.1173,3.1173,3.1173,3.1248,3.1386,3.1386,3.1587,3.1989,3.1436,3.1449,3.2001,3.2416,3.2692,1.4979,1.4053,1.3363,1.3589,0.0,0.0,1.5449,1.6478,1.7585,1.9455,2.058,2.146,2.228,2.3824,2.5135,2.5592,2.6928,2.826,2.9289,2.9428,2.9528,2.9767,2.9792,2.9792,2.9792,2.9792,2.9792,2.9792,2.9792,2.9691,2.9453,2.8674,2.7795,2.6864,2.6927,2.6826,2.6499,2.6499,2.6499,2.6499,2.6499,2.6499,2.6499,2.6499,2.6499,2.6512,2.6738,2.7014,2.7341,2.7532,2.7758,2.7959,2.7821,2.7507,2.7241,2.7607,2.7557,2.7318,2.7544,2.8197,2.8838,2.8549,2.9063,2.9792,2.9792,2.9792,2.9792,2.9792,2.9792,2.9792,2.9792,2.9792,2.9792,2.9792,2.9792,2.9792,2.9792,2.9792,2.9867,3.0093,3.0394,3.0583,3.0482,3.0733,3.0934,3.0934,3.067,3.0683,3.1311,3.1122,3.1148,3.1675,3.1524,3.1486,3.1712,3.1738,3.1637,3.1399,3.1599,3.1738,3.1738,3.1738,3.1851,3.2089,3.2315,3.2591,3.2918,3.2114,3.2014,3.2579,3.2918,3.3124,1.6059,1.53,1.4908,1.4664,1.444,0.0,1.5477,1.6493,1.7528,1.8438,1.9321,2.0099,2.0615,2.1859,2.3105,2.401,2.5348,2.6837,2.8562,2.885,2.9076,2.9641,2.9754,2.9792,2.9792,2.9729,2.9691,2.9691,2.9691,2.9478,2.8913,2.7946,2.7344,2.7281,2.6788,2.6499,2.6499,2.6499,2.6499,2.6499,2.6499,2.6499,2.6499,2.6499,2.6499,2.6524,2.7077,2.7281,2.7318,2.7871,2.8398,2.87,2.7695,2.762,2.8047,2.7494,2.7318,2.7444,2.7934,2.8461,2.8888,2.8888,2.9315,2.9792,2.9792,2.9792,2.9792,2.9792,2.9792,2.9792,2.9792,2.9792,2.9792,2.9792,2.9792,2.9792,2.9792,2.9792,2.998,3.0583,3.0708,3.0846,3.1311,3.1436,3.1486,3.1486,3.1436,3.1436,3.1562,3.1524,3.17,3.2252,3.1863,3.1775,3.2265,3.2303,3.2102,3.1612,3.2039,3.2303,3.2303,3.2303,3.2554,3.3111,3.3621,3.3935,3.3985,3.2918,3.2629,3.3124,3.3124,3.3124,1.6741,1.5935,1.5378,1.5328,1.5033,0.0,1.5423,1.5946,1.6603,1.7478,1.8329,1.9052,1.9532,2.1041,2.2139,2.2001,2.3473,2.5508,2.7925,2.8612,2.8938,2.9051,2.9503,2.9792,2.9792,2.9365,2.9063,2.9063,2.9063,2.9013,2.89,2.8298,2.7745,2.7293,2.6788,2.6499,2.6499,2.6499,2.6499,2.6499,2.6499,2.6499,2.6499,2.6499,2.6499,2.6524,2.7077,2.7281,2.7318,2.7871,2.8172,2.8197,2.7544,2.762,2.8047,2.7494,2.7557,2.7959,2.8059,2.8461,2.8888,2.8888,2.9315,2.9792,2.9792,2.9792,2.9792,2.9792,2.9792,2.9792,2.9792,2.9792,2.9792,2.9792,2.9792,2.9792,2.9792,2.9792,3.008,3.1047,3.1235,3.1273,3.1373,3.1763,3.2051,3.2051,3.1675,3.1712,3.2629,3.234,3.2265,3.2842,3.2817,3.2792,3.2905,3.2905,3.2867,3.2754,3.2855,3.2905,3.2905,3.2905,3.2968,3.3124,3.3621,3.4123,3.4562,3.3897,3.3407,3.3124,3.3124,3.3124,1.7773,1.7058,1.6741,1.6741,1.6276,0.0,0.0,1.643,1.6594,1.7268,1.7364,1.755,1.824,1.9239,2.0162,2.0685,2.1744,2.3197,2.5207,2.6782,2.7896,2.8448,2.8775,2.895,2.895,2.8938,2.9013,2.934,2.8837,2.8599,2.8875,2.8398,2.7846,2.7341,2.7052,2.6776,2.6499,2.6499,2.6499,2.6499,2.6499,2.6499,2.6499,2.6499,2.6499,2.6537,2.7331,2.7544,2.7344,2.8172,2.8511,2.8461,2.7908,2.8034,2.8486,2.821,2.8285,2.8561,2.885,2.9126,2.9365,2.9365,2.9553,2.9792,2.9792,2.9792,2.9792,2.9792,2.9792,2.9792,2.9792,2.9792,2.9792,2.9792,2.9792,2.9792,2.9792,3.0005,3.0444,3.1235,3.1612,3.1888,3.2177,3.2466,3.2641,3.2641,3.2403,3.2428,3.3048,3.283,3.2754,3.3086,3.3124,3.3124,3.3124,3.3124,3.3124,3.3124,3.3124,3.3124,3.3124,3.3124,3.3332,3.3884,3.4437,3.4806,3.5094,3.4806,3.4299,3.3483,3.3483,3.3483,1.9012,1.839,1.8267,1.835,1.7766,1.7279,0.0,0.0,0.0,1.7344,1.6907,1.6692,1.7406,1.7769,1.8373,1.9508,2.0214,2.1019,2.221,2.4258,2.6099,2.7392,2.7574,2.7745,2.8072,2.8411,2.88,2.9277,2.8561,2.8348,2.8863,2.8398,2.7946,2.7607,2.7394,2.7153,2.6813,2.6713,2.665,2.665,2.6549,2.6499,2.6499,2.66,2.665,2.6713,2.7783,2.8009,2.767,2.8687,2.8988,2.8838,2.8323,2.8511,2.9051,2.8938,2.8963,2.9126,2.9628,2.9792,2.9792,2.9792,2.9792,2.9792,2.9792,2.9792,2.9792,2.9792,2.9792,2.9792,2.9792,2.9792,2.9792,2.9792,2.9792,2.9829,2.993,3.0306,3.0809,3.1424,3.1901,3.239,3.3023,3.3124,3.3124,3.3124,3.3124,3.3124,3.3124,3.3124,3.3124,3.3124,3.3124,3.3124,3.3124,3.3124,3.3124,3.3124,3.3124,3.3124,3.3124,3.3124,3.3596,3.47,3.5119,3.5445,3.5658,3.5658,3.5077,3.3897,3.3897,3.3847,2.0596,1.9839,1.9258,1.9599,1.9359,1.8913,1.8555,0.0,1.8188,1.7529,0.0,1.7822,1.792,0.0,0.0,1.8217,1.9247,2.0096,2.0392,2.1627,2.3271,2.5288,2.5753,2.6465,2.7959,2.772,2.7494,2.757,2.7896,2.8348,2.8863,2.8398,2.8298,2.87,2.7795,2.7494,2.7908,2.7431,2.7228,2.718,2.6725,2.6499,2.6512,2.7002,2.7228,2.7291,2.8348,2.8762,2.875,2.9428,2.939,2.8838,2.8323,2.875,2.9628,2.9076,2.9252,2.9704,2.9767,2.9792,2.9792,2.9792,2.9792,2.9792,2.9792,2.9792,2.9792,2.9792,2.9792,2.9792,2.9792,2.9792,2.9792,2.9792,2.9792,2.993,3.0419,3.057,3.0909,3.1926,3.2177,3.239,3.3023,3.3124,3.3124,3.3124,3.3124,3.3124,3.3124,3.3124,3.3124,3.3124,3.3124,3.3124,3.3124,3.3124,3.3124,3.3124,3.3124,3.3124,3.3124,3.3124,3.3596,3.47,3.4776,3.529,3.6317,3.6317,3.5454,3.3897,3.3897,3.3633,2.1839,2.1261,2.0797,2.0502,1.9862,1.9164,1.8724,1.8414,1.8208,1.8135,0.0,0.0,0.0,0.0,0.0,0.0,1.8402,1.8633,1.9172,1.9423,2.0632,2.3524,2.4179,2.4976,2.6518,2.644,2.6578,2.7231,2.7241,2.767,2.8825,2.8398,2.836,2.8875,2.8473,2.8197,2.8109,2.7871,2.7758,2.7758,2.7241,2.6964,2.6977,2.7216,2.7281,2.7379,2.8411,2.8712,2.8499,2.9051,2.8963,2.8461,2.8512,2.8875,2.9302,2.9402,2.9578,2.9792,2.9792,2.9792,2.9792,2.9792,2.9792,2.9792,2.9792,2.9792,2.9792,2.9792,2.9792,2.9792,2.9792,2.9792,2.988,3.0193,3.0269,3.0419,3.0947,3.1323,3.1675,3.2127,3.2478,3.2792,3.3074,3.3124,3.3124,3.3124,3.3124,3.3124,3.3124,3.3124,3.3124,3.3124,3.3124,3.3124,3.3124,3.3124,3.3124,3.3124,3.3124,3.3262,3.3533,3.3558,3.4073,3.5132,3.5157,3.5579,3.6405,3.6405,3.5843,3.4806,3.4806,3.4726,2.2948,2.249,2.211,2.1818,2.081,1.9784,1.9465,1.8825,1.8418,1.8559,1.8252,0.0,0.0,0.0,1.793,1.851,0.0,1.7939,1.852,1.8248,1.9044,2.18,2.3074,2.4095,2.5114,2.5602,2.6101,2.6766,2.6776,2.7178,2.8197,2.816,2.836,2.8875,2.8888,2.8775,2.8574,2.8411,2.826,2.8097,2.7708,2.7431,2.7329,2.7595,2.7733,2.7783,2.875,2.8938,2.8586,2.88,2.865,2.8373,2.8737,2.8888,2.8963,2.9578,2.9792,2.9792,2.9792,2.9792,2.9792,2.9792,2.9792,2.9792,2.9792,2.9792,2.9792,2.9792,2.9792,2.9792,2.9792,2.9905,3.0118,3.052,3.0721,3.0972,3.1499,3.1938,3.2252,3.2416,3.2792,3.3124,3.3124,3.3124,3.3124,3.3124,3.3124,3.3124,3.3124,3.3124,3.3124,3.3124,3.3124,3.3124,3.3124,3.3124,3.3124,3.3124,3.3262,3.3483,3.3884,3.4048,3.4575,3.5483,3.5495,3.5818,3.6405,3.6405,3.6157,3.5768,3.5571,3.542,2.3854,2.3409,2.2905,2.3839,2.2717,2.1349,2.1296,2.0257,1.9131,1.8685,1.8955,1.9238,1.9268,1.8896,0.0,0.0,1.8578,0.0,0.0,1.8603,1.8969,2.0057,2.2617,2.4275,2.4254,2.5588,2.6248,2.5686,2.6653,2.7077,2.66,2.7544,2.836,2.8875,2.8888,2.9189,2.9729,2.9189,2.8599,2.8109,2.8084,2.7795,2.7354,2.8386,2.8838,2.8863,2.9503,2.9754,2.9691,2.9113,2.8888,2.8863,2.8888,2.8888,2.8963,2.9578,2.9792,2.9792,2.9792,2.9792,2.9792,2.9792,2.9792,2.9792,2.9792,2.9792,2.9792,2.9792,2.9792,2.9792,2.9792,3.0193,3.0595,3.0608,3.0997,3.1512,3.2064,3.2202,3.2378,3.2943,3.3111,3.3124,3.3124,3.3124,3.3124,3.3124,3.3124,3.3124,3.3124,3.3124,3.3124,3.3124,3.3124,3.3124,3.3124,3.3124,3.3124,3.3124,3.3583,3.3884,3.3897,3.4412,3.4919,3.5495,3.5495,3.5818,3.6405,3.6405,3.6405,3.6367,3.5793,3.5207,2.462,2.4079,2.3577,2.3726,2.2988,2.2195,2.1981,2.1869,2.1478,2.0301,2.0977,2.1485,2.0498,2.0169,0.0,0.0,0.0,1.8598,0.0,1.8364,1.8424,1.9039,2.0726,2.207,2.2604,2.34,2.4047,2.4512,2.4895,2.5498,2.6449,2.719,2.7984,2.8863,2.9302,2.9591,2.9792,2.9603,2.9402,2.9214,2.8837,2.8512,2.8386,2.8712,2.8888,2.8925,2.9541,2.9792,2.9779,2.9578,2.9277,2.8925,2.9352,2.9264,2.8963,2.9578,2.9792,2.9792,2.9792,2.9792,2.9792,2.9792,2.9792,2.9792,2.9792,2.9792,2.9792,2.9792,2.9792,2.988,3.0244,3.047,3.0796,3.1512,3.18,3.2089,3.2667,3.278,3.2842,3.3043,3.3124,3.3124,3.3124,3.3124,3.3124,3.3124,3.3124,3.3124,3.3124,3.3124,3.3124,3.3124,3.3124,3.3124,3.3124,3.342,3.3771,3.4148,3.4349,3.4613,3.4931,3.4768,3.5152,3.6069,3.5683,3.5818,3.6405,3.6405,3.6405,3.6405,3.6169,3.5981,2.506,2.465,2.4361,2.4271,2.3737,2.316,2.2993,2.3107,2.2909,2.1794,2.2459,2.2943,2.193,2.1779,0.0,0.0,0.0,0.0,0.0,1.8276,1.8247,1.8364,1.9569,2.0741,2.1562,2.2389,2.3071,2.3623,2.4067,2.4757,2.5858,2.6625,2.7494,2.8562,2.9189,2.9578,2.9792,2.9792,2.9691,2.9478,2.9076,2.8888,2.8888,2.8888,2.9001,2.9252,2.9628,2.9792,2.9779,2.9566,2.939,2.9252,2.9415,2.939,2.9289,2.9654,2.9792,2.9792,2.9792,2.9792,2.9792,2.9792,2.9792,2.9792,2.9792,2.9792,2.9792,2.9792,2.993,3.0168,3.052,3.0896,3.1361,3.2051,3.2365,3.2616,3.3006,3.3124,3.3124,3.3124,3.3124,3.3124,3.3124,3.3124,3.3124,3.3124,3.3124,3.3124,3.3124,3.3124,3.3156,3.3345,3.337,3.3445,3.3646,3.3985,3.4349,3.47,3.4856,3.5132,3.5483,3.5391,3.573,3.6681,3.6119,3.6107,3.6707,3.6505,3.6405,3.6405,3.6405,3.6405]}]]